[[{"header":{"parameterUnit":"m.s-1","parameterCategory":1,"la1":31.0,"la2":29.5877,"lo1":-88.7671,"lo2":-86.6584,"dy":0.0162,"dx":0.0185,"nx":115,"ny":88,"refTime":"2023-05-31T12:00:00:Z","depth":0,"parameterNumber":2,"parameterNumberName":"U-component_of_WINDS"},"data":[0.0,0.0,0.0,0.0,0.0,0.0,0.0,0.0,0.0,0.0,0.0,0.0,0.0,0.0,0.0,0.0,0.0,0.0,0.0,0.0,0.0,0.0,0.0,0.0,0.0,0.0,0.0,0.0,0.0,0.0,0.0,0.0,0.0,0.0,0.0,0.0,0.0,0.0,0.0,0.0,0.0,0.0,0.0,0.0,0.0,0.0,0.0,0.0,0.0,0.0,0.0,0.0,0.0,0.0,0.0,0.0,0.0,0.0,0.0,0.0,0.0,0.0,0.0,0.0,0.0,0.0,0.0,0.0,0.0,0.0,0.0,0.0,0.0,0.0,0.0,0.0,0.0,0.0,0.0,0.0,0.0,0.0,0.0,0.0,0.0,0.0,0.0,0.0,0.0,0.0,0.0,0.0,0.0,0.0,0.0,0.0,0.0,0.0,0.0,0.0,0.0,0.0,0.0,0.0,0.0,0.0,0.0,0.0,0.0,0.0,0.0,0.0,0.0,0.0,0.0,0.0,0.0,0.0,0.0,0.0,0.0,0.0,0.0,0.0,0.0,0.0,0.0,0.0,0.0,0.0,0.0,0.0,0.0,0.0,0.0,0.0,0.0,0.0,0.0,0.0,0.0,0.0,0.0,0.0,0.0,0.0,0.0,0.0,0.0,0.0,0.0,0.0,0.0,0.0,0.0,0.0,0.0,0.0,0.0,0.0,0.0,0.0,0.0,0.0,0.0,0.0,0.0,0.0,0.0,0.0,0.0,0.0,0.0,0.0,0.0,0.0,0.0,0.0,0.0,0.0,0.0,0.0,0.0,0.0,0.0,0.0,0.0,0.0,0.0,0.0,0.0,0.0,0.0,0.0,0.0,0.0,0.0,0.0,0.0,0.0,0.0,0.0,0.0,0.0,0.0,0.0,0.0,0.0,0.0,0.0,0.0,0.0,0.0,0.0,0.0,0.0,0.0,0.0,0.0,0.0,0.0,0.0,0.0,0.0,0.0,0.0,0.0,0.0,0.0,0.0,0.0,0.0,0.0,0.0,0.0,0.0,0.0,0.0,0.0,0.0,0.0,0.0,0.0,0.0,0.0,0.0,0.0,0.0,0.0,0.0,0.0,0.0,0.0,0.0,0.0,0.0,0.0,0.0,0.0,0.0,0.0,0.0,0.0,0.0,0.0,0.0,0.0,0.0,0.0,0.0,0.0,0.0,0.0,0.0,0.0,0.0,0.0,0.0,0.0,0.0,0.0,0.0,0.0,0.0,0.0,0.0,0.0,0.0,0.0,0.0,0.0,0.0,0.0,0.0,0.0,0.0,0.0,0.0,0.0,0.0,0.0,0.0,0.0,0.0,0.0,0.0,0.0,0.0,0.0,0.0,0.0,0.0,0.0,0.0,0.0,0.0,0.0,0.0,0.0,0.0,0.0,0.0,0.0,0.0,0.0,0.0,0.0,0.0,0.0,0.0,0.0,0.0,0.0,0.0,0.0,0.0,0.0,0.0,0.0,0.0,0.0,0.0,0.0,0.0,0.0,0.0,0.0,0.0,0.0,0.0,0.0,0.0,0.0,0.0,0.0,0.0,0.0,0.0,0.0,0.0,0.0,0.0,0.0,0.0,0.0,0.0,0.0,0.0,0.0,0.0,0.0,0.0,0.0,0.0,0.0,0.0,0.0,0.0,0.0,0.0,0.0,0.0,0.0,0.0,0.0,0.0,0.0,0.0,0.0,0.0,0.0,0.0,0.0,0.0,0.0,0.0,0.0,0.0,0.0,0.0,0.0,0.0,0.0,0.0,0.0,0.0,0.0,0.0,0.0,0.0,0.0,0.0,0.0,0.0,0.0,0.0,0.0,0.0,0.0,0.0,0.0,0.0,0.0,0.0,0.0,0.0,0.0,0.0,0.0,0.0,0.0,0.0,0.0,0.0,0.0,0.0,0.0,0.0,0.0,0.0,0.0,0.0,0.0,0.0,0.0,0.0,0.0,0.0,0.0,0.0,0.0,0.0,0.0,0.0,0.0,0.0,0.0,0.0,0.0,0.0,0.0,0.0,0.0,0.0,0.0,0.0,0.0,0.0,0.0,0.0,0.0,0.0,0.0,0.0,0.0,0.0,0.0,0.0,0.0,0.0,0.0,0.0,0.0,0.0,0.0,0.0,0.0,0.0,0.0,0.0,0.0,0.0,0.0,0.0,0.0,0.0,0.0,0.0,0.0,0.0,0.0,0.0,0.0,0.0,0.0,0.0,0.0,0.0,0.0,0.0,0.0,0.0,0.0,0.0,0.0,0.0,0.0,0.0,0.0,0.0,0.0,0.0,0.0,0.0,0.0,0.0,0.0,0.0,0.0,0.0,0.0,0.0,0.0,0.0,0.0,0.0,0.0,0.0,0.0,0.0,0.0,0.0,0.0,0.0,0.0,0.0,0.0,0.0,0.0,0.0,0.0,0.0,0.0,0.0,0.0,0.0,0.0,0.0,0.0,0.0,0.0,0.0,0.0,0.0,0.0,0.0,0.0,0.0,0.0,0.0,0.0,0.0,0.0,0.0,0.0,0.0,0.0,0.0,0.0,0.0,0.0,0.0,0.0,0.0,0.0,0.0,0.0,0.0,0.0,0.0,0.0,0.0,0.0,0.0,0.0,0.0,0.0,0.0,0.0,0.0,0.0,0.0,0.0,0.0,0.0,0.0,0.0,0.0,0.0,0.0,0.0,0.0,0.0,0.0,0.0,0.0,0.0,0.0,0.0,0.0,0.0,0.0,0.0,0.0,0.0,0.0,0.0,0.0,0.0,0.0,0.0,0.0,0.0,0.0,0.0,0.0,0.0,0.0,0.0,0.0,0.0,0.0,0.0,0.0,0.0,0.0,0.0,0.0,0.0,0.0,0.0,0.0,0.0,0.0,0.0,0.0,0.0,0.0,0.0,0.0,0.0,0.0,0.0,0.0,0.0,0.0,0.0,0.0,0.0,0.0,0.0,0.0,0.0,0.0,0.0,0.0,0.0,0.0,0.0,0.0,0.0,0.0,0.0,0.0,0.0,0.0,0.0,0.0,0.0,0.0,0.0,0.0,0.0,0.0,0.0,0.0,0.0,0.0,0.0,0.0,0.0,0.0,0.0,0.0,0.0,0.0,0.0,0.0,0.0,0.0,0.0,0.0,0.0,0.0,0.0,0.0,0.0,0.0,0.0,0.0,0.0,0.0,0.0,0.0,0.0,0.0,0.0,0.0,0.0,0.0,0.0,0.0,0.0,0.0,0.0,0.0,0.0,0.0,0.0,0.0,0.0,0.0,0.0,0.0,0.0,0.0,0.0,0.0,0.0,0.0,0.0,0.0,0.0,0.0,0.0,0.0,0.0,0.0,0.0,0.0,0.0,0.0,0.0,0.0,0.0,0.0,0.0,0.0,0.0,0.0,0.0,0.0,0.0,0.0,0.0,0.0,0.0,0.0,0.0,0.0,0.0,0.0,0.0,0.0,0.0,0.0,0.0,0.0,0.0,0.0,0.0,0.0,0.0,0.0,0.0,0.0,0.0,0.0,0.0,0.0,0.0,0.0,0.0,0.0,0.0,0.0,0.0,0.0,0.0,0.0,0.0,0.0,0.0,0.0,0.0,0.0,0.0,0.0,0.0,0.0,0.0,0.0,0.0,0.0,0.0,0.0,0.0,0.0,0.0,0.0,0.0,0.0,0.0,0.0,0.0,0.0,0.0,0.0,0.0,0.0,0.0,0.0,0.0,0.0,0.0,0.0,0.0,0.0,0.0,0.0,0.0,0.0,0.0,0.0,0.0,0.0,0.0,0.0,0.0,0.0,0.0,0.0,0.0,0.0,0.0,0.0,0.0,0.0,0.0,0.0,0.0,0.0,0.0,0.0,0.0,0.0,0.0,0.0,0.0,0.0,0.0,0.0,0.0,0.0,0.0,0.0,0.0,0.0,0.0,0.0,0.0,0.0,0.0,0.0,0.0,0.0,0.0,0.0,0.0,0.0,0.0,0.0,0.0,0.0,0.0,0.0,0.0,0.0,0.0,0.0,0.0,0.0,0.0,0.0,0.0,0.0,0.0,0.0,0.0,0.0,0.0,0.0,0.0,0.0,0.0,0.0,0.0,0.0,0.0,0.0,0.0,0.0,0.0,0.0,0.0,0.0,0.0,0.0,0.0,0.0,0.0,0.0,0.0,0.0,0.0,0.0,0.0,0.0,0.0,0.0,0.0,0.0,0.0,0.0,0.0,0.0,0.0,0.0,0.0,0.0,0.0,0.0,0.0,0.0,0.0,0.0,1.3438,0.0,0.0,0.0,0.0,0.0,0.0,0.0,0.0,0.0,0.0,0.0,0.0,0.0,0.0,0.0,0.0,0.0,0.0,0.0,0.0,0.0,0.0,0.0,0.0,0.0,0.0,0.0,0.0,0.0,0.0,0.0,0.0,0.0,0.0,0.0,0.0,0.0,0.0,0.0,0.0,0.0,0.0,0.0,0.0,0.0,0.0,0.0,0.0,0.0,0.0,0.0,0.0,0.0,0.0,0.0,0.0,0.0,0.0,0.0,0.0,0.0,0.0,0.0,0.0,0.0,0.0,0.0,0.0,0.0,0.0,0.0,0.0,0.0,0.0,0.0,0.0,0.0,0.0,0.0,0.0,0.0,0.0,0.0,0.0,0.0,0.0,0.0,0.0,0.0,0.0,0.0,0.0,0.0,0.0,0.0,0.0,0.0,0.0,0.0,0.0,0.0,0.0,0.0,0.0,0.0,0.0,0.0,0.0,0.0,0.0,1.4397,1.4086,1.3832,1.3556,1.325,0.0,0.0,0.0,0.0,0.0,0.0,0.0,0.0,0.0,0.0,0.0,0.0,0.0,0.0,0.0,0.0,0.0,0.0,0.0,0.0,0.0,0.0,0.0,0.0,0.0,0.0,0.0,0.0,0.0,0.0,0.0,0.0,0.0,0.0,0.0,0.0,0.0,0.0,0.0,0.0,0.0,0.0,0.0,0.0,0.0,0.0,0.0,0.0,0.0,0.0,0.0,0.0,0.0,0.0,0.0,0.0,0.0,0.0,0.0,0.0,0.0,0.0,0.0,0.0,0.0,0.0,0.0,0.0,0.0,0.0,0.0,0.0,0.0,0.0,0.0,0.0,0.0,0.0,0.0,0.0,0.0,0.0,0.0,0.0,0.0,0.0,0.0,0.0,0.0,0.0,0.0,0.0,0.0,0.0,0.0,0.0,0.0,0.0,0.0,0.0,0.0,0.0,0.0,0.0,0.0,0.0,0.0,0.0,0.0,0.0,0.0,0.0,1.3846,1.3606,1.3357,0.0,0.0,0.0,0.0,0.0,0.0,0.0,0.0,0.0,0.0,0.0,0.0,0.0,0.0,0.0,0.0,0.0,0.0,0.0,0.0,0.0,0.0,0.0,0.0,0.0,0.0,0.0,0.0,0.0,0.0,0.0,0.0,0.0,0.0,0.0,0.0,0.0,0.0,0.0,0.0,0.0,0.0,0.0,0.0,0.0,0.0,0.0,0.0,0.0,0.0,0.0,0.0,0.0,0.0,0.0,0.0,0.0,0.0,0.0,0.0,0.0,0.0,0.0,0.0,0.0,0.0,0.0,0.0,0.0,0.0,0.0,0.0,0.0,0.0,0.0,0.0,0.0,0.0,0.0,0.0,0.0,0.0,0.0,0.0,0.0,0.0,0.0,0.0,0.0,0.0,0.0,0.0,0.0,0.0,0.0,0.0,0.0,0.0,0.0,0.0,0.0,0.0,0.0,0.0,0.0,0.0,0.0,0.0,0.0,0.0,1.4244,1.3916,1.4124,0.0,1.4048,0.0,0.0,0.0,0.0,0.0,0.0,0.0,0.0,0.0,0.0,0.0,0.0,0.0,0.0,0.0,0.0,0.0,0.0,0.0,0.0,0.0,0.0,0.0,0.0,0.0,0.0,0.0,0.0,0.0,0.0,0.0,0.0,0.0,0.0,0.0,0.0,0.0,0.0,0.0,0.0,0.0,0.0,0.0,0.0,0.0,0.0,0.0,0.0,0.0,0.0,0.0,0.0,0.0,0.0,0.0,0.0,0.0,0.0,0.0,0.0,0.0,0.0,0.0,0.0,0.0,0.0,0.0,0.0,0.0,0.0,0.0,0.0,0.0,0.0,0.0,0.0,0.0,0.0,0.0,0.0,0.0,0.0,0.0,0.0,0.0,0.0,0.0,0.0,0.0,0.0,0.0,0.0,0.0,0.0,0.0,0.0,0.0,0.0,0.0,0.0,0.0,0.0,0.0,0.0,0.0,0.0,0.0,0.0,0.0,0.0,1.4605,1.4332,1.4428,1.4479,0.0,0.0,0.0,0.0,0.0,0.0,0.0,0.0,0.0,0.0,0.0,0.0,0.0,0.0,0.0,0.0,0.0,0.0,0.0,0.0,0.0,0.0,0.0,0.0,0.0,0.0,0.0,0.0,0.0,0.0,0.0,0.0,0.0,0.0,0.0,0.0,0.0,0.0,0.0,0.0,0.0,0.0,0.0,0.0,0.0,0.0,0.0,0.0,0.0,0.0,0.0,0.0,0.0,0.0,0.0,0.0,0.0,0.0,0.0,0.0,0.0,0.0,0.0,0.0,0.0,0.0,0.0,0.0,0.0,0.0,0.0,0.0,0.0,0.0,0.0,0.0,0.0,0.0,0.0,0.0,0.0,0.0,0.0,0.0,0.0,0.0,0.0,0.0,0.0,0.0,0.0,0.0,0.0,0.0,0.0,0.0,0.0,0.0,0.0,0.0,0.0,0.0,0.0,0.0,0.0,0.0,0.0,0.0,0.0,0.0,1.517,1.5087,1.484,1.4773,1.4831,1.4988,0.0,0.0,0.0,0.0,0.0,0.0,0.0,0.0,0.0,0.0,0.0,0.0,0.0,0.0,0.0,0.0,0.0,0.0,0.0,0.0,0.0,0.0,0.0,0.0,0.0,0.0,0.0,0.0,0.0,0.0,0.0,0.0,0.0,0.0,0.0,0.0,0.0,0.0,0.0,0.0,0.0,0.0,0.0,0.0,0.0,0.0,0.0,0.0,0.0,0.0,0.0,0.0,0.0,0.0,0.0,0.0,0.0,0.0,0.0,0.0,0.0,0.0,0.0,0.0,0.0,0.0,0.0,0.0,0.0,0.0,0.0,0.0,0.0,0.0,0.0,0.0,0.0,0.0,0.0,0.0,0.0,0.0,0.0,0.0,0.0,0.0,0.0,0.0,0.0,0.0,0.0,0.0,0.0,0.0,0.0,0.0,0.0,0.0,0.0,0.0,0.0,0.0,0.0,0.0,0.0,0.0,0.0,0.0,1.6117,1.5819,1.5607,1.545,1.5263,1.5279,0.0,0.0,0.0,0.0,0.0,0.0,0.0,0.0,0.0,0.0,0.0,0.0,0.0,0.0,0.0,0.0,0.0,0.0,0.0,0.0,0.0,0.0,0.0,0.0,0.0,0.0,0.0,0.0,0.0,0.0,0.0,0.0,0.0,0.0,0.0,0.0,0.0,0.0,0.0,0.0,0.0,0.0,0.0,0.0,0.0,0.0,0.0,0.0,0.0,0.0,0.0,0.0,0.0,0.0,0.0,0.0,0.0,0.0,0.0,0.0,0.0,0.0,0.0,0.0,0.0,0.0,0.0,0.0,0.0,0.0,0.0,0.0,0.0,0.0,0.0,0.0,0.0,0.0,0.0,0.0,0.0,0.0,0.0,0.0,0.0,0.0,0.0,0.0,0.0,0.0,0.0,0.0,0.0,0.0,0.0,0.0,0.0,0.0,0.0,0.0,0.0,0.0,0.0,0.0,0.0,0.0,0.0,0.0,0.0,1.6218,1.6002,1.5961,1.6058,1.5752,1.5555,0.0,0.0,0.0,0.0,0.0,0.0,0.0,0.0,0.0,0.0,0.0,0.0,0.0,0.0,0.0,0.0,0.0,0.0,0.0,0.0,0.0,0.0,0.0,0.0,0.0,0.0,0.0,0.0,0.0,0.0,0.0,0.0,0.0,0.0,0.0,0.0,0.0,0.0,0.0,0.0,0.0,0.0,0.0,0.0,0.0,0.0,0.0,0.0,0.0,0.0,0.0,0.0,0.0,0.0,0.0,0.0,0.0,0.0,0.0,0.0,0.0,0.0,0.0,0.0,0.0,0.0,0.0,0.0,0.0,0.0,0.0,0.0,0.0,0.0,0.0,0.0,0.0,0.0,0.0,0.0,0.0,0.0,0.0,0.0,0.0,0.0,0.0,0.0,0.0,0.0,0.0,0.0,0.0,0.0,0.0,0.0,0.0,0.0,0.0,0.0,0.0,0.0,0.0,0.0,0.0,0.0,0.0,0.0,0.0,1.6481,0.0,1.6244,1.6249,1.597,1.5658,0.0,0.0,0.0,0.0,0.0,0.0,0.0,0.0,0.0,0.0,0.0,0.0,0.0,0.0,0.0,0.0,0.0,0.0,0.0,0.0,0.0,0.0,0.0,0.0,0.0,0.0,0.0,0.0,0.0,0.0,0.0,0.0,0.0,0.0,0.0,0.0,0.0,0.0,0.0,0.0,0.0,0.0,0.0,0.0,0.0,0.0,0.0,0.0,0.0,0.0,0.0,0.0,0.0,0.0,0.0,0.0,0.0,0.0,0.0,0.0,0.0,0.0,0.0,0.0,0.0,0.0,0.0,0.0,0.0,0.0,0.0,0.0,0.0,0.0,0.0,0.0,0.0,0.0,0.0,0.0,0.0,0.0,0.0,0.0,0.0,0.0,0.0,0.0,0.0,0.0,0.0,0.0,0.0,0.0,0.0,0.0,0.0,0.0,0.0,0.0,0.0,0.0,0.0,0.0,0.0,0.0,0.0,0.0,1.7784,1.7021,1.6814,1.6521,1.6036,1.5839,1.5594,0.0,0.0,0.0,0.0,0.0,0.0,0.0,0.0,0.0,0.0,0.0,0.0,0.0,0.0,0.0,0.0,0.0,0.0,0.0,0.0,0.0,0.0,0.0,0.0,0.0,0.0,0.0,0.0,0.0,0.0,0.0,0.0,0.0,0.0,0.0,0.0,0.0,0.0,0.0,0.0,0.0,0.0,0.0,0.0,0.0,0.0,0.0,0.0,0.0,0.0,0.0,0.0,0.0,0.0,0.0,0.0,0.0,0.0,0.0,0.0,0.0,0.0,0.0,0.0,0.0,0.0,0.0,0.0,0.0,0.0,0.0,0.0,0.0,0.0,0.0,0.0,0.0,0.0,0.0,0.0,0.0,0.0,0.0,0.0,0.0,0.0,0.0,0.0,0.0,0.0,0.0,0.0,0.0,0.0,0.0,0.0,0.0,0.0,0.0,0.0,0.0,0.0,0.0,0.0,0.0,0.0,0.0,0.0,0.0,1.7511,1.7555,1.7399,1.6977,1.642,1.6021,0.0,0.0,0.0,0.0,0.0,0.0,0.0,0.0,0.0,0.0,0.0,0.0,0.0,0.0,0.0,0.0,0.0,0.0,0.0,0.0,0.0,0.0,0.0,0.0,0.0,0.0,0.0,0.0,0.0,0.0,0.0,0.0,0.0,0.0,0.0,0.0,0.0,0.0,0.0,0.0,0.0,0.0,0.0,0.0,0.0,0.0,0.0,0.0,0.0,0.0,0.0,0.0,0.0,0.0,0.0,0.0,0.0,0.0,0.0,0.0,0.0,0.0,0.0,0.0,0.0,0.0,0.0,0.0,0.0,0.0,0.0,0.0,0.0,0.0,0.0,0.0,0.0,0.0,0.0,0.0,0.0,0.0,0.0,0.0,0.0,0.0,0.0,0.0,0.0,0.0,0.0,0.0,0.0,0.0,0.0,0.0,0.0,0.0,0.0,0.0,0.0,0.0,0.0,0.0,0.0,0.0,0.0,0.0,0.0,1.8303,1.8038,1.7726,1.7326,1.6786,1.6441,1.6262,0.0,0.0,0.0,0.0,0.0,0.0,0.0,0.0,0.0,0.0,0.0,0.0,0.0,0.0,0.0,0.0,0.0,0.0,0.0,0.0,0.0,0.0,0.0,0.0,0.0,0.0,0.0,0.0,0.0,0.0,0.0,0.0,0.0,0.0,0.0,0.0,0.0,0.0,0.0,0.0,0.0,0.0,0.0,0.0,0.0,0.0,0.0,0.0,0.0,0.0,0.0,0.0,0.0,0.0,0.0,0.0,0.0,0.0,0.0,0.0,0.0,0.0,0.0,0.0,0.0,0.0,0.0,0.0,0.0,0.0,0.0,0.0,0.0,0.0,0.0,0.0,0.0,0.0,0.0,0.0,0.0,0.0,0.0,0.0,0.0,0.0,0.0,0.0,0.0,0.0,0.0,0.0,0.0,0.0,0.0,0.0,0.0,0.0,0.0,0.0,0.0,0.0,0.0,0.0,0.0,0.0,0.0,0.0,1.94,1.8411,1.7751,1.738,1.706,1.6815,0.0,0.0,0.0,0.0,0.0,0.0,0.0,0.0,0.0,0.0,0.0,0.0,0.0,0.0,0.0,0.0,0.0,0.0,0.0,0.0,0.0,0.0,0.0,0.0,0.0,0.0,0.0,0.0,0.0,0.0,0.0,0.0,0.0,0.0,0.0,0.0,0.0,0.0,0.0,0.0,0.0,0.0,0.0,0.0,0.0,0.0,0.0,0.0,0.0,0.0,0.0,0.0,0.0,0.0,0.0,0.0,0.0,0.0,0.0,0.0,0.0,0.0,0.0,0.0,0.0,0.0,0.0,0.0,0.0,0.0,0.0,0.0,0.0,0.0,0.0,0.0,0.0,0.0,0.0,0.0,0.0,0.0,0.0,0.0,0.0,0.0,0.0,0.0,0.0,0.0,0.0,0.0,0.0,0.0,0.0,0.0,0.0,0.0,0.0,0.0,0.0,0.0,0.0,0.0,0.0,0.0,0.0,0.0,0.0,2.0301,1.9628,1.9174,1.8963,1.8179,1.7695,0.0,0.0,0.0,0.0,0.0,0.0,0.0,0.0,0.0,0.0,0.0,0.0,0.0,0.0,0.0,0.0,0.0,0.0,0.0,0.0,0.0,0.0,0.0,0.0,0.0,0.0,0.0,0.0,0.0,0.0,0.0,0.0,0.0,0.0,0.0,0.0,0.0,0.0,0.0,0.0,0.0,0.0,0.0,0.0,0.0,0.0,0.0,0.0,0.0,0.0,0.0,0.0,0.0,0.0,0.0,0.0,0.0,0.0,0.0,0.0,0.0,0.0,0.0,0.0,0.0,0.0,0.0,0.0,0.0,0.0,0.0,0.0,0.0,0.0,0.0,0.0,0.0,0.0,0.0,0.0,0.0,0.0,0.0,0.0,0.0,0.0,0.0,0.0,0.0,0.0,0.0,0.0,0.0,0.0,0.0,0.0,0.0,0.0,0.0,0.0,0.0,0.0,0.0,0.0,0.0,0.0,0.0,0.0,2.0406,2.1009,2.0802,2.0534,2.0238,1.9109,1.8414,0.0,0.0,0.0,0.0,0.0,0.0,0.0,0.0,0.0,0.0,0.0,0.0,0.0,0.0,0.0,0.0,0.0,0.0,0.0,0.0,0.0,0.0,0.0,0.0,0.0,0.0,0.0,0.0,0.0,0.0,0.0,0.0,0.0,0.0,0.0,0.0,0.0,0.0,0.0,0.0,0.0,0.0,0.0,0.0,0.0,0.0,0.0,0.0,0.0,0.0,0.0,0.0,0.0,0.0,0.0,0.0,0.0,0.0,0.0,0.0,0.0,0.0,0.0,0.0,0.0,0.0,0.0,0.0,0.0,0.0,0.0,0.0,0.0,0.0,0.0,0.0,0.0,0.0,0.0,0.0,0.0,0.0,0.0,0.0,0.0,0.0,0.0,0.0,0.0,0.0,0.0,0.0,0.0,0.0,0.0,0.0,0.0,0.0,0.0,0.0,0.0,0.0,0.0,0.0,0.0,0.0,0.0,0.0,2.1197,2.1541,2.1737,2.1609,2.1152,1.9896,1.9052,0.0,0.0,0.0,0.0,0.0,0.0,0.0,0.0,0.0,0.0,0.0,0.0,0.0,0.0,0.0,0.0,0.0,0.0,0.0,0.0,0.0,0.0,0.0,0.0,0.0,0.0,0.0,0.0,0.0,0.0,0.0,0.0,0.0,0.0,0.0,0.0,0.0,0.0,0.0,0.0,0.0,0.0,0.0,0.0,0.0,0.0,0.0,0.0,0.0,0.0,0.0,0.0,0.0,0.0,0.0,0.0,0.0,0.0,0.0,0.0,0.0,0.0,0.0,0.0,0.0,0.0,0.0,0.0,0.0,0.0,0.0,0.0,0.0,0.0,0.0,0.0,0.0,0.0,0.0,0.0,0.0,0.0,0.0,0.0,0.0,0.0,0.0,0.0,0.0,0.0,0.0,0.0,0.0,0.0,0.0,0.0,0.0,0.0,0.0,0.0,0.0,0.0,0.0,0.0,0.0,0.0,0.0,0.0,2.1526,2.1809,2.1677,2.1528,2.1424,2.0577,1.9723,0.0,0.0,0.0,0.0,0.0,0.0,0.0,0.0,0.0,0.0,0.0,0.0,0.0,0.0,0.0,0.0,0.0,0.0,0.0,0.0,0.0,0.0,0.0,0.0,0.0,0.0,0.0,0.0,0.0,0.0,0.0,0.0,0.0,0.0,0.0,0.0,0.0,0.0,0.0,0.0,0.0,0.0,0.0,0.0,0.0,0.0,0.0,0.0,1.2095,0.0,0.0,0.0,0.0,0.0,0.0,0.0,0.0,0.0,0.0,0.0,0.0,0.0,0.0,0.0,0.0,0.0,0.0,0.0,0.0,0.0,0.0,0.0,0.0,0.0,0.0,0.0,0.0,0.0,0.0,0.0,0.0,0.0,0.0,0.0,0.0,0.0,0.0,0.0,0.0,0.0,0.0,0.0,0.0,0.0,0.0,0.0,0.0,0.0,0.0,0.0,0.0,0.0,0.0,0.0,0.0,0.0,0.0,0.0,2.1661,2.215,2.1989,2.1785,2.1582,2.1085,2.0287,0.0,0.0,0.0,0.0,0.0,0.0,0.0,0.0,0.0,0.0,0.0,0.0,0.0,0.0,0.0,0.0,0.0,0.0,0.0,0.0,0.0,0.0,0.0,0.0,0.0,0.0,0.0,0.0,0.0,0.0,0.0,0.0,0.0,0.0,0.0,0.0,0.0,0.0,0.0,0.0,0.0,0.0,0.0,0.0,0.0,0.0,0.0,0.0,0.0,0.0,0.0,0.0,0.0,0.0,0.0,0.0,0.0,0.0,0.0,0.0,0.0,0.0,0.0,0.0,0.0,0.0,0.0,0.0,0.0,0.0,0.0,0.0,0.0,0.0,0.0,0.0,0.0,0.0,0.0,0.0,0.0,0.0,0.0,0.0,0.0,0.0,0.0,0.0,0.0,0.0,0.0,0.0,0.0,0.0,0.0,0.0,0.0,0.0,0.0,0.0,0.0,0.0,0.0,0.0,0.0,0.0,0.0,2.1251,2.1726,2.2434,2.2331,2.2102,2.177,2.1403,2.0663,1.95,0.0,0.0,0.0,0.0,0.0,0.0,0.0,0.0,0.0,0.0,0.0,0.0,0.0,0.0,0.0,0.0,0.0,0.0,0.0,0.0,0.0,0.0,0.0,0.0,0.0,0.0,0.0,0.0,0.0,0.0,0.0,0.0,0.0,0.0,0.0,0.0,0.0,0.0,1.1353,1.1381,0.0,0.0,0.0,0.0,0.0,0.0,0.0,0.0,1.2902,0.0,0.0,0.0,0.0,0.0,0.0,0.0,0.0,0.0,0.0,0.0,0.0,0.0,0.0,0.0,0.0,0.0,0.0,0.0,0.0,0.0,0.0,0.0,0.0,0.0,0.0,0.0,0.0,0.0,0.0,0.0,0.0,0.0,0.0,0.0,0.0,0.0,0.0,0.0,0.0,0.0,0.0,0.0,0.0,0.0,0.0,0.0,0.0,0.0,0.0,0.0,0.0,0.0,0.0,0.0,0.0,2.1229,2.1569,2.1926,2.232,2.2216,2.2109,2.201,2.1229,2.0596,2.0151,0.0,0.0,0.0,0.0,0.0,0.0,0.0,0.0,0.0,0.0,0.0,0.0,0.0,0.0,0.0,0.0,0.0,0.0,0.0,0.0,0.0,0.0,0.0,0.0,0.0,0.0,0.0,0.0,0.0,0.0,0.0,0.0,0.0,0.0,0.0,0.0,0.0,0.0,0.0,1.1532,1.1637,0.0,0.0,0.0,0.0,0.0,0.0,0.0,0.0,1.3007,0.0,0.0,0.0,0.0,0.0,0.0,0.0,0.0,0.0,0.0,0.0,0.0,0.0,0.0,0.0,0.0,0.0,0.0,0.0,0.0,0.0,0.0,0.0,0.0,0.0,0.0,0.0,0.0,0.0,0.0,0.0,0.0,0.0,0.0,0.0,0.0,0.0,0.0,0.0,0.0,0.0,0.0,0.0,0.0,0.0,0.0,0.0,0.0,0.0,0.0,0.0,0.0,0.0,0.0,0.0,2.1261,2.1988,2.2381,2.2367,2.2314,2.2226,2.207,2.1086,2.0488,0.0,0.0,0.0,0.0,0.0,0.0,0.0,0.0,0.0,0.0,0.0,0.0,0.0,0.0,0.0,0.0,0.0,0.0,0.0,0.0,0.0,0.0,0.0,0.0,0.0,0.0,0.0,0.0,0.0,0.0,0.0,0.0,0.0,0.0,0.0,0.0,0.0,0.0,0.0,0.0,1.1792,1.1838,1.2042,0.0,0.0,0.0,0.0,0.0,0.0,1.3634,1.3652,0.0,0.0,0.0,0.0,0.0,0.0,0.0,0.0,0.0,0.0,0.0,0.0,0.0,0.0,0.0,0.0,0.0,0.0,0.0,0.0,0.0,0.0,0.0,0.0,0.0,0.0,0.0,0.0,0.0,0.0,0.0,0.0,0.0,0.0,0.0,0.0,0.0,0.0,0.0,0.0,0.0,0.0,0.0,0.0,0.0,0.0,0.0,0.0,0.0,0.0,0.0,0.0,0.0,0.0,0.0,2.1274,2.2194,2.2579,2.24,2.2465,2.2347,2.2046,2.1015,2.0437,0.0,0.0,0.0,0.0,0.0,0.0,0.0,0.0,0.0,0.0,0.0,0.0,0.0,0.0,0.0,0.0,0.0,0.0,0.0,0.0,0.0,0.0,0.0,0.0,0.0,0.0,0.0,0.0,0.0,0.0,0.0,0.0,0.0,0.0,0.0,0.0,0.0,0.0,0.0,0.0,0.0,1.2179,1.2617,1.2757,0.0,0.0,0.0,0.0,1.4346,1.4256,0.0,0.0,0.0,0.0,0.0,0.0,0.0,0.0,0.0,0.0,0.0,0.0,0.0,0.0,0.0,0.0,0.0,0.0,0.0,0.0,0.0,0.0,0.0,0.0,0.0,0.0,0.0,0.0,0.0,0.0,0.0,0.0,0.0,0.0,0.0,0.0,0.0,0.0,0.0,0.0,0.0,0.0,0.0,0.0,0.0,0.0,0.0,0.0,0.0,0.0,0.0,0.0,0.0,0.0,0.0,0.0,2.1455,2.1687,2.2023,2.2381,2.2453,2.2271,2.1829,2.1133,2.0642,0.0,0.0,0.0,0.0,0.0,0.0,0.0,0.0,0.0,0.0,0.0,0.0,0.0,0.0,0.0,0.0,0.0,0.0,0.0,0.0,0.0,0.0,0.0,0.0,0.0,0.0,0.0,0.0,0.0,0.0,0.0,0.0,0.0,0.0,0.0,0.0,0.0,0.0,0.0,0.0,0.0,1.2739,1.293,1.2957,1.3004,0.0,0.0,1.3633,1.3699,1.4032,0.0,0.0,0.0,0.0,0.0,0.0,0.0,0.0,0.0,0.0,0.0,0.0,0.0,0.0,0.0,0.0,0.0,0.0,0.0,0.0,0.0,0.0,0.0,0.0,0.0,0.0,0.0,0.0,0.0,0.0,0.0,0.0,0.0,0.0,0.0,0.0,0.0,0.0,0.0,0.0,0.0,0.0,0.0,0.0,0.0,0.0,0.0,0.0,0.0,0.0,0.0,0.0,0.0,0.0,0.0,2.1047,2.1546,2.2173,2.2551,2.2634,2.2691,2.2508,2.2009,2.123,2.0654,0.0,0.0,0.0,0.0,0.0,0.0,0.0,0.0,0.0,0.0,0.0,0.0,0.0,0.0,0.0,0.0,0.0,0.0,0.0,0.0,0.0,0.0,0.0,0.0,0.0,0.0,0.0,0.0,0.0,0.0,0.0,0.0,0.0,0.0,0.0,0.0,0.0,0.0,0.0,0.0,0.0,0.0,1.2967,1.3097,0.0,0.0,0.0,1.3944,1.4136,0.0,0.0,0.0,0.0,0.0,0.0,0.0,0.0,0.0,0.0,0.0,0.0,0.0,0.0,0.0,0.0,0.0,0.0,0.0,0.0,0.0,0.0,0.0,0.0,0.0,0.0,0.0,0.0,0.0,0.0,0.0,0.0,0.0,0.0,0.0,0.0,0.0,0.0,0.0,0.0,0.0,0.0,0.0,0.0,0.0,0.0,0.0,0.0,0.0,0.0,0.0,0.0,0.0,0.0,0.0,0.0,0.0,2.1613,2.2384,2.2755,2.2735,2.2745,2.2608,2.2197,2.1351,0.0,0.0,0.0,0.0,0.0,0.0,0.0,0.0,0.0,0.0,0.0,0.0,0.0,0.0,0.0,0.0,0.0,0.0,0.0,0.0,0.0,0.0,0.0,0.0,0.0,0.0,0.0,1.5073,0.0,0.0,0.0,0.0,0.0,0.0,0.0,0.0,0.0,0.0,0.0,0.0,0.0,0.0,1.3011,1.3137,1.3312,1.3501,0.0,0.0,1.428,1.4574,1.442,1.4294,0.0,0.0,0.0,0.0,0.0,0.0,0.0,0.0,0.0,0.0,0.0,0.0,0.0,0.0,0.0,0.0,0.0,0.0,0.0,0.0,0.0,0.0,0.0,0.0,0.0,0.0,0.0,0.0,0.0,0.0,0.0,0.0,0.0,0.0,0.0,0.0,0.0,0.0,0.0,0.0,0.0,0.0,0.0,0.0,0.0,0.0,0.0,0.0,0.0,0.0,0.0,0.0,0.0,0.0,0.0,2.1678,2.181,2.2112,2.2479,2.2457,2.2367,2.2204,2.1457,2.0899,0.0,0.0,0.0,0.0,0.0,0.0,0.0,0.0,0.0,0.0,0.0,0.0,0.0,0.0,0.0,0.0,0.0,0.0,0.0,0.0,0.0,0.0,0.0,0.0,0.0,0.0,0.0,0.0,0.0,0.0,0.0,0.0,0.0,0.0,0.0,0.0,0.0,0.0,0.0,0.0,0.0,1.3393,1.3548,1.369,1.3836,0.0,0.0,1.4457,1.4656,1.4619,1.4522,1.4361,0.0,0.0,0.0,0.0,0.0,0.0,0.0,0.0,0.0,0.0,0.0,0.0,0.0,0.0,0.0,0.0,0.0,0.0,0.0,0.0,0.0,0.0,0.0,0.0,0.0,0.0,0.0,0.0,0.0,0.0,0.0,0.0,0.0,0.0,0.0,0.0,0.0,0.0,0.0,0.0,0.0,0.0,0.0,0.0,0.0,0.0,0.0,0.0,0.0,0.0,0.0,0.0,0.0,2.1494,2.1704,2.2043,2.2291,2.2435,2.2391,2.2252,2.1964,2.156,2.107,0.0,0.0,0.0,0.0,0.0,0.0,0.0,0.0,0.0,0.0,0.0,0.0,0.0,0.0,0.0,0.0,0.0,0.0,0.0,0.0,0.0,0.0,0.0,0.0,0.0,0.0,0.0,0.0,1.5701,1.5586,1.5046,0.0,0.0,0.0,0.0,0.0,0.0,0.0,0.0,0.0,0.0,1.3582,1.3709,1.3752,0.0,0.0,1.3974,1.4091,1.4301,1.4432,1.4492,1.4543,1.4539,0.0,0.0,0.0,0.0,0.0,0.0,0.0,0.0,0.0,0.0,0.0,0.0,0.0,0.0,0.0,0.0,0.0,0.0,0.0,0.0,0.0,0.0,0.0,0.0,0.0,0.0,0.0,0.0,0.0,0.0,0.0,0.0,0.0,0.0,0.0,0.0,0.0,0.0,0.0,0.0,0.0,0.0,0.0,0.0,0.0,0.0,0.0,0.0,0.0,0.0,0.0,0.0,2.1641,2.1729,2.2245,2.2498,2.2478,2.2389,2.2258,2.2064,2.1705,2.1229,0.0,0.0,0.0,0.0,0.0,0.0,0.0,0.0,0.0,0.0,0.0,0.0,0.0,0.0,0.0,0.0,0.0,0.0,0.0,0.0,0.0,0.0,0.0,0.0,0.0,0.0,0.0,0.0,1.5737,1.5525,1.5217,0.0,0.0,0.0,0.0,0.0,0.0,0.0,0.0,0.0,0.0,1.3719,1.383,1.3861,1.3916,1.3963,1.3963,1.4057,1.4257,1.4345,1.4426,1.4564,0.0,0.0,0.0,0.0,0.0,0.0,0.0,0.0,0.0,0.0,0.0,0.0,0.0,0.0,0.0,0.0,0.0,0.0,0.0,0.0,0.0,0.0,0.0,0.0,0.0,0.0,0.0,0.0,0.0,0.0,2.4282,0.0,0.0,0.0,0.0,0.0,0.0,0.0,0.0,0.0,0.0,0.0,0.0,0.0,0.0,0.0,0.0,0.0,0.0,0.0,0.0,0.0,0.0,2.1549,2.1795,2.22,2.2497,2.2684,2.2433,2.2414,2.2624,2.1838,2.1313,2.1071,0.0,0.0,0.0,0.0,0.0,0.0,0.0,0.0,0.0,0.0,0.0,0.0,0.0,0.0,0.0,0.0,0.0,0.0,0.0,0.0,0.0,0.0,0.0,0.0,0.0,0.0,1.5831,1.5618,1.56,0.0,0.0,0.0,0.0,0.0,0.0,0.0,0.0,0.0,0.0,1.3983,1.3892,1.3906,1.4027,1.4139,1.4336,1.4378,1.4441,1.4629,1.4475,1.4319,0.0,0.0,0.0,0.0,0.0,0.0,0.0,0.0,0.0,0.0,0.0,0.0,0.0,0.0,0.0,0.0,0.0,0.0,0.0,0.0,0.0,0.0,0.0,0.0,0.0,0.0,0.0,2.5073,2.506,0.0,0.0,0.0,0.0,0.0,0.0,0.0,0.0,0.0,0.0,0.0,2.4963,2.4528,0.0,0.0,0.0,0.0,0.0,0.0,0.0,0.0,0.0,0.0,0.0,0.0,2.2212,2.2394,2.2533,2.257,2.2558,2.2483,2.2483,2.2535,2.1947,2.1251,2.0525,0.0,0.0,0.0,0.0,0.0,0.0,0.0,0.0,0.0,0.0,0.0,0.0,0.0,0.0,0.0,0.0,0.0,0.0,0.0,0.0,0.0,0.0,0.0,0.0,0.0,1.6758,0.0,0.0,0.0,0.0,0.0,0.0,0.0,0.0,0.0,0.0,0.0,1.4108,1.4209,1.4041,1.4015,1.4281,1.4167,1.4213,0.0,0.0,0.0,0.0,0.0,0.0,0.0,0.0,0.0,0.0,0.0,0.0,0.0,0.0,1.5297,1.4451,1.4525,1.4699,1.4719,0.0,0.0,0.0,0.0,0.0,0.0,0.0,0.0,0.0,0.0,0.0,0.0,0.0,0.0,2.6052,0.0,2.5948,0.0,0.0,0.0,0.0,0.0,0.0,0.0,0.0,2.5701,2.5698,2.5716,2.5111,2.4873,0.0,2.4681,2.3914,0.0,0.0,0.0,0.0,0.0,0.0,0.0,0.0,2.2614,2.2508,2.2823,2.2887,2.2715,2.2637,2.2548,2.2572,2.1998,2.1389,2.0729,2.0557,2.0159,0.0,0.0,0.0,0.0,0.0,0.0,0.0,0.0,0.0,0.0,0.0,0.0,0.0,0.0,0.0,0.0,0.0,0.0,0.0,0.0,0.0,0.0,0.0,1.6917,0.0,0.0,0.0,0.0,0.0,0.0,0.0,0.0,0.0,1.4968,1.466,1.4536,1.4629,1.4446,1.4349,1.4506,0.0,0.0,0.0,0.0,0.0,0.0,0.0,1.4671,1.4671,1.4976,1.5228,1.5089,1.5075,1.5075,1.5075,0.0,0.0,1.4976,1.5067,1.5231,1.521,1.5295,1.5371,1.5503,1.5705,1.5924,0.0,0.0,0.0,0.0,0.0,0.0,0.0,0.0,2.7842,2.7709,0.0,2.7374,0.0,0.0,0.0,0.0,0.0,2.6631,0.0,0.0,2.676,2.664,2.6369,2.5486,2.5062,2.4998,2.4655,2.4375,2.4121,2.3867,0.0,0.0,0.0,0.0,0.0,0.0,2.2788,2.2218,2.3036,2.3335,2.3105,2.2861,2.2697,2.2644,2.2064,2.1719,2.1654,2.0934,2.0534,2.0488,2.01,0.0,0.0,0.0,0.0,0.0,0.0,0.0,0.0,0.0,0.0,0.0,0.0,0.0,0.0,0.0,0.0,0.0,0.0,0.0,0.0,1.7121,0.0,0.0,0.0,0.0,0.0,0.0,0.0,0.0,0.0,0.0,1.545,1.5007,1.4886,1.5226,0.0,0.0,0.0,0.0,1.453,1.4297,1.4239,1.4229,1.4252,1.4275,1.4252,1.4275,0.0,0.0,1.4986,1.5037,1.5097,1.5086,1.5351,1.5606,1.6034,1.6121,1.6143,1.6157,1.598,1.5955,1.6208,1.6275,1.6368,3.0213,0.0,0.0,0.0,0.0,2.9325,2.9203,2.8992,2.8862,2.8675,2.8487,2.8474,0.0,0.0,0.0,0.0,0.0,0.0,2.7411,2.7016,2.7322,2.7372,2.7098,2.6524,2.6174,2.5942,2.5662,2.5404,2.5149,2.4893,2.4199,2.3129,0.0,0.0,0.0,0.0,2.3182,2.3086,2.3172,2.3164,2.3054,2.2955,2.274,2.2429,2.2409,2.21,2.1432,2.1379,2.1166,2.0727,2.0189,0.0,0.0,0.0,0.0,0.0,0.0,0.0,0.0,0.0,0.0,0.0,0.0,0.0,0.0,0.0,0.0,0.0,0.0,0.0,1.8154,1.7968,1.7873,0.0,0.0,0.0,0.0,0.0,0.0,0.0,0.0,0.0,1.6508,1.5872,1.5381,0.0,0.0,1.5038,1.5144,1.5007,1.4944,1.5095,1.4961,0.0,1.4851,1.4986,1.5133,1.5133,1.5343,1.5618,1.5884,1.5935,1.5986,1.6176,1.6429,1.6661,1.6743,1.6509,1.6289,1.6276,1.6355,1.6446,1.6562,1.6574,1.6664,3.1792,3.1269,3.0811,3.0609,3.0482,3.0425,3.0241,2.9949,2.9846,2.968,2.9496,2.9368,2.9201,2.9014,2.8632,0.0,0.0,0.0,2.8083,2.7723,2.7893,2.8008,2.7995,2.7442,2.7046,2.6864,2.6662,2.6332,2.5907,2.5711,2.5098,2.4013,0.0,0.0,2.3148,2.3326,2.34,2.34,2.3316,2.3309,2.3442,2.3175,2.2839,2.2433,2.2498,2.2289,2.1701,2.1657,2.1498,2.1167,2.0664,2.0271,0.0,0.0,0.0,0.0,0.0,0.0,0.0,0.0,0.0,0.0,0.0,1.7645,1.8037,0.0,0.0,0.0,1.8419,1.8555,1.8692,1.84,0.0,0.0,0.0,0.0,0.0,0.0,0.0,1.7469,1.723,1.7108,1.7183,1.6756,1.6274,1.5906,1.5663,1.5547,1.5607,0.0,1.5233,1.5317,1.5202,1.5137,1.522,1.5386,1.5575,1.5796,1.5951,1.6154,1.6389,1.6452,1.6551,1.6812,1.6984,1.7148,1.7247,1.7073,1.6882,1.6821,1.7,1.7163,1.7176,1.7252,1.7378,3.3176,3.3044,3.2043,3.1446,3.124,3.1195,3.1013,3.0764,3.0787,3.0627,3.0399,3.0148,2.9918,2.9641,2.9177,0.0,2.8541,2.8628,2.8705,2.8752,2.849,2.8568,2.8887,2.811,2.7733,2.7652,2.7463,2.7031,2.6363,2.6363,2.5876,2.5027,2.4603,2.3946,2.3085,2.339,2.3509,2.3362,2.3493,2.3713,2.4018,2.341,2.292,2.2603,2.2401,2.2299,2.2296,2.189,2.1654,2.1693,2.131,2.0752,1.999,0.0,0.0,0.0,0.0,0.0,0.0,0.0,0.0,0.0,0.0,0.0,0.0,0.0,0.0,0.0,1.8769,0.0,1.905,1.8595,0.0,0.0,0.0,1.8127,1.8219,1.7974,1.7848,1.7971,0.0,0.0,1.7608,1.7571,1.736,1.6887,1.6556,1.6265,1.6011,1.577,1.5502,1.5345,1.5258,1.533,1.5608,1.5658,1.5827,1.629,1.6344,1.6468,1.6746,1.6819,1.6887,1.717,1.7189,1.7249,1.7503,1.7708,1.7827,1.7537,1.7717,1.7896,1.7909,1.8043,1.8206,3.3558,3.3519,3.2916,3.2496,3.2218,3.2024,3.1802,3.153,3.1555,3.1231,3.0678,3.0409,3.0015,2.9522,2.9419,2.9182,2.889,2.926,2.91,2.853,2.8797,2.8718,2.8388,2.8192,2.7809,2.733,2.7274,2.705,2.6706,2.6678,2.6425,2.5894,2.5469,2.4896,2.4174,2.4202,2.4136,2.3887,2.394,2.379,2.34,2.3035,2.2773,2.2671,2.2325,2.2186,2.2282,2.2205,2.1977,2.1631,2.1239,2.0801,2.0296,2.012,0.0,0.0,0.0,0.0,0.0,0.0,0.0,0.0,0.0,1.8795,1.9179,0.0,1.8759,0.0,1.9253,1.9293,1.9574,1.9175,0.0,0.0,1.8956,1.884,1.8605,1.8571,1.8548,1.8573,1.8351,1.8276,1.8537,1.8184,1.7831,1.7697,1.7245,1.6796,1.6542,1.6459,1.6402,1.6323,1.6296,1.6344,1.6404,1.6416,1.6525,1.6839,1.6928,1.7085,1.7544,1.7629,1.7684,1.7937,1.801,1.7943,1.776,1.7912,1.7925,1.7676,1.7924,1.8221,1.8191,1.824,1.8368,3.3848,3.3799,3.3381,3.3125,3.2954,3.2379,3.1954,3.1608,3.156,3.1379,3.1014,3.0569,3.0148,2.9725,2.9572,2.934,2.9077,2.9313,2.9239,2.8871,2.8935,2.8946,2.8828,2.868,2.8384,2.8057,2.8027,2.7819,2.7393,2.7069,2.6661,2.6134,2.5594,2.5143,2.4713,2.4302,2.4069,2.3975,2.3985,2.3742,2.3251,2.3051,2.2811,2.2537,2.2304,2.2139,2.2028,2.19,2.175,2.1562,2.1298,2.1049,2.0737,2.0709,2.0557,0.0,0.0,0.0,0.0,0.0,0.0,0.0,0.0,0.0,0.0,0.0,1.9491,1.9863,1.9614,1.9592,2.0049,1.9664,1.9418,1.9568,1.9368,1.9182,1.8972,1.899,1.9027,1.903,1.8752,1.8703,1.9025,1.8651,1.8359,1.8329,1.8013,1.7565,1.6978,1.6765,1.6742,1.6851,1.6875,1.6972,1.7177,1.7322,1.7455,1.7587,1.7624,1.7732,1.801,1.8045,1.8077,1.8328,1.8368,1.8328,1.8262,1.8325,1.8344,1.8256,1.8325,1.8453,1.8368,1.8438,1.8568,3.4038,3.3927,3.3555,3.3315,3.3193,3.239,3.1837,3.147,3.1414,3.1346,3.1222,3.0641,3.027,3.0049,2.972,2.9429,2.925,2.9193,2.9218,2.9331,2.9062,2.9125,2.9466,2.9204,2.8985,2.8922,2.8891,2.8577,2.7968,2.7381,2.6783,2.6114,2.5459,2.5113,2.5076,2.4205,2.3786,2.3865,2.3933,2.375,2.3316,2.3267,2.2981,2.2415,2.2333,2.2135,2.1782,2.1485,2.1371,2.1445,2.1395,2.1254,2.1059,2.1258,2.1235,0.0,2.0634,0.0,0.0,0.0,0.0,0.0,0.0,0.0,0.0,2.0169,2.0434,2.0338,1.9892,1.9819,2.0408,2.0003,1.9812,2.0102,1.9763,1.9459,1.9417,1.9428,1.9392,1.9364,1.9045,1.8955,1.9205,1.8975,1.8764,1.8684,1.8575,1.8212,1.7461,1.7102,1.7068,1.7225,1.7249,1.7472,1.7847,1.8131,1.8312,1.831,1.8327,1.8364,1.8373,1.827,1.8247,1.8468,1.8503,1.8536,1.8731,1.8755,1.88,1.8767,1.8767,1.8744,1.8559,1.8649,1.8856,3.4161,3.3853,3.3093,3.2462,3.1958,3.1777,3.1959,3.2345,3.2078,3.1613,3.1044,3.0519,3.0334,3.0376,3.0068,2.9927,2.991,2.9617,2.9384,2.9145,2.9083,2.9017,2.8846,2.8801,2.8501,2.798,2.7948,2.7725,2.7295,2.7166,2.702,2.6874,2.6168,2.5825,2.5745,0.0,0.0,0.0,2.4305,2.4015,2.3487,2.3122,2.2911,2.2781,2.2505,0.0,2.2178,2.2121,2.185,2.1296,2.1246,0.0,0.0,0.0,0.0,0.0,0.0,0.0,0.0,0.0,0.0,0.0,2.0852,2.0657,2.0524,2.0689,2.0711,2.0485,2.024,2.0111,2.0217,1.9956,1.9794,1.9864,2.0215,2.035,2.0072,2.0023,1.9927,1.9657,1.9335,1.9175,1.9208,1.8922,1.8759,1.8754,1.8533,1.8307,1.8125,1.7992,1.8028,1.8058,1.8058,1.8106,1.8191,1.8438,1.8577,1.8498,1.867,1.875,1.8684,1.8657,1.8648,1.8761,1.8729,1.8698,1.8664,1.8751,1.887,1.8788,1.8938,1.8992,1.8767,1.8902,1.9084,3.3901,0.0,3.3276,3.288,0.0,3.2403,3.2447,3.2549,3.1903,3.1302,3.077,3.0351,3.0146,3.0039,2.9702,2.9583,2.9578,2.9422,2.9279,2.914,2.914,2.9104,2.8976,2.8832,2.8575,2.8235,2.8074,2.7895,2.7669,2.7343,2.7148,2.7148,2.623,2.5784,2.5768,2.4964,2.4364,2.402,2.4004,2.3779,2.3344,2.2925,2.2674,2.2485,2.2155,0.0,0.0,0.0,0.0,0.0,0.0,0.0,0.0,0.0,0.0,2.1241,2.1113,2.1126,2.1277,2.1049,2.1034,2.131,2.1264,2.1164,2.0904,2.0704,2.0608,2.0773,2.0436,2.033,2.063,2.0425,2.0232,2.0246,2.0242,2.012,1.998,1.9946,1.9902,1.9756,1.9662,1.9594,1.9594,1.9414,1.9316,1.9296,1.92,1.8996,1.8788,1.8488,1.8372,1.8638,1.8768,1.8784,1.8784,1.875,1.875,1.8673,1.8756,1.8816,1.8809,1.8835,1.8856,1.8844,1.8885,1.8933,1.8867,1.8916,1.8964,1.8975,1.9032,1.9062,1.8977,1.9012,1.9122,3.3685,3.3619,3.3477,3.3373,3.3306,3.2974,3.2655,3.2329,0.0,0.0,0.0,3.0262,2.9981,2.9713,2.9367,2.9263,2.9334,2.927,2.929,2.9431,2.9399,2.9409,2.9405,2.9125,2.8926,2.8793,2.8527,2.8361,2.8278,2.7619,2.726,2.7098,2.6159,2.5634,2.5477,2.4976,2.4392,2.3792,2.3665,2.3422,2.3123,2.2819,2.2574,2.227,2.2024,2.1689,2.1292,2.1276,2.1215,2.1109,2.1302,2.1414,2.1414,2.1628,2.174,2.1713,2.155,2.1428,2.149,2.1258,2.1201,2.1433,2.1481,2.1422,2.1209,2.0683,2.0597,2.1061,2.0627,2.0487,2.0988,2.0796,2.0581,2.052,2.0126,1.9866,1.9848,1.9844,1.9846,1.984,1.9891,1.9948,1.9826,1.9766,1.9747,1.9702,1.9564,1.9614,1.924,1.8726,1.8542,1.8911,1.9015,1.9176,1.9155,1.9069,1.8924,1.8823,1.8891,1.8936,1.8891,1.8919,1.8942,1.8939,1.904,1.909,1.915,1.9187,1.9193,1.9226,1.9236,1.9236,1.9236,1.9236,1.9252,3.4018,3.373,3.3021,3.2521,3.222,3.1902,3.17,3.163,3.1142,3.0763,3.0427,3.0362,3.033,3.0266,2.9892,2.9872,3.0186,2.9906,2.9947,3.0223,3.0223,3.0088,2.9817,2.9749,2.9408,2.8827,2.8742,2.8537,2.8212,2.7836,2.7507,2.7126,2.6429,2.5736,2.5201,2.5077,2.4857,2.4466,2.3886,2.3428,2.3109,2.3048,2.3002,2.2956,2.2866,2.2591,2.1966,2.195,2.1689,2.1139,2.1093,2.1077,2.1077,2.1093,2.1127,2.1142,2.1071,2.1203,2.1466,2.1235,2.1145,2.1224,2.1262,2.1313,2.1496,2.123,2.1089,2.1174,2.0815,2.0556,2.0392,2.0341,2.0221,1.9967,2.0182,2.04,2.0355,2.0291,2.0211,2.0211,2.0071,1.9754,1.9487,1.9423,1.9348,1.9056,1.9149,1.8979,1.8957,1.8796,1.876,1.8818,1.8842,1.8866,1.8946,1.9198,1.9196,1.8952,1.924,1.9368,1.9082,1.9072,1.9087,1.9072,1.9133,1.9204,1.9402,1.9445,1.9521,1.9687,1.973,1.9741,1.973,1.9741,1.9698,3.3872,3.3469,3.2881,3.2548,3.2376,3.1979,3.1719,3.1525,3.1112,3.0849,3.0735,3.0751,3.06,3.0383,3.0216,3.0236,3.0374,3.0257,3.0275,3.0395,3.0191,3.0037,2.9866,2.9489,2.9146,2.8802,2.856,2.8302,2.7922,2.7764,2.7512,2.712,2.6436,2.5745,2.5078,2.4676,2.4335,2.4024,2.388,2.358,2.3114,2.2738,2.2471,2.2297,2.2137,2.1934,2.1642,2.1627,2.1453,2.1161,2.1119,2.1104,2.1118,2.113,2.1114,2.1114,2.1114,2.1185,2.1327,2.1348,2.1322,2.1158,2.1139,2.1187,2.1276,2.1069,2.0901,2.0883,2.0725,2.0557,2.037,2.0483,2.0522,2.0361,2.0439,2.0446,2.0393,2.0017,1.9802,1.9781,1.9632,1.9444,1.9275,1.9391,1.9438,1.9244,1.914,1.9057,1.9069,1.8995,1.8974,1.9016,1.9061,1.9057,1.908,1.9149,1.9192,1.9036,1.921,1.9279,1.9129,1.9193,1.9327,1.9312,1.9435,1.9564,1.972,1.972,1.9784,1.9827,1.9881,1.9881,1.9881,1.9881,1.9838,3.3697,3.3375,3.3003,3.2703,3.2509,3.2158,3.1843,3.16,3.127,3.115,3.1132,3.0941,3.0684,3.0429,3.0395,3.0446,3.0515,3.0532,3.0532,3.0514,3.0256,3.0084,2.9842,2.9288,2.901,2.8906,2.8506,2.8192,2.7963,2.7753,2.7391,2.6814,2.625,2.5602,2.4964,2.4445,2.4006,2.3719,2.3895,2.3683,2.311,2.2567,2.2202,2.1933,2.174,2.1572,2.1502,2.1432,2.1332,2.1171,2.111,2.1047,2.1055,2.1033,2.107,2.1139,2.1139,2.1139,2.1153,2.1327,2.1325,2.1088,2.1049,2.1018,2.0968,2.084,2.0708,2.0697,2.068,2.0631,2.0499,2.0649,2.0734,2.0568,2.0364,2.0166,2.0099,1.9666,1.9364,1.9353,1.9358,1.9347,1.9289,1.9448,1.956,1.9464,1.9362,1.9258,1.9219,1.9156,1.9126,1.916,1.9204,1.9225,1.9255,1.925,1.9198,1.9193,1.9284,1.9338,1.937,1.9478,1.9564,1.9596,1.9741,1.9838,1.9871,1.9871,1.9871,1.9881,1.9881,1.9881,1.9881,1.9881,1.9881,3.3782,3.371,3.3367,3.2796,3.2163,3.1837,3.1665,3.1631,3.156,3.1543,3.151,3.0772,3.048,3.0395,3.0429,3.0617,3.0908,3.0925,3.0922,3.0913,3.0892,3.0539,2.9938,2.9812,2.9615,2.9242,2.8817,2.8571,2.8479,2.7884,2.7044,2.6085,2.5626,2.5257,2.4841,2.475,2.4561,2.4295,2.4025,2.363,2.3042,2.2958,2.2897,2.2869,2.2795,2.2688,2.2253,2.2142,2.1707,2.1149,2.0827,2.0637,2.0592,2.0567,2.0695,2.0926,2.0952,2.0945,2.0919,2.0938,2.0978,2.0917,2.0938,2.091,2.0895,2.0884,2.0866,2.0839,2.0864,2.0724,2.0431,2.0447,2.023,1.9719,1.9705,1.9664,1.9449,1.9473,1.9577,1.9577,1.9654,1.9719,1.9364,1.9459,1.9506,1.9257,1.9213,1.9195,1.9195,1.9213,1.9172,1.9152,1.9148,1.9148,1.918,1.9316,1.9445,1.9478,1.9676,1.9741,1.9752,1.9774,1.9849,1.9795,1.9838,1.9881,1.9881,1.9881,1.9881,1.9881,1.9881,1.9881,1.9881,1.9881,1.9881,3.3695,3.3494,3.3085,3.275,3.2486,3.2278,3.2263,3.2263,3.2263,3.2263,3.2229,3.1885,3.1525,3.1097,3.1097,3.12,3.1337,3.1337,3.1246,3.101,3.0762,3.037,2.989,2.9656,2.9441,2.9298,2.8887,2.8599,2.8202,2.7369,2.6656,2.617,2.5619,2.5177,2.4806,2.4618,2.4255,2.3722,2.3532,2.3253,2.2812,2.2512,2.2151,2.1806,2.1747,2.1707,2.1542,2.1443,2.1272,2.1006,2.0864,2.0786,2.074,2.0737,2.0773,2.0887,2.09,2.09,2.09,2.09,2.08,2.0634,2.0601,2.0597,2.0536,2.0346,2.0272,2.0427,2.0669,2.0616,2.0122,2.0107,1.9998,1.9587,1.9577,1.9623,1.9644,1.949,1.9461,1.9607,1.9515,1.9365,1.9232,1.9271,1.9289,1.914,1.9215,1.9322,1.9359,1.9467,1.9553,1.9564,1.9564,1.9499,1.9413,1.9553,1.9709,1.9752,1.9817,1.9881,1.9881,1.9881,1.9881,1.9881,1.9881,1.9881,1.9881,1.9881,1.9881,1.9881,1.9881,1.9881,1.9881,1.9881,1.9881,3.3811,3.3412,3.3035,3.2844,3.2863,3.276,3.2672,3.2672,3.2672,3.2672,3.2672,3.2672,3.2417,3.1955,3.1903,3.1903,3.1903,3.1903,3.1618,3.1153,3.083,3.0451,3.0002,2.9713,2.9584,2.9511,2.9039,2.8529,2.8002,2.7122,2.6577,2.6316,2.5738,2.5112,2.4616,2.4305,2.3847,2.3207,2.3135,2.2916,2.2464,2.2084,2.1693,2.1289,2.1166,2.1162,2.1128,2.1052,2.0981,2.0868,2.0818,2.0772,2.0747,2.0714,2.0718,2.068,2.0692,2.0625,2.0545,2.0558,2.0457,2.0221,2.0187,2.0171,2.0066,1.9828,1.9773,2.0017,2.0363,2.0266,1.9829,1.9889,1.9889,1.9585,1.956,1.9661,1.9641,1.9388,1.931,1.9486,1.926,1.9027,1.8959,1.8954,1.8975,1.9133,1.9277,1.9521,1.9607,1.9763,1.986,1.9881,1.9881,1.9806,1.9639,1.9741,1.9871,1.9881,1.9881,1.9881,1.9881,1.9881,1.9881,1.9881,1.9881,1.9881,1.9881,1.9881,1.9952,1.9941,1.9935,1.9989,2.0022,2.0032,2.0086,3.4128,3.373,3.3409,3.3292,3.3257,3.2878,3.2707,3.2758,3.2724,3.2707,3.2741,3.2724,3.2672,3.2638,3.2638,3.2638,3.2604,3.257,3.2168,3.1473,3.1416,3.1007,3.032,3.0283,3.0214,3.0076,2.9372,2.8619,2.7899,2.7447,2.6904,2.6285,2.5847,2.5114,2.428,2.4103,2.3678,2.3081,2.3019,2.2723,2.2136,2.2013,2.2028,2.2046,2.1861,2.17,2.1674,2.1446,2.1137,2.0832,2.0588,2.0416,2.0367,2.0335,2.0261,2.0154,2.0132,1.9982,1.975,1.9739,1.9715,1.9669,1.9727,1.9692,1.9761,1.9668,1.9702,1.9884,1.9919,1.9816,1.9656,1.9781,1.9729,1.9395,1.9501,1.9467,1.9195,1.9133,1.9097,1.9099,1.9012,1.8835,1.8675,1.8623,1.8799,1.9053,1.917,1.9321,1.9688,1.9833,1.9844,1.9881,1.9881,1.9871,1.9871,1.986,1.9871,1.9881,1.9881,1.9881,1.9881,1.9881,1.9881,1.9903,1.9925,1.9925,1.9892,1.9952,1.9995,2.0022,2.0162,2.0177,2.0188,2.0432,2.0464,3.4162,3.3799,3.3645,3.3631,3.3576,3.3477,3.3426,3.3426,3.3371,3.3426,3.3388,3.3388,3.3388,3.3426,3.3426,3.3152,3.2707,3.2672,3.2287,3.1552,3.1478,3.1072,3.0352,3.0315,3.0182,2.9884,2.9377,2.8552,2.7557,2.7103,2.6668,2.6219,2.5775,2.5135,2.4446,2.4318,2.3877,2.3041,2.2929,2.2694,2.2215,2.2032,2.1958,2.2005,2.1746,2.1611,2.1611,2.1512,2.1271,2.0995,2.0886,2.0628,2.0188,1.9969,1.9831,1.9785,1.975,1.968,1.9611,1.9576,1.9656,1.9805,1.9792,1.9825,1.9962,1.9817,1.9719,1.9714,1.952,1.9357,1.936,1.9584,1.9593,1.9253,1.9017,1.9,1.8933,1.8753,1.861,1.8754,1.8755,1.8675,1.8575,1.8577,1.8643,1.8795,1.8833,1.9022,1.9325,1.9428,1.9542,1.9806,1.9881,1.9881,1.9881,1.9881,1.9881,1.9881,1.9881,1.993,1.993,1.9935,1.9957,2.0011,2.0032,2.0108,2.013,2.0227,2.0227,2.0302,2.0382,2.0414,2.0436,2.0587,2.0647,3.4436,3.4213,3.4038,3.3987,3.397,3.385,3.3799,3.3799,3.3799,3.3799,3.3799,3.3799,3.3799,3.3799,3.3799,3.3542,3.3046,3.2938,3.2494,3.1878,3.1712,3.1301,3.0739,3.0664,3.0439,3.004,2.9473,2.8675,2.7669,2.7171,2.6745,2.6279,2.5844,2.5237,2.4581,2.4416,2.3934,2.3128,2.2879,2.2692,2.243,2.2163,2.203,2.2006,2.1861,2.168,2.1498,2.1474,2.1402,2.1233,2.1113,2.0781,2.0203,1.9933,1.9757,1.964,1.958,1.9498,1.9439,1.9439,1.9517,1.9639,1.9661,1.9739,1.9885,1.9653,1.9577,1.9522,1.9299,1.9064,1.9138,1.927,1.9238,1.9038,1.8738,1.862,1.8764,1.8571,1.8444,1.8393,1.8385,1.8329,1.8225,1.8225,1.8263,1.8377,1.8415,1.8605,1.905,1.9201,1.9363,1.9779,1.9881,1.9935,2.0,2.0054,1.9957,1.9935,2.0043,2.0022,2.0022,2.0043,2.0086,2.013,2.0205,2.0274,2.0382,2.0518,2.0583,2.0626,2.0669,2.0673,2.0705,2.0798,2.0852,3.5006,3.492,3.4595,3.4402,3.435,3.4076,3.385,3.3901,3.385,3.3867,3.3867,3.3816,3.3799,3.3799,3.3799,3.3765,3.3621,3.3268,3.2852,3.2489,3.2141,3.1759,3.1338,3.1284,3.1054,3.0608,2.9843,2.9066,2.8164,2.7692,2.719,2.6621,2.6153,2.5463,2.4316,2.4355,2.3931,2.3216,2.2868,2.2733,2.2671,2.2453,2.2345,2.2332,2.2296,2.2054,2.1571,2.1535,2.1535,2.145,2.1138,2.0729,2.0321,2.0165,2.0055,1.9695,1.9656,1.9486,1.9184,1.9126,1.9152,1.9227,1.9155,1.9249,1.934,1.9267,1.9305,1.9382,1.9176,1.8978,1.907,1.8837,1.8738,1.8829,1.8649,1.8534,1.8575,1.8557,1.8415,1.8063,1.7987,1.7835,1.754,1.754,1.7693,1.7911,1.8025,1.8253,1.8946,1.9119,1.9374,1.9763,2.0,2.0119,2.0156,2.0199,2.0108,2.0032,2.0145,2.0221,2.0291,2.0313,2.0367,2.041,2.0496,2.0554,2.0723,2.0798,2.0766,2.0809,2.0834,2.091,2.0942,2.0996,2.1144,3.5207,3.5006,3.4886,3.4796,3.4779,3.4659,3.4624,3.4573,3.435,3.4213,3.4162,3.3919,3.3799,3.3816,3.3799,3.3816,3.3761,3.3099,3.2719,3.2583,3.2184,3.1763,3.1472,3.1395,3.1033,3.0299,2.947,2.8705,2.8001,2.7687,2.7224,2.6581,2.6331,2.5662,2.4661,2.4557,2.4093,2.321,2.3036,2.2961,2.3,2.2877,2.284,2.2816,2.2659,2.2478,2.2332,2.2151,2.1822,2.1398,2.1228,2.0781,2.0061,1.9617,1.9435,1.9289,1.9289,1.9253,1.9155,1.9129,1.9204,1.9312,1.9391,1.9478,1.9644,1.9618,1.95,1.935,1.9172,1.9036,1.8774,1.8405,1.8337,1.8628,1.8413,1.8177,1.8139,1.7959,1.7731,1.7616,1.7578,1.7502,1.7426,1.7397,1.7483,1.7607,1.7645,1.7988,1.8597,1.9024,1.9364,1.9949,2.0133,2.0345,2.0404,2.0468,2.0404,2.0378,2.0425,2.0457,2.049,2.0615,2.0658,2.0701,2.0788,2.0874,2.0993,2.1036,2.1003,2.1036,2.1133,2.1136,2.1157,2.12,2.1295,3.56,3.5378,3.5224,3.5172,3.5155,3.5075,3.5006,3.4989,3.471,3.4646,3.4556,3.4368,3.4265,3.4265,3.4265,3.4265,3.4133,3.3403,3.3017,3.2874,3.2074,3.1625,3.1395,3.1241,3.0801,3.0105,2.9446,2.8705,2.7961,2.7673,2.728,2.6702,2.6465,2.599,2.5177,2.5086,2.4591,2.3737,2.3509,2.3383,2.3254,2.313,2.3121,2.3058,2.2913,2.284,2.2828,2.2671,2.2241,2.1533,2.1203,2.0592,1.9819,1.9561,1.9402,1.9402,1.9413,1.9413,1.9376,1.9435,1.9467,1.9596,1.9666,1.972,1.9849,1.9768,1.9466,1.9287,1.8888,1.8671,1.8367,1.7997,1.7921,1.8111,1.7911,1.7797,1.7759,1.7578,1.7426,1.7426,1.7426,1.7464,1.752,1.7539,1.7539,1.7586,1.7769,1.8077,1.8723,1.9211,1.9727,2.0167,2.0376,2.0561,2.0651,2.0705,2.0777,2.0777,2.0788,2.0727,2.0705,2.0845,2.0971,2.0993,2.1057,2.1079,2.1187,2.1219,2.1219,2.1305,2.1316,2.1295,2.1222,2.1243,2.1316,3.6131,3.608,3.5703,3.5532,3.5498,3.5263,3.516,3.5109,3.5057,3.5001,3.4984,3.4937,3.4937,3.4972,3.4886,3.4886,3.4832,3.4021,3.3595,3.3211,3.2346,3.1592,3.1531,3.1237,3.081,3.0258,2.9814,2.9174,2.8407,2.7945,2.7439,2.7007,2.6625,2.6202,2.5753,2.5779,2.5317,2.4539,2.4234,2.3859,2.3545,2.33,2.3167,2.3167,2.313,2.3106,2.3094,2.2957,2.2548,2.174,2.0955,2.0345,2.0005,1.9892,1.9827,1.9817,1.9908,1.9838,1.986,1.9806,1.9827,1.9838,1.9838,1.9881,1.9768,1.9508,1.9264,1.9046,1.8561,1.8142,1.7989,1.7731,1.7588,1.7473,1.7578,1.7511,1.7454,1.7473,1.753,1.7473,1.7444,1.7491,1.769,1.7747,1.791,1.8054,1.8406,1.8818,1.9229,1.968,2.0134,2.0462,2.0662,2.082,2.092,2.0971,2.1003,2.1025,2.1036,2.0953,2.092,2.105,2.1187,2.1219,2.1241,2.1284,2.1305,2.1316,2.1316,2.1316,2.1316,2.1316,2.1316,2.1316,2.1327,3.6433,3.644,3.6097,3.5943,3.5926,3.5823,3.5789,3.5755,3.5463,3.5361,3.5326,3.5087,3.5057,3.5023,3.504,3.5006,3.4822,3.4138,3.371,3.352,3.2664,3.2142,3.2063,3.1747,3.1313,3.0862,3.038,2.9777,2.8976,2.8518,2.7993,2.7374,2.6947,2.6401,2.5911,2.5858,2.5514,2.497,2.4602,2.4368,2.4157,2.3778,2.3635,2.3583,2.3442,2.3318,2.3243,2.2829,2.2338,2.1774,2.0813,2.0228,2.014,2.0011,1.9925,1.9925,1.9903,1.993,1.9941,1.9903,1.9892,1.9881,1.9898,1.973,1.9401,1.9444,1.9172,1.8762,1.8436,1.8368,1.8065,1.79,1.7831,1.7822,1.7708,1.7624,1.7633,1.7746,1.784,1.785,1.7822,1.7889,1.8015,1.824,1.8465,1.8612,1.8907,1.9311,1.9727,2.0076,2.0467,2.0729,2.0953,2.1111,2.1208,2.1219,2.123,2.1241,2.1241,2.1219,2.1198,2.123,2.1284,2.1295,2.1284,2.1305,2.1316,2.1316,2.1316,2.1316,2.1316,2.1316,2.1316,2.1316,2.1338,3.6868,3.6833,3.6474,3.632,3.6303,3.6166,3.6097,3.6046,3.5857,3.5755,3.5703,3.5549,3.5446,3.5446,3.5486,3.5446,3.5367,3.4555,3.4213,3.4013,3.3275,3.2738,3.2396,3.2134,3.1751,3.1207,3.0926,3.0309,2.9569,2.9058,2.8554,2.7971,2.7499,2.6961,2.6519,2.6426,2.612,2.5641,2.5335,2.5097,2.4744,2.4332,2.412,2.4028,2.3763,2.3583,2.3468,2.3032,2.2463,2.1798,2.1046,2.0554,2.035,2.027,2.0183,2.0183,2.0183,2.0233,2.0183,2.0183,2.0183,2.0156,2.003,1.9762,1.9524,1.9396,1.8914,1.8622,1.8465,1.8267,1.8089,1.801,1.801,1.7982,1.8012,1.7946,1.784,1.7925,1.7991,1.805,1.8168,1.8325,1.8401,1.8847,1.9095,1.9284,1.9624,1.9943,2.0243,2.0487,2.074,2.0972,2.1125,2.123,2.1284,2.1295,2.1349,2.1381,2.1413,2.1402,2.1351,2.134,2.1338,2.1338,2.1327,2.1338,2.137,2.137,2.1316,2.1316,2.1316,2.1338,2.1349,2.1424,2.1383,3.7261,3.7227,3.6809,3.6679,3.6628,3.632,3.6183,3.6148,3.608,3.6063,3.6046,3.608,3.5994,3.6097,3.5943,3.6046,3.5925,3.5032,3.4677,3.4335,3.3716,3.3127,3.2682,3.2626,3.2169,3.1607,3.1369,3.0876,3.0193,2.9636,2.9117,2.8668,2.8247,2.7771,2.7337,2.7283,2.6945,2.6423,2.6141,2.5849,2.5386,2.4987,2.4693,2.4446,2.4,2.3764,2.3696,2.342,2.2896,2.2022,2.1508,2.1028,2.0715,2.0626,2.0572,2.055,2.0529,2.0539,2.0572,2.0529,2.0561,2.05,2.0121,1.986,1.9651,1.9212,1.8789,1.8592,1.8295,1.8212,1.8172,1.8104,1.8123,1.8201,1.8295,1.8276,1.8133,1.8076,1.8076,1.8155,1.8512,1.8807,1.9114,1.9454,1.9866,1.9886,2.0219,2.0541,2.0702,2.0865,2.1028,2.1182,2.1284,2.1295,2.1286,2.1308,2.1383,2.1448,2.1543,2.1554,2.1502,2.147,2.1383,2.1362,2.147,2.1543,2.1521,2.1478,2.1435,2.1478,2.1586,2.151,2.1446,2.1513,2.1566,3.768,3.7604,3.7244,3.709,3.7022,3.6679,3.6467,3.645,3.6217,3.6148,3.6097,3.6097,3.6097,3.6097,3.6097,3.5935,3.5555,3.4987,3.4498,3.3763,3.364,3.347,3.3238,3.3238,3.2953,3.2447,3.2109,3.1684,3.1093,3.0318,2.9794,2.9415,2.9004,2.8482,2.7907,2.7798,2.754,2.7093,2.6713,2.647,2.6242,2.5837,2.5354,2.4855,2.4226,2.3864,2.3812,2.372,2.342,2.2824,2.2066,2.1433,2.0971,2.0723,2.0658,2.0658,2.0637,2.0626,2.0615,2.0647,2.0604,2.0608,2.0198,1.9742,1.9428,1.9175,1.8805,1.8604,1.8508,1.8484,1.8494,1.8522,1.8503,1.8503,1.8541,1.861,1.8541,1.8563,1.8656,1.8908,1.911,1.9311,1.9715,2.0119,2.0373,2.0506,2.0749,2.1073,2.1205,2.1205,2.1289,2.1351,2.1293,2.1285,2.1265,2.1256,2.1249,2.1291,2.1375,2.1561,2.155,2.1602,2.1508,2.1581,2.1728,2.1728,2.1715,2.1749,2.178,2.1782,2.1793,2.178,2.1737,2.1749,2.1793,3.8032,3.7981,3.7621,3.7467,3.7416,3.7056,3.6902,3.6868,3.6713,3.6508,3.6354,3.6337,3.6251,3.6097,3.6097,3.5855,3.5352,3.4743,3.4131,3.3647,3.3635,3.3746,3.3778,3.3784,3.3593,3.2855,3.2365,3.1952,3.1414,3.0859,3.0273,2.9936,2.97,2.9312,2.8662,2.8455,2.8153,2.7783,2.7373,2.7086,2.6872,2.6518,2.5918,2.5222,2.4694,2.4417,2.4226,2.4186,2.393,2.3487,2.2802,2.2043,2.1464,2.1083,2.0949,2.0939,2.0939,2.0939,2.0939,2.0939,2.0949,2.0928,2.0331,1.9933,1.9544,1.9222,1.8817,1.8613,1.8638,1.8714,1.8714,1.8714,1.8714,1.8714,1.8714,1.8714,1.8724,1.8837,1.9041,1.9357,1.9663,1.9947,2.0343,2.0659,2.0862,2.0954,2.0984,2.1267,2.13,2.1321,2.1448,2.1472,2.1352,2.1271,2.1262,2.119,2.1025,2.1004,2.1024,2.1243,2.1399,2.1525,2.164,2.1776,2.1933,2.1911,2.1931,2.2017,2.2061,2.1985,2.1963,2.2007,2.2017,2.1933,2.1997,3.828,3.8263,3.7981,3.7844,3.7835,3.7467,3.7296,3.7296,3.7227,3.697,3.6765,3.6713,3.6577,3.6354,3.6198,3.5862,3.5268,3.4629,3.4052,3.3835,3.3985,3.4064,3.4144,3.4197,3.4024,3.3047,3.2762,3.2331,3.1783,3.1224,3.0807,3.0388,3.029,2.9968,2.9579,2.9216,2.891,2.8551,2.8108,2.7779,2.755,2.7126,2.6522,2.5855,2.5289,2.5059,2.4717,2.4606,2.4382,2.4087,2.3672,2.2988,2.2278,2.1668,2.1424,2.1424,2.1383,2.1381,2.1286,2.1297,2.1297,2.1297,2.0485,2.0028,1.9815,1.9237,1.8799,1.8695,1.8714,1.8714,1.8714,1.8714,1.8714,1.8724,1.8733,1.8721,1.8812,1.9099,1.9362,1.952,1.9856,2.0232,2.069,2.1099,2.1251,2.1402,2.1362,2.1383,2.1386,2.1368,2.1456,2.1344,2.118,2.1149,2.1107,2.1107,2.0937,2.0934,2.0881,2.1061,2.1314,2.1398,2.1567,2.1947,2.2083,2.2105,2.2148,2.2265,2.2255,2.2125,2.2158,2.2276,2.2202,2.2105,2.2223,3.828,3.828,3.8212,3.8238,3.8169,3.7827,3.7715,3.7646,3.7381,3.7193,3.7124,3.7066,3.7073,3.6905,3.6549,3.5992,3.5284,3.4626,3.4323,3.4255,3.4382,3.443,3.4461,3.4573,3.4409,3.4171,3.3787,3.3241,3.2533,3.2011,3.146,3.0863,3.0765,3.0556,3.0236,2.997,2.9719,2.9314,2.8867,2.8561,2.8312,2.798,2.744,2.6659,2.5898,2.5384,2.514,2.4814,2.4542,2.4459,2.4087,2.3596,2.3041,2.2356,2.1971,2.1803,2.1823,2.1748,2.1599,2.1556,2.1459,2.1178,2.0588,2.0079,1.9835,1.9315,1.8913,1.8771,1.8762,1.8743,1.8714,1.878,1.8743,1.8762,1.8875,1.897,1.904,1.9346,1.971,1.9791,2.0058,2.0385,2.0785,2.1125,2.1229,2.1312,2.1344,2.1365,2.1438,2.1336,2.1306,2.116,2.0919,2.0905,2.091,2.0918,2.086,2.0978,2.0965,2.1048,2.1264,2.1297,2.1525,2.1903,2.2236,2.2417,2.245,2.2492,2.2514,2.2438,2.2514,2.2578,2.2514,2.2482,2.2546,3.8468,3.828,3.828,3.828,3.8246,3.8135,3.8049,3.8032,3.7861,3.7672,3.7535,3.7484,3.7381,3.7136,3.6693,3.6024,3.5242,3.472,3.4493,3.4525,3.4684,3.4779,3.4827,3.4938,3.5049,3.5022,3.4819,3.4236,3.3391,3.288,3.2251,3.1839,3.1667,3.1456,3.1033,3.0779,3.0467,3.0043,2.9677,2.9228,2.8851,2.8416,2.7888,2.7236,2.6574,2.6025,2.5635,2.5257,2.5047,2.4933,2.4584,2.4163,2.3656,2.3114,2.2477,2.2146,2.2039,2.1985,2.1836,2.1803,2.1739,2.1622,2.1003,2.06,2.027,1.9793,1.9266,1.9068,1.8995,1.8995,1.9014,1.9027,1.8995,1.9014,1.9089,1.9127,1.9207,1.9451,1.97,1.9937,2.0226,2.0464,2.0713,2.0993,2.1108,2.1202,2.1306,2.1379,2.14,2.1283,2.1144,2.0993,2.0767,2.0663,2.0673,2.0689,2.0718,2.0846,2.0954,2.1028,2.1111,2.1126,2.1497,2.1892,2.2235,2.2436,2.2632,2.2622,2.2665,2.2708,2.2686,2.2708,2.2815,2.288,2.2912,3.8734,3.8443,3.8357,3.828,3.828,3.828,3.828,3.828,3.8263,3.8135,3.7895,3.7903,3.7724,3.7333,3.682,3.6146,3.5268,3.4875,3.4822,3.4843,3.5017,3.5145,3.524,3.5399,3.5553,3.5446,3.5478,3.5024,3.4092,3.3599,3.3185,3.2664,3.2581,3.2355,3.1868,3.1438,3.1095,3.0823,3.0425,2.9816,2.9099,2.8663,2.8281,2.7771,2.726,2.6778,2.6436,2.5848,2.559,2.5462,2.5203,2.4773,2.4298,2.3909,2.3223,2.2393,2.219,2.2147,2.2062,2.2051,2.2008,2.19,2.1526,2.1076,2.0562,2.0019,1.9596,1.9381,1.9278,1.9259,1.9231,1.9278,1.9278,1.9278,1.9306,1.9363,1.9373,1.9514,1.9666,1.9981,2.033,2.0565,2.0756,2.0894,2.1009,2.1175,2.1268,2.1216,2.1257,2.11,2.0975,2.0838,2.0647,2.0462,2.0427,2.045,2.0479,2.0561,2.0648,2.074,2.0878,2.0961,2.1363,2.168,2.1992,2.2233,2.2467,2.2783,2.2934,2.2977,2.2869,2.2902,2.3052,2.3128,2.3149,3.8845,3.8776,3.8477,3.828,3.828,3.828,3.828,3.828,3.828,3.828,3.8203,3.8195,3.8161,3.7879,3.722,3.6436,3.5761,3.5438,3.5363,3.5335,3.5458,3.549,3.5538,3.5542,3.5617,3.5617,3.5617,3.515,3.4592,3.4299,3.3858,3.3288,3.2931,3.2513,3.2446,3.2073,3.1683,3.1582,3.1181,3.0493,2.9749,2.9462,2.9174,2.8655,2.7948,2.7388,2.7115,2.6505,2.6037,2.6017,2.5998,2.5551,2.4914,2.4693,2.3974,2.3206,2.2729,2.2514,2.2299,2.2288,2.2223,2.2063,2.1663,2.1107,2.0663,2.004,1.9575,1.9339,1.9325,1.9354,1.9382,1.9344,1.9316,1.9429,1.9571,1.9609,1.9628,1.9798,1.9922,1.996,2.0327,2.0557,2.0779,2.0858,2.0956,2.1087,2.1178,2.1135,2.1035,2.088,2.0803,2.0661,2.0611,2.0457,2.0425,2.0422,2.0433,2.0452,2.0537,2.0639,2.0812,2.0977,2.0981,2.1317,2.171,2.2156,2.2501,2.2867,2.3178,2.3235,2.3138,2.3203,2.3332,2.3375,2.3386,3.9299,3.8862,3.8734,3.8529,3.8297,3.828,3.828,3.828,3.828,3.828,3.828,3.828,3.8152,3.7851,3.7248,3.6643,3.6009,3.5704,3.5617,3.5617,3.5617,3.5617,3.5617,3.5617,3.5617,3.5617,3.5617,3.5542,3.515,3.5016,3.4721,3.4179,3.3889,3.3588,3.315,3.2862,3.2498,3.2047,3.144,3.0779,3.0203,2.9813,2.948,2.9001,2.8072,2.7723,2.7429,2.6702,2.6218,2.6174,2.6174,2.5745,2.5039,2.4729,2.4307,2.3345,2.3149,2.2912,2.2611,2.2546,2.2482,2.2428,2.2118,2.1798,2.1094,2.0409,1.9861,1.9656,1.9656,1.9647,1.9675,1.9751,1.9798,1.9864,1.993,2.0015,2.0081,2.0185,2.028,2.0318,2.0318,2.0538,2.0715,2.0798,2.0803,2.0813,2.0857,2.0832,2.0773,2.0673,2.0616,2.0539,2.0558,2.0488,2.0535,2.0547,2.0631,2.0688,2.0885,2.0922,2.0932,2.1014,2.1111,2.1394,2.1924,2.2333,2.2631,2.3028,2.3361,2.3418,2.3397,2.3483,2.3569,2.3646,2.3679,3.9779,3.9179,3.8991,3.8708,3.8417,3.8332,3.828,3.828,3.828,3.828,3.828,3.828,3.8023,3.7593,3.7162,3.6703,3.6242,3.5807,3.5661,3.5617,3.5617,3.5617,3.5617,3.5617,3.5617,3.5633,3.5617,3.5558,3.5558,3.5514,3.5308,3.505,3.4722,3.4463,3.3983,3.3483,3.3071,3.2412,3.1903,3.1323,3.0685,3.0336,2.9855,2.9184,2.8411,2.7826,2.7694,2.6935,2.6447,2.6415,2.6427,2.6062,2.5247,2.5035,2.4565,2.3784,2.3451,2.3289,2.302,2.2891,2.2858,2.2815,2.2641,2.2249,2.1595,2.1036,2.0555,2.0072,2.0028,2.0028,2.01,2.016,2.0179,2.0235,2.033,2.0433,2.0499,2.0471,2.0443,2.0424,2.0452,2.0547,2.0689,2.0729,2.0665,2.0544,2.0509,2.0528,2.0601,2.0656,2.0722,2.0815,2.0807,2.0817,2.0836,2.0837,2.0904,2.0978,2.1166,2.1269,2.1323,2.1415,2.1525,2.1859,2.2231,2.2642,2.3023,2.3289,2.358,2.3666,2.3741,2.3741,2.3784,2.3851,2.3894,4.0327,3.9854,3.9231,3.8922,3.8837,3.8434,3.8297,3.828,3.828,3.828,3.828,3.828,3.8066,3.7636,3.7248,3.6833,3.6329,3.5791,3.5661,3.5617,3.5633,3.5649,3.5681,3.5697,3.5681,3.5713,3.5776,3.576,3.5681,3.5808,3.5669,3.5546,3.5291,3.5009,3.4558,3.4002,3.3486,3.2984,3.2675,3.213,3.1556,3.1098,3.0684,2.982,2.8982,2.8411,2.8366,2.739,2.6825,2.6825,2.6768,2.6361,2.5603,2.5332,2.4721,2.4034,2.3731,2.3591,2.3408,2.3278,2.3311,2.3199,2.299,2.2582,2.1985,2.1532,2.1015,2.0556,2.0419,2.0367,2.0405,2.0471,2.0471,2.0509,2.0565,2.0677,2.065,2.0613,2.0584,2.0556,2.0622,2.079,2.0984,2.1123,2.0911,2.0771,2.0915,2.0943,2.0991,2.1065,2.1161,2.1228,2.1248,2.1221,2.1231,2.1287,2.1469,2.1496,2.1536,2.1714,2.1796,2.1908,2.1954,2.2268,2.2683,2.3005,2.3373,2.3627,2.3836,2.3965,2.4054,2.3967,2.3946,2.3978,2.4011,4.0498,4.031,3.9813,3.9333,3.8862,3.8751,3.8503,3.8297,3.828,3.828,3.828,3.828,3.8195,3.7937,3.755,3.7162,3.6703,3.6242,3.5954,3.5661,3.5633,3.5701,3.5796,3.5939,3.6002,3.613,3.6177,3.6209,3.6225,3.613,3.6193,3.6073,3.5782,3.5482,3.5056,3.4513,3.4068,3.3784,3.3469,3.2974,3.2435,3.1769,3.1294,3.0677,2.9112,2.8577,2.8326,2.748,2.7163,2.6948,2.6733,2.6244,2.5708,2.5377,2.4818,2.4148,2.4,2.3935,2.3795,2.3601,2.3408,2.3397,2.3208,2.2928,2.2478,2.1989,2.1532,2.1118,2.0708,2.0556,2.0509,2.0603,2.0688,2.0707,2.0754,2.0866,2.0904,2.093,2.1014,2.1098,2.1117,2.1174,2.1387,2.16,2.1321,2.1071,2.1235,2.1399,2.1474,2.1549,2.1663,2.1748,2.1796,2.1862,2.1862,2.1954,2.2037,2.1991,2.1945,2.2129,2.2278,2.2324,2.2462,2.2775,2.3005,2.3281,2.3557,2.3843,2.4026,2.4062,2.4118,2.4097,2.4107,2.4118,2.4118,4.0583,4.0549,4.031,3.983,3.9265,3.9128,3.8871,3.8503,3.8468,3.8366,3.8297,3.828,3.828,3.8169,3.7943,3.7674,3.7281,3.6867,3.6478,3.6247,3.6119,3.6078,3.6177,3.6273,3.6336,3.6574,3.659,3.6559,3.6527,3.6574,3.6527,3.6479,3.6479,3.6177,3.5725,3.5089,3.4653,3.4426,3.3957,3.3487,3.2913,3.2316,3.1704,3.1054,2.9619,2.8884,2.8564,2.7891,2.7374,2.7133,2.6846,2.6317,2.5845,2.5328,2.4809,2.4497,2.4312,2.4312,2.4194,2.3924,2.3634,2.3677,2.3666,2.3385,2.2938,2.2487,2.197,2.1497,2.1025,2.0688,2.0733,2.0875,2.0941,2.096,2.1007,2.111,2.1307,2.1345,2.1551,2.1711,2.1785,2.195,2.1957,2.2198,2.2073,2.184,2.1847,2.1975,2.204,2.2162,2.232,2.235,2.2406,2.2498,2.2544,2.2452,2.236,2.2314,2.236,2.259,2.2729,2.2775,2.2959,2.3327,2.3511,2.3603,2.374,2.3981,2.4072,2.4118,2.4118,2.4118,2.4118,2.4118,2.4118,4.0583,4.0583,4.0549,4.0327,3.9905,3.9607,3.9292,3.8922,3.8905,3.8734,3.8477,3.8426,3.8383,3.8408,3.8351,3.8218,3.8023,3.755,3.7221,3.7011,3.6696,3.66,3.6574,3.6606,3.667,3.6622,3.6733,3.6797,3.6702,3.6781,3.6733,3.6797,3.6924,3.6879,3.6503,3.5693,3.4985,3.4532,3.4076,3.368,3.3177,3.2662,3.2024,3.1399,3.0017,2.9169,2.888,2.8152,2.7677,2.755,2.7004,2.655,2.6176,2.558,2.5111,2.4747,2.4721,2.4732,2.4721,2.4323,2.414,2.4097,2.4097,2.3913,2.3454,2.2949,2.2488,2.2119,2.1565,2.1297,2.1214,2.1168,2.1196,2.1262,2.1319,2.1496,2.1742,2.1977,2.2223,2.2346,2.2673,2.295,2.2879,2.2829,2.2784,2.2677,2.2601,2.2601,2.2611,2.2821,2.3015,2.3005,2.3051,2.3051,2.3051,2.2821,2.2729,2.2683,2.2821,2.3097,2.3235,2.3327,2.3557,2.3878,2.3878,2.3843,2.3981,2.4118,2.4118,2.4118,2.4118,2.4118,2.4118,2.4118,2.4118,4.0583,4.0583,4.0583,4.0515,4.0344,4.0001,3.9625,3.9316,3.9265,3.9196,3.9111,3.9094,3.9077,3.9101,3.9048,3.8886,3.8595,3.8479,3.8169,3.7355,3.7147,3.7006,3.6967,3.6972,3.7067,3.7258,3.7305,3.7258,3.7383,3.7242,3.7274,3.7369,3.7337,3.7462,3.72,3.6619,3.6083,3.5622,3.5114,3.459,3.4051,3.3137,3.2455,3.2163,3.0405,2.9398,2.9272,2.8398,2.7931,2.7743,2.7193,2.657,2.6229,2.5653,2.5029,2.4829,2.4818,2.4797,2.4786,2.4613,2.4581,2.457,2.4527,2.4434,2.4279,2.3869,2.3353,2.2816,2.226,2.1951,2.1678,2.1622,2.1641,2.1735,2.1858,2.2132,2.237,2.27,2.2966,2.2966,2.3182,2.3492,2.3582,2.365,2.3614,2.353,2.3453,2.3246,2.3226,2.3496,2.3751,2.374,2.374,2.3694,2.3557,2.3373,2.3327,2.3383,2.3521,2.3751,2.3843,2.3797,2.3889,2.4026,2.4072,2.4118,2.4118,2.4118,2.4118,2.4118,2.4026,2.4072,2.4118,2.4118,2.4118,4.0583,4.0583,4.0583,4.0583,4.0549,4.0327,4.0018,3.9676,3.9583,3.9515,3.9497,3.9497,3.948,3.9515,3.959,3.957,3.9232,3.9144,3.8819,3.7965,3.7711,3.7556,3.741,3.7321,3.7417,3.7639,3.7671,3.7685,3.7637,3.7685,3.7623,3.7607,3.7671,3.7623,3.7469,3.71,3.6575,3.605,3.5524,3.5027,3.4391,3.365,3.2869,3.2253,3.1035,2.9606,2.9325,2.8795,2.8089,2.7794,2.7227,2.6612,2.628,2.571,2.5139,2.5044,2.5055,2.5066,2.5066,2.5066,2.5055,2.5055,2.4926,2.4807,2.4702,2.4235,2.3763,2.3301,2.2924,2.2401,2.1992,2.1916,2.2154,2.224,2.2516,2.2791,2.3071,2.3405,2.3742,2.3742,2.3891,2.4145,2.4225,2.4408,2.4512,2.439,2.4269,2.4023,2.3813,2.4038,2.4237,2.418,2.4137,2.3967,2.3956,2.3935,2.3935,2.4072,2.4151,2.4183,2.4072,2.3981,2.4072,2.4118,2.414,2.414,2.4118,2.4118,2.4048,2.3899,2.3797,2.3889,2.4072,2.4026,2.3981,4.0583,4.0583,4.0583,4.0583,4.0583,4.0549,4.0344,3.9974,3.9676,3.96,3.9583,3.9635,3.9686,3.9642,3.9899,3.9991,3.9952,3.9864,3.9523,3.901,3.8562,3.8173,3.7821,3.7653,3.7669,3.7639,3.7671,3.7671,3.7671,3.7671,3.7671,3.7734,3.7782,3.783,3.7706,3.7506,3.6916,3.6281,3.5801,3.5288,3.4619,3.3713,3.3187,3.2487,3.1233,3.0165,2.9655,2.9061,2.8607,2.82,2.7588,2.7214,2.6743,2.604,2.5701,2.5496,2.5475,2.5443,2.5421,2.5399,2.5421,2.5335,2.5098,2.4915,2.4788,2.4578,2.4171,2.3684,2.3217,2.2604,2.2107,2.2451,2.2747,2.2928,2.3167,2.3476,2.3751,2.4063,2.4414,2.4655,2.4843,2.496,2.4832,2.4947,2.5038,2.4932,2.4783,2.4762,2.4529,2.433,2.4484,2.4452,2.4366,2.418,2.4215,2.428,2.4312,2.4377,2.4312,2.4312,2.4226,2.4215,2.4301,2.4323,2.4215,2.4204,2.4312,2.4141,2.3896,2.3747,2.3574,2.3429,2.3521,2.3649,2.3649,4.0583,4.0583,4.0583,4.0583,4.0583,4.0583,4.0515,4.0412,4.0292,4.0258,4.0258,4.0303,4.0235,4.0275,4.0378,4.0412,4.0418,4.0334,4.005,3.9628,3.9096,3.8637,3.8224,3.7855,3.7763,3.7671,3.7671,3.7733,3.7749,3.7733,3.7877,3.802,3.8036,3.8163,3.8228,3.8245,3.732,3.6528,3.6078,3.5533,3.4721,3.378,3.3436,3.2727,3.1302,3.0443,2.9977,2.9258,2.8777,2.8464,2.7621,2.7164,2.7019,2.6148,2.5518,2.5518,2.5507,2.5507,2.5518,2.5529,2.555,2.5572,2.5389,2.5356,2.5265,2.5051,2.4597,2.4063,2.3812,2.3407,2.3021,2.3166,2.3407,2.3599,2.3888,2.4228,2.4487,2.4701,2.5007,2.5093,2.533,2.5297,2.5216,2.5334,2.5414,2.5351,2.534,2.5356,2.5189,2.4977,2.479,2.47,2.4603,2.4463,2.4538,2.4613,2.4613,2.4624,2.4549,2.4517,2.4538,2.4549,2.4581,2.456,2.4474,2.4527,2.4635,2.4341,2.3856,2.355,2.3308,2.3123,2.3015,2.3164,2.3245,4.0583,4.0583,4.0583,4.0583,4.0583,4.0583,4.0583,4.0583,4.0583,4.0583,4.0583,4.0566,4.0583,4.0549,4.0549,4.0566,4.0566,4.0521,4.0311,3.9827,3.9399,3.8821,3.8362,3.801,3.7717,3.7671,3.7749,3.7812,3.7892,3.8052,3.8243,3.837,3.8402,3.8513,3.8608,3.8498,3.7899,3.7115,3.6459,3.5958,3.5093,3.4084,3.3731,3.3166,3.1587,3.0831,3.0349,2.954,2.9201,2.8873,2.8047,2.7608,2.7327,2.6397,2.5809,2.583,2.5841,2.5852,2.5852,2.5841,2.5809,2.5798,2.5727,2.5749,2.5701,2.5517,2.4945,2.4484,2.4504,2.4428,2.4136,2.3902,2.4087,2.4282,2.4622,2.4962,2.5167,2.5313,2.541,2.5459,2.5507,2.5496,2.5545,2.5712,2.5858,2.59,2.606,2.6242,2.5891,2.5417,2.5144,2.4958,2.484,2.4721,2.4865,2.4956,2.4865,2.4833,2.4721,2.4721,2.4807,2.4797,2.4753,2.4753,2.4764,2.4797,2.4829,2.4298,2.3832,2.3489,2.3084,2.2689,2.259,2.2681,2.2707,4.0549,4.0583,4.0583,4.0583,4.0583,4.0583,4.0583,4.0583,4.0583,4.0583,4.0583,4.0583,4.0583,4.0583,4.0583,4.0583,4.0583,4.0583,4.0447,3.9918,3.9537,3.905,3.8545,3.8072,3.7983,3.7843,3.7876,3.8052,3.8259,3.8417,3.8545,3.8719,3.8735,3.8831,3.8926,3.8942,3.8417,3.7525,3.7146,3.6732,3.5606,3.4721,3.4038,3.3803,3.2624,3.1467,3.0942,3.0414,2.9935,2.9393,2.885,2.827,2.7455,2.6849,2.6413,2.6114,2.6071,2.6071,2.606,2.605,2.6093,2.6114,2.6179,2.6103,2.5953,2.5873,2.5384,2.5009,2.498,2.4931,2.4636,2.4701,2.4855,2.4922,2.5134,2.5307,2.5372,2.5469,2.5566,2.5664,2.5761,2.5809,2.61,2.6245,2.6342,2.6439,2.6584,2.6826,2.6661,2.6024,2.5814,2.5519,2.5549,2.5546,2.544,2.5462,2.517,2.5068,2.501,2.4947,2.5066,2.5001,2.4883,2.4969,2.5066,2.498,2.4852,2.4314,2.3798,2.3436,2.2989,2.2382,2.2208,2.2295,2.2283,4.0344,4.0583,4.0583,4.0583,4.0583,4.0583,4.0583,4.0583,4.0583,4.0583,4.0583,4.0583,4.0583,4.0583,4.0583,4.0583,4.0583,4.0583,4.0538,4.0282,3.9873,3.9391,3.8995,3.8653,3.8409,3.8257,3.829,3.8449,3.8592,3.8719,3.8862,3.9069,3.9101,3.918,3.9435,3.9451,3.8919,3.8016,3.7773,3.7124,3.5923,3.4855,3.4038,3.3678,3.2781,3.1793,3.1142,3.0575,2.996,2.9405,2.8861,2.8168,2.7214,2.6976,2.6638,2.6289,2.6282,2.6254,2.6254,2.6265,2.6275,2.6232,2.6222,2.62,2.6136,2.606,2.5908,2.5599,2.5429,2.533,2.5299,2.5479,2.558,2.5565,2.556,2.5555,2.555,2.5637,2.5734,2.5917,2.6062,2.6294,2.6584,2.6729,2.6874,2.6922,2.6971,2.7067,2.7164,2.6831,2.6857,2.6678,2.6616,2.6549,2.63,2.6053,2.5865,2.5659,2.5596,2.5484,2.5313,2.5249,2.5184,2.5303,2.5367,2.5211,2.4838,2.429,2.3827,2.3451,2.2864,2.2279,2.203,2.2106,2.202,4.0241,4.0566,4.0583,4.0583,4.0583,4.0583,4.0583,4.0583,4.0583,4.0583,4.0583,4.0583,4.0583,4.0583,4.0583,4.0583,4.0583,4.0583,4.0583,4.0464,4.0315,3.9849,3.9521,3.9224,3.8823,3.8638,3.8799,3.891,3.8942,3.9148,3.9339,3.9418,3.9466,3.9546,3.9817,3.9719,3.9427,3.8565,3.835,3.7534,3.6333,3.5457,3.4689,3.4199,3.3461,3.2475,3.1746,3.12,3.0652,3.0017,2.9441,2.8951,2.8198,2.7694,2.7269,2.6927,2.6736,2.6501,2.649,2.648,2.6519,2.6458,2.649,2.6544,2.6566,2.648,2.6297,2.6004,2.5915,2.5794,2.5794,2.5897,2.5936,2.5942,2.5949,2.5955,2.6092,2.6211,2.6367,2.6536,2.6632,2.6729,2.6971,2.726,2.7357,2.7501,2.7501,2.7694,2.7694,2.755,2.7646,2.7598,2.7453,2.7212,2.6831,2.6676,2.6591,2.6405,2.6197,2.5814,2.5566,2.5513,2.5507,2.5496,2.5448,2.5281,2.4878,2.4283,2.3799,2.3382,2.279,2.2152,2.2047,2.2009,2.2,4.019,4.0549,4.0583,4.0583,4.0583,4.0583,4.0583,4.0583,4.0583,4.0583,4.0583,4.0583,4.0583,4.0583,4.0583,4.0583,4.0618,4.0738,4.0703,4.0715,4.0649,4.0243,3.9915,3.9677,3.9383,3.9132,3.9164,3.926,3.9291,3.9498,3.9673,3.9801,3.9817,3.9817,3.9817,3.9768,3.9475,3.8923,3.8482,3.7957,3.7189,3.6414,3.555,3.4955,3.4449,3.3664,3.2799,3.2146,3.1605,3.0823,3.0016,2.9498,2.903,2.8449,2.8077,2.776,2.7291,2.7108,2.6977,2.6904,2.6875,2.6856,2.6899,2.6888,2.6866,2.678,2.6587,2.648,2.634,2.6286,2.6286,2.6243,2.6232,2.63,2.6318,2.6402,2.6568,2.6802,2.7037,2.7207,2.7269,2.7269,2.7476,2.7766,2.785,2.7995,2.8187,2.8428,2.8476,2.8236,2.8139,2.8043,2.7887,2.7646,2.7405,2.7212,2.7164,2.7019,2.6729,2.6197,2.5761,2.5664,2.5566,2.5518,2.5421,2.5275,2.4886,2.43,2.3833,2.3287,2.2751,2.2236,2.2206,2.2139,2.2107,4.0012,4.0583,4.0583,4.0583,4.0583,4.0583,4.0583,4.0583,4.0583,4.0583,4.0583,4.0583,4.0583,4.0583,4.0583,4.0618,4.072,4.0875,4.1075,4.1068,4.1254,4.0814,4.0356,4.0195,4.0044,3.9772,3.9546,3.9625,3.9561,3.9721,3.9817,3.9817,3.9817,3.9817,3.9817,3.9719,3.9557,3.9069,3.8595,3.8056,3.7397,3.6542,3.5607,3.5011,3.4463,3.3614,3.2862,3.2511,3.1857,3.1113,3.0467,2.9948,2.9542,2.9186,2.8779,2.8371,2.7922,2.7718,2.7565,2.7257,2.7104,2.7001,2.7001,2.6899,2.6888,2.6877,2.677,2.677,2.6684,2.6684,2.6652,2.6573,2.6519,2.6667,2.6713,2.6904,2.7081,2.7421,2.7786,2.7919,2.801,2.8122,2.8283,2.8367,2.8331,2.8428,2.8392,2.8632,2.8572,2.8572,2.8584,2.8428,2.8284,2.838,2.8332,2.7791,2.7646,2.7501,2.7212,2.6584,2.61,2.5712,2.5615,2.5518,2.5372,2.5227,2.4789,2.4156,2.3707,2.316,2.272,2.2368,2.2299,2.2152,2.1946]},{"header":{"parameterUnit":"m.s-1","parameterCategory":1,"la1":31.0,"la2":29.5877,"lo1":-88.7671,"lo2":-86.6584,"dy":0.0162,"dx":0.0185,"nx":115,"ny":88,"refTime":"2023-05-31T12:00:00:Z","depth":0,"parameterNumber":3,"parameterNumberName":"V-component_of_WINDS"},"data":[0.0,0.0,0.0,0.0,0.0,0.0,0.0,0.0,0.0,0.0,0.0,0.0,0.0,0.0,0.0,0.0,0.0,0.0,0.0,0.0,0.0,0.0,0.0,0.0,0.0,0.0,0.0,0.0,0.0,0.0,0.0,0.0,0.0,0.0,0.0,0.0,0.0,0.0,0.0,0.0,0.0,0.0,0.0,0.0,0.0,0.0,0.0,0.0,0.0,0.0,0.0,0.0,0.0,0.0,0.0,0.0,0.0,0.0,0.0,0.0,0.0,0.0,0.0,0.0,0.0,0.0,0.0,0.0,0.0,0.0,0.0,0.0,0.0,0.0,0.0,0.0,0.0,0.0,0.0,0.0,0.0,0.0,0.0,0.0,0.0,0.0,0.0,0.0,0.0,0.0,0.0,0.0,0.0,0.0,0.0,0.0,0.0,0.0,0.0,0.0,0.0,0.0,0.0,0.0,0.0,0.0,0.0,0.0,0.0,0.0,0.0,0.0,0.0,0.0,0.0,0.0,0.0,0.0,0.0,0.0,0.0,0.0,0.0,0.0,0.0,0.0,0.0,0.0,0.0,0.0,0.0,0.0,0.0,0.0,0.0,0.0,0.0,0.0,0.0,0.0,0.0,0.0,0.0,0.0,0.0,0.0,0.0,0.0,0.0,0.0,0.0,0.0,0.0,0.0,0.0,0.0,0.0,0.0,0.0,0.0,0.0,0.0,0.0,0.0,0.0,0.0,0.0,0.0,0.0,0.0,0.0,0.0,0.0,0.0,0.0,0.0,0.0,0.0,0.0,0.0,0.0,0.0,0.0,0.0,0.0,0.0,0.0,0.0,0.0,0.0,0.0,0.0,0.0,0.0,0.0,0.0,0.0,0.0,0.0,0.0,0.0,0.0,0.0,0.0,0.0,0.0,0.0,0.0,0.0,0.0,0.0,0.0,0.0,0.0,0.0,0.0,0.0,0.0,0.0,0.0,0.0,0.0,0.0,0.0,0.0,0.0,0.0,0.0,0.0,0.0,0.0,0.0,0.0,0.0,0.0,0.0,0.0,0.0,0.0,0.0,0.0,0.0,0.0,0.0,0.0,0.0,0.0,0.0,0.0,0.0,0.0,0.0,0.0,0.0,0.0,0.0,0.0,0.0,0.0,0.0,0.0,0.0,0.0,0.0,0.0,0.0,0.0,0.0,0.0,0.0,0.0,0.0,0.0,0.0,0.0,0.0,0.0,0.0,0.0,0.0,0.0,0.0,0.0,0.0,0.0,0.0,0.0,0.0,0.0,0.0,0.0,0.0,0.0,0.0,0.0,0.0,0.0,0.0,0.0,0.0,0.0,0.0,0.0,0.0,0.0,0.0,0.0,0.0,0.0,0.0,0.0,0.0,0.0,0.0,0.0,0.0,0.0,0.0,0.0,0.0,0.0,0.0,0.0,0.0,0.0,0.0,0.0,0.0,0.0,0.0,0.0,0.0,0.0,0.0,0.0,0.0,0.0,0.0,0.0,0.0,0.0,0.0,0.0,0.0,0.0,0.0,0.0,0.0,0.0,0.0,0.0,0.0,0.0,0.0,0.0,0.0,0.0,0.0,0.0,0.0,0.0,0.0,0.0,0.0,0.0,0.0,0.0,0.0,0.0,0.0,0.0,0.0,0.0,0.0,0.0,0.0,0.0,0.0,0.0,0.0,0.0,0.0,0.0,0.0,0.0,0.0,0.0,0.0,0.0,0.0,0.0,0.0,0.0,0.0,0.0,0.0,0.0,0.0,0.0,0.0,0.0,0.0,0.0,0.0,0.0,0.0,0.0,0.0,0.0,0.0,0.0,0.0,0.0,0.0,0.0,0.0,0.0,0.0,0.0,0.0,0.0,0.0,0.0,0.0,0.0,0.0,0.0,0.0,0.0,0.0,0.0,0.0,0.0,0.0,0.0,0.0,0.0,0.0,0.0,0.0,0.0,0.0,0.0,0.0,0.0,0.0,0.0,0.0,0.0,0.0,0.0,0.0,0.0,0.0,0.0,0.0,0.0,0.0,0.0,0.0,0.0,0.0,0.0,0.0,0.0,0.0,0.0,0.0,0.0,0.0,0.0,0.0,0.0,0.0,0.0,0.0,0.0,0.0,0.0,0.0,0.0,0.0,0.0,0.0,0.0,0.0,0.0,0.0,0.0,0.0,0.0,0.0,0.0,0.0,0.0,0.0,0.0,0.0,0.0,0.0,0.0,0.0,0.0,0.0,0.0,0.0,0.0,0.0,0.0,0.0,0.0,0.0,0.0,0.0,0.0,0.0,0.0,0.0,0.0,0.0,0.0,0.0,0.0,0.0,0.0,0.0,0.0,0.0,0.0,0.0,0.0,0.0,0.0,0.0,0.0,0.0,0.0,0.0,0.0,0.0,0.0,0.0,0.0,0.0,0.0,0.0,0.0,0.0,0.0,0.0,0.0,0.0,0.0,0.0,0.0,0.0,0.0,0.0,0.0,0.0,0.0,0.0,0.0,0.0,0.0,0.0,0.0,0.0,0.0,0.0,0.0,0.0,0.0,0.0,0.0,0.0,0.0,0.0,0.0,0.0,0.0,0.0,0.0,0.0,0.0,0.0,0.0,0.0,0.0,0.0,0.0,0.0,0.0,0.0,0.0,0.0,0.0,0.0,0.0,0.0,0.0,0.0,0.0,0.0,0.0,0.0,0.0,0.0,0.0,0.0,0.0,0.0,0.0,0.0,0.0,0.0,0.0,0.0,0.0,0.0,0.0,0.0,0.0,0.0,0.0,0.0,0.0,0.0,0.0,0.0,0.0,0.0,0.0,0.0,0.0,0.0,0.0,0.0,0.0,0.0,0.0,0.0,0.0,0.0,0.0,0.0,0.0,0.0,0.0,0.0,0.0,0.0,0.0,0.0,0.0,0.0,0.0,0.0,0.0,0.0,0.0,0.0,0.0,0.0,0.0,0.0,0.0,0.0,0.0,0.0,0.0,0.0,0.0,0.0,0.0,0.0,0.0,0.0,0.0,0.0,0.0,0.0,0.0,0.0,0.0,0.0,0.0,0.0,0.0,0.0,0.0,0.0,0.0,0.0,0.0,0.0,0.0,0.0,0.0,0.0,0.0,0.0,0.0,0.0,0.0,0.0,0.0,0.0,0.0,0.0,0.0,0.0,0.0,0.0,0.0,0.0,0.0,0.0,0.0,0.0,0.0,0.0,0.0,0.0,0.0,0.0,0.0,0.0,0.0,0.0,0.0,0.0,0.0,0.0,0.0,0.0,0.0,0.0,0.0,0.0,0.0,0.0,0.0,0.0,0.0,0.0,0.0,0.0,0.0,0.0,0.0,0.0,0.0,0.0,0.0,0.0,0.0,0.0,0.0,0.0,0.0,0.0,0.0,0.0,0.0,0.0,0.0,0.0,0.0,0.0,0.0,0.0,0.0,0.0,0.0,0.0,0.0,0.0,0.0,0.0,0.0,0.0,0.0,0.0,0.0,0.0,0.0,0.0,0.0,0.0,0.0,0.0,0.0,0.0,0.0,0.0,0.0,0.0,0.0,0.0,0.0,0.0,0.0,0.0,0.0,0.0,0.0,0.0,0.0,0.0,0.0,0.0,0.0,0.0,0.0,0.0,0.0,0.0,0.0,0.0,0.0,0.0,0.0,0.0,0.0,0.0,0.0,0.0,0.0,0.0,0.0,0.0,0.0,0.0,0.0,0.0,0.0,0.0,0.0,0.0,0.0,0.0,0.0,0.0,0.0,0.0,0.0,0.0,0.0,0.0,0.0,0.0,0.0,0.0,0.0,0.0,0.0,0.0,0.0,0.0,0.0,0.0,0.0,0.0,0.0,0.0,0.0,0.0,0.0,0.0,0.0,0.0,0.0,0.0,0.0,0.0,0.0,0.0,0.0,0.0,0.0,0.0,0.0,0.0,0.0,0.0,0.0,0.0,0.0,0.0,0.0,0.0,0.0,0.0,0.0,0.0,0.0,0.0,0.0,0.0,0.0,0.0,0.0,0.0,0.0,0.0,0.0,0.0,0.0,0.0,0.0,0.0,0.0,0.0,0.0,0.0,0.0,0.0,0.0,0.0,0.0,0.0,0.0,0.0,0.0,0.0,0.0,0.0,0.0,0.0,0.0,0.0,0.0,0.0,0.0,0.0,0.0,0.0,0.0,0.0,0.0,0.0,0.0,0.0,0.0,0.0,0.0,0.0,0.0,0.0,0.0,0.0,0.0,0.0,0.0,0.0,0.0,0.0,0.0,0.0,0.0,0.0,0.0,0.0,0.0,0.0,1.5595,0.0,0.0,0.0,0.0,0.0,0.0,0.0,0.0,0.0,0.0,0.0,0.0,0.0,0.0,0.0,0.0,0.0,0.0,0.0,0.0,0.0,0.0,0.0,0.0,0.0,0.0,0.0,0.0,0.0,0.0,0.0,0.0,0.0,0.0,0.0,0.0,0.0,0.0,0.0,0.0,0.0,0.0,0.0,0.0,0.0,0.0,0.0,0.0,0.0,0.0,0.0,0.0,0.0,0.0,0.0,0.0,0.0,0.0,0.0,0.0,0.0,0.0,0.0,0.0,0.0,0.0,0.0,0.0,0.0,0.0,0.0,0.0,0.0,0.0,0.0,0.0,0.0,0.0,0.0,0.0,0.0,0.0,0.0,0.0,0.0,0.0,0.0,0.0,0.0,0.0,0.0,0.0,0.0,0.0,0.0,0.0,0.0,0.0,0.0,0.0,0.0,0.0,0.0,0.0,0.0,0.0,0.0,0.0,0.0,0.0,1.4714,1.4958,1.5194,1.5492,1.5755,0.0,0.0,0.0,0.0,0.0,0.0,0.0,0.0,0.0,0.0,0.0,0.0,0.0,0.0,0.0,0.0,0.0,0.0,0.0,0.0,0.0,0.0,0.0,0.0,0.0,0.0,0.0,0.0,0.0,0.0,0.0,0.0,0.0,0.0,0.0,0.0,0.0,0.0,0.0,0.0,0.0,0.0,0.0,0.0,0.0,0.0,0.0,0.0,0.0,0.0,0.0,0.0,0.0,0.0,0.0,0.0,0.0,0.0,0.0,0.0,0.0,0.0,0.0,0.0,0.0,0.0,0.0,0.0,0.0,0.0,0.0,0.0,0.0,0.0,0.0,0.0,0.0,0.0,0.0,0.0,0.0,0.0,0.0,0.0,0.0,0.0,0.0,0.0,0.0,0.0,0.0,0.0,0.0,0.0,0.0,0.0,0.0,0.0,0.0,0.0,0.0,0.0,0.0,0.0,0.0,0.0,0.0,0.0,0.0,0.0,0.0,0.0,1.5445,1.5914,1.6477,0.0,0.0,0.0,0.0,0.0,0.0,0.0,0.0,0.0,0.0,0.0,0.0,0.0,0.0,0.0,0.0,0.0,0.0,0.0,0.0,0.0,0.0,0.0,0.0,0.0,0.0,0.0,0.0,0.0,0.0,0.0,0.0,0.0,0.0,0.0,0.0,0.0,0.0,0.0,0.0,0.0,0.0,0.0,0.0,0.0,0.0,0.0,0.0,0.0,0.0,0.0,0.0,0.0,0.0,0.0,0.0,0.0,0.0,0.0,0.0,0.0,0.0,0.0,0.0,0.0,0.0,0.0,0.0,0.0,0.0,0.0,0.0,0.0,0.0,0.0,0.0,0.0,0.0,0.0,0.0,0.0,0.0,0.0,0.0,0.0,0.0,0.0,0.0,0.0,0.0,0.0,0.0,0.0,0.0,0.0,0.0,0.0,0.0,0.0,0.0,0.0,0.0,0.0,0.0,0.0,0.0,0.0,0.0,0.0,0.0,1.4863,1.517,1.5981,0.0,1.8123,0.0,0.0,0.0,0.0,0.0,0.0,0.0,0.0,0.0,0.0,0.0,0.0,0.0,0.0,0.0,0.0,0.0,0.0,0.0,0.0,0.0,0.0,0.0,0.0,0.0,0.0,0.0,0.0,0.0,0.0,0.0,0.0,0.0,0.0,0.0,0.0,0.0,0.0,0.0,0.0,0.0,0.0,0.0,0.0,0.0,0.0,0.0,0.0,0.0,0.0,0.0,0.0,0.0,0.0,0.0,0.0,0.0,0.0,0.0,0.0,0.0,0.0,0.0,0.0,0.0,0.0,0.0,0.0,0.0,0.0,0.0,0.0,0.0,0.0,0.0,0.0,0.0,0.0,0.0,0.0,0.0,0.0,0.0,0.0,0.0,0.0,0.0,0.0,0.0,0.0,0.0,0.0,0.0,0.0,0.0,0.0,0.0,0.0,0.0,0.0,0.0,0.0,0.0,0.0,0.0,0.0,0.0,0.0,0.0,0.0,1.5543,1.5848,1.6856,1.788,0.0,0.0,0.0,0.0,0.0,0.0,0.0,0.0,0.0,0.0,0.0,0.0,0.0,0.0,0.0,0.0,0.0,0.0,0.0,0.0,0.0,0.0,0.0,0.0,0.0,0.0,0.0,0.0,0.0,0.0,0.0,0.0,0.0,0.0,0.0,0.0,0.0,0.0,0.0,0.0,0.0,0.0,0.0,0.0,0.0,0.0,0.0,0.0,0.0,0.0,0.0,0.0,0.0,0.0,0.0,0.0,0.0,0.0,0.0,0.0,0.0,0.0,0.0,0.0,0.0,0.0,0.0,0.0,0.0,0.0,0.0,0.0,0.0,0.0,0.0,0.0,0.0,0.0,0.0,0.0,0.0,0.0,0.0,0.0,0.0,0.0,0.0,0.0,0.0,0.0,0.0,0.0,0.0,0.0,0.0,0.0,0.0,0.0,0.0,0.0,0.0,0.0,0.0,0.0,0.0,0.0,0.0,0.0,0.0,0.0,1.576,1.6428,1.7016,1.7842,1.875,1.9666,0.0,0.0,0.0,0.0,0.0,0.0,0.0,0.0,0.0,0.0,0.0,0.0,0.0,0.0,0.0,0.0,0.0,0.0,0.0,0.0,0.0,0.0,0.0,0.0,0.0,0.0,0.0,0.0,0.0,0.0,0.0,0.0,0.0,0.0,0.0,0.0,0.0,0.0,0.0,0.0,0.0,0.0,0.0,0.0,0.0,0.0,0.0,0.0,0.0,0.0,0.0,0.0,0.0,0.0,0.0,0.0,0.0,0.0,0.0,0.0,0.0,0.0,0.0,0.0,0.0,0.0,0.0,0.0,0.0,0.0,0.0,0.0,0.0,0.0,0.0,0.0,0.0,0.0,0.0,0.0,0.0,0.0,0.0,0.0,0.0,0.0,0.0,0.0,0.0,0.0,0.0,0.0,0.0,0.0,0.0,0.0,0.0,0.0,0.0,0.0,0.0,0.0,0.0,0.0,0.0,0.0,0.0,0.0,1.6365,1.6707,1.7486,1.8701,1.8954,1.9491,0.0,0.0,0.0,0.0,0.0,0.0,0.0,0.0,0.0,0.0,0.0,0.0,0.0,0.0,0.0,0.0,0.0,0.0,0.0,0.0,0.0,0.0,0.0,0.0,0.0,0.0,0.0,0.0,0.0,0.0,0.0,0.0,0.0,0.0,0.0,0.0,0.0,0.0,0.0,0.0,0.0,0.0,0.0,0.0,0.0,0.0,0.0,0.0,0.0,0.0,0.0,0.0,0.0,0.0,0.0,0.0,0.0,0.0,0.0,0.0,0.0,0.0,0.0,0.0,0.0,0.0,0.0,0.0,0.0,0.0,0.0,0.0,0.0,0.0,0.0,0.0,0.0,0.0,0.0,0.0,0.0,0.0,0.0,0.0,0.0,0.0,0.0,0.0,0.0,0.0,0.0,0.0,0.0,0.0,0.0,0.0,0.0,0.0,0.0,0.0,0.0,0.0,0.0,0.0,0.0,0.0,0.0,0.0,0.0,1.6539,1.7444,1.8422,1.9415,1.9714,2.0068,0.0,0.0,0.0,0.0,0.0,0.0,0.0,0.0,0.0,0.0,0.0,0.0,0.0,0.0,0.0,0.0,0.0,0.0,0.0,0.0,0.0,0.0,0.0,0.0,0.0,0.0,0.0,0.0,0.0,0.0,0.0,0.0,0.0,0.0,0.0,0.0,0.0,0.0,0.0,0.0,0.0,0.0,0.0,0.0,0.0,0.0,0.0,0.0,0.0,0.0,0.0,0.0,0.0,0.0,0.0,0.0,0.0,0.0,0.0,0.0,0.0,0.0,0.0,0.0,0.0,0.0,0.0,0.0,0.0,0.0,0.0,0.0,0.0,0.0,0.0,0.0,0.0,0.0,0.0,0.0,0.0,0.0,0.0,0.0,0.0,0.0,0.0,0.0,0.0,0.0,0.0,0.0,0.0,0.0,0.0,0.0,0.0,0.0,0.0,0.0,0.0,0.0,0.0,0.0,0.0,0.0,0.0,0.0,0.0,1.7425,0.0,1.9209,1.9865,2.019,2.0383,0.0,0.0,0.0,0.0,0.0,0.0,0.0,0.0,0.0,0.0,0.0,0.0,0.0,0.0,0.0,0.0,0.0,0.0,0.0,0.0,0.0,0.0,0.0,0.0,0.0,0.0,0.0,0.0,0.0,0.0,0.0,0.0,0.0,0.0,0.0,0.0,0.0,0.0,0.0,0.0,0.0,0.0,0.0,0.0,0.0,0.0,0.0,0.0,0.0,0.0,0.0,0.0,0.0,0.0,0.0,0.0,0.0,0.0,0.0,0.0,0.0,0.0,0.0,0.0,0.0,0.0,0.0,0.0,0.0,0.0,0.0,0.0,0.0,0.0,0.0,0.0,0.0,0.0,0.0,0.0,0.0,0.0,0.0,0.0,0.0,0.0,0.0,0.0,0.0,0.0,0.0,0.0,0.0,0.0,0.0,0.0,0.0,0.0,0.0,0.0,0.0,0.0,0.0,0.0,0.0,0.0,0.0,0.0,1.8557,1.926,1.9492,1.9843,2.0137,2.0342,2.053,0.0,0.0,0.0,0.0,0.0,0.0,0.0,0.0,0.0,0.0,0.0,0.0,0.0,0.0,0.0,0.0,0.0,0.0,0.0,0.0,0.0,0.0,0.0,0.0,0.0,0.0,0.0,0.0,0.0,0.0,0.0,0.0,0.0,0.0,0.0,0.0,0.0,0.0,0.0,0.0,0.0,0.0,0.0,0.0,0.0,0.0,0.0,0.0,0.0,0.0,0.0,0.0,0.0,0.0,0.0,0.0,0.0,0.0,0.0,0.0,0.0,0.0,0.0,0.0,0.0,0.0,0.0,0.0,0.0,0.0,0.0,0.0,0.0,0.0,0.0,0.0,0.0,0.0,0.0,0.0,0.0,0.0,0.0,0.0,0.0,0.0,0.0,0.0,0.0,0.0,0.0,0.0,0.0,0.0,0.0,0.0,0.0,0.0,0.0,0.0,0.0,0.0,0.0,0.0,0.0,0.0,0.0,0.0,0.0,2.0077,2.076,2.1296,2.1584,2.1374,2.1285,0.0,0.0,0.0,0.0,0.0,0.0,0.0,0.0,0.0,0.0,0.0,0.0,0.0,0.0,0.0,0.0,0.0,0.0,0.0,0.0,0.0,0.0,0.0,0.0,0.0,0.0,0.0,0.0,0.0,0.0,0.0,0.0,0.0,0.0,0.0,0.0,0.0,0.0,0.0,0.0,0.0,0.0,0.0,0.0,0.0,0.0,0.0,0.0,0.0,0.0,0.0,0.0,0.0,0.0,0.0,0.0,0.0,0.0,0.0,0.0,0.0,0.0,0.0,0.0,0.0,0.0,0.0,0.0,0.0,0.0,0.0,0.0,0.0,0.0,0.0,0.0,0.0,0.0,0.0,0.0,0.0,0.0,0.0,0.0,0.0,0.0,0.0,0.0,0.0,0.0,0.0,0.0,0.0,0.0,0.0,0.0,0.0,0.0,0.0,0.0,0.0,0.0,0.0,0.0,0.0,0.0,0.0,0.0,0.0,2.1764,2.1833,2.2037,2.2352,2.2175,2.2093,2.2128,0.0,0.0,0.0,0.0,0.0,0.0,0.0,0.0,0.0,0.0,0.0,0.0,0.0,0.0,0.0,0.0,0.0,0.0,0.0,0.0,0.0,0.0,0.0,0.0,0.0,0.0,0.0,0.0,0.0,0.0,0.0,0.0,0.0,0.0,0.0,0.0,0.0,0.0,0.0,0.0,0.0,0.0,0.0,0.0,0.0,0.0,0.0,0.0,0.0,0.0,0.0,0.0,0.0,0.0,0.0,0.0,0.0,0.0,0.0,0.0,0.0,0.0,0.0,0.0,0.0,0.0,0.0,0.0,0.0,0.0,0.0,0.0,0.0,0.0,0.0,0.0,0.0,0.0,0.0,0.0,0.0,0.0,0.0,0.0,0.0,0.0,0.0,0.0,0.0,0.0,0.0,0.0,0.0,0.0,0.0,0.0,0.0,0.0,0.0,0.0,0.0,0.0,0.0,0.0,0.0,0.0,0.0,0.0,2.4199,2.294,2.2466,2.2804,2.2898,2.2933,0.0,0.0,0.0,0.0,0.0,0.0,0.0,0.0,0.0,0.0,0.0,0.0,0.0,0.0,0.0,0.0,0.0,0.0,0.0,0.0,0.0,0.0,0.0,0.0,0.0,0.0,0.0,0.0,0.0,0.0,0.0,0.0,0.0,0.0,0.0,0.0,0.0,0.0,0.0,0.0,0.0,0.0,0.0,0.0,0.0,0.0,0.0,0.0,0.0,0.0,0.0,0.0,0.0,0.0,0.0,0.0,0.0,0.0,0.0,0.0,0.0,0.0,0.0,0.0,0.0,0.0,0.0,0.0,0.0,0.0,0.0,0.0,0.0,0.0,0.0,0.0,0.0,0.0,0.0,0.0,0.0,0.0,0.0,0.0,0.0,0.0,0.0,0.0,0.0,0.0,0.0,0.0,0.0,0.0,0.0,0.0,0.0,0.0,0.0,0.0,0.0,0.0,0.0,0.0,0.0,0.0,0.0,0.0,0.0,2.5579,2.5609,2.5707,2.5863,2.4936,2.4467,0.0,0.0,0.0,0.0,0.0,0.0,0.0,0.0,0.0,0.0,0.0,0.0,0.0,0.0,0.0,0.0,0.0,0.0,0.0,0.0,0.0,0.0,0.0,0.0,0.0,0.0,0.0,0.0,0.0,0.0,0.0,0.0,0.0,0.0,0.0,0.0,0.0,0.0,0.0,0.0,0.0,0.0,0.0,0.0,0.0,0.0,0.0,0.0,0.0,0.0,0.0,0.0,0.0,0.0,0.0,0.0,0.0,0.0,0.0,0.0,0.0,0.0,0.0,0.0,0.0,0.0,0.0,0.0,0.0,0.0,0.0,0.0,0.0,0.0,0.0,0.0,0.0,0.0,0.0,0.0,0.0,0.0,0.0,0.0,0.0,0.0,0.0,0.0,0.0,0.0,0.0,0.0,0.0,0.0,0.0,0.0,0.0,0.0,0.0,0.0,0.0,0.0,0.0,0.0,0.0,0.0,0.0,0.0,2.5596,2.7257,2.7953,2.8392,2.8603,2.6914,2.5875,0.0,0.0,0.0,0.0,0.0,0.0,0.0,0.0,0.0,0.0,0.0,0.0,0.0,0.0,0.0,0.0,0.0,0.0,0.0,0.0,0.0,0.0,0.0,0.0,0.0,0.0,0.0,0.0,0.0,0.0,0.0,0.0,0.0,0.0,0.0,0.0,0.0,0.0,0.0,0.0,0.0,0.0,0.0,0.0,0.0,0.0,0.0,0.0,0.0,0.0,0.0,0.0,0.0,0.0,0.0,0.0,0.0,0.0,0.0,0.0,0.0,0.0,0.0,0.0,0.0,0.0,0.0,0.0,0.0,0.0,0.0,0.0,0.0,0.0,0.0,0.0,0.0,0.0,0.0,0.0,0.0,0.0,0.0,0.0,0.0,0.0,0.0,0.0,0.0,0.0,0.0,0.0,0.0,0.0,0.0,0.0,0.0,0.0,0.0,0.0,0.0,0.0,0.0,0.0,0.0,0.0,0.0,0.0,2.7161,2.8912,2.9884,3.0505,3.0776,2.8747,2.7241,0.0,0.0,0.0,0.0,0.0,0.0,0.0,0.0,0.0,0.0,0.0,0.0,0.0,0.0,0.0,0.0,0.0,0.0,0.0,0.0,0.0,0.0,0.0,0.0,0.0,0.0,0.0,0.0,0.0,0.0,0.0,0.0,0.0,0.0,0.0,0.0,0.0,0.0,0.0,0.0,0.0,0.0,0.0,0.0,0.0,0.0,0.0,0.0,0.0,0.0,0.0,0.0,0.0,0.0,0.0,0.0,0.0,0.0,0.0,0.0,0.0,0.0,0.0,0.0,0.0,0.0,0.0,0.0,0.0,0.0,0.0,0.0,0.0,0.0,0.0,0.0,0.0,0.0,0.0,0.0,0.0,0.0,0.0,0.0,0.0,0.0,0.0,0.0,0.0,0.0,0.0,0.0,0.0,0.0,0.0,0.0,0.0,0.0,0.0,0.0,0.0,0.0,0.0,0.0,0.0,0.0,0.0,0.0,2.8729,2.988,3.103,3.1655,3.1725,3.008,2.863,0.0,0.0,0.0,0.0,0.0,0.0,0.0,0.0,0.0,0.0,0.0,0.0,0.0,0.0,0.0,0.0,0.0,0.0,0.0,0.0,0.0,0.0,0.0,0.0,0.0,0.0,0.0,0.0,0.0,0.0,0.0,0.0,0.0,0.0,0.0,0.0,0.0,0.0,0.0,0.0,0.0,0.0,0.0,0.0,0.0,0.0,0.0,0.0,2.3737,0.0,0.0,0.0,0.0,0.0,0.0,0.0,0.0,0.0,0.0,0.0,0.0,0.0,0.0,0.0,0.0,0.0,0.0,0.0,0.0,0.0,0.0,0.0,0.0,0.0,0.0,0.0,0.0,0.0,0.0,0.0,0.0,0.0,0.0,0.0,0.0,0.0,0.0,0.0,0.0,0.0,0.0,0.0,0.0,0.0,0.0,0.0,0.0,0.0,0.0,0.0,0.0,0.0,0.0,0.0,0.0,0.0,0.0,0.0,2.9746,3.1414,3.2144,3.2565,3.2606,3.1482,3.0041,0.0,0.0,0.0,0.0,0.0,0.0,0.0,0.0,0.0,0.0,0.0,0.0,0.0,0.0,0.0,0.0,0.0,0.0,0.0,0.0,0.0,0.0,0.0,0.0,0.0,0.0,0.0,0.0,0.0,0.0,0.0,0.0,0.0,0.0,0.0,0.0,0.0,0.0,0.0,0.0,0.0,0.0,0.0,0.0,0.0,0.0,0.0,0.0,0.0,0.0,0.0,0.0,0.0,0.0,0.0,0.0,0.0,0.0,0.0,0.0,0.0,0.0,0.0,0.0,0.0,0.0,0.0,0.0,0.0,0.0,0.0,0.0,0.0,0.0,0.0,0.0,0.0,0.0,0.0,0.0,0.0,0.0,0.0,0.0,0.0,0.0,0.0,0.0,0.0,0.0,0.0,0.0,0.0,0.0,0.0,0.0,0.0,0.0,0.0,0.0,0.0,0.0,0.0,0.0,0.0,0.0,0.0,2.8884,3.0565,3.2833,3.3186,3.3433,3.3603,3.2723,3.1293,2.9253,0.0,0.0,0.0,0.0,0.0,0.0,0.0,0.0,0.0,0.0,0.0,0.0,0.0,0.0,0.0,0.0,0.0,0.0,0.0,0.0,0.0,0.0,0.0,0.0,0.0,0.0,0.0,0.0,0.0,0.0,0.0,0.0,0.0,0.0,0.0,0.0,0.0,0.0,2.3277,2.4131,0.0,0.0,0.0,0.0,0.0,0.0,0.0,0.0,2.5254,0.0,0.0,0.0,0.0,0.0,0.0,0.0,0.0,0.0,0.0,0.0,0.0,0.0,0.0,0.0,0.0,0.0,0.0,0.0,0.0,0.0,0.0,0.0,0.0,0.0,0.0,0.0,0.0,0.0,0.0,0.0,0.0,0.0,0.0,0.0,0.0,0.0,0.0,0.0,0.0,0.0,0.0,0.0,0.0,0.0,0.0,0.0,0.0,0.0,0.0,0.0,0.0,0.0,0.0,0.0,0.0,2.8755,3.0485,3.1903,3.3052,3.3966,3.4454,3.4424,3.3162,3.1944,3.0882,0.0,0.0,0.0,0.0,0.0,0.0,0.0,0.0,0.0,0.0,0.0,0.0,0.0,0.0,0.0,0.0,0.0,0.0,0.0,0.0,0.0,0.0,0.0,0.0,0.0,0.0,0.0,0.0,0.0,0.0,0.0,0.0,0.0,0.0,0.0,0.0,0.0,0.0,0.0,2.5051,2.5647,0.0,0.0,0.0,0.0,0.0,0.0,0.0,0.0,2.5288,0.0,0.0,0.0,0.0,0.0,0.0,0.0,0.0,0.0,0.0,0.0,0.0,0.0,0.0,0.0,0.0,0.0,0.0,0.0,0.0,0.0,0.0,0.0,0.0,0.0,0.0,0.0,0.0,0.0,0.0,0.0,0.0,0.0,0.0,0.0,0.0,0.0,0.0,0.0,0.0,0.0,0.0,0.0,0.0,0.0,0.0,0.0,0.0,0.0,0.0,0.0,0.0,0.0,0.0,0.0,2.9841,3.1955,3.3575,3.4566,3.5111,3.5397,3.5449,3.3622,3.2198,0.0,0.0,0.0,0.0,0.0,0.0,0.0,0.0,0.0,0.0,0.0,0.0,0.0,0.0,0.0,0.0,0.0,0.0,0.0,0.0,0.0,0.0,0.0,0.0,0.0,0.0,0.0,0.0,0.0,0.0,0.0,0.0,0.0,0.0,0.0,0.0,0.0,0.0,0.0,0.0,2.6177,2.6628,2.7007,0.0,0.0,0.0,0.0,0.0,0.0,2.7684,2.7195,0.0,0.0,0.0,0.0,0.0,0.0,0.0,0.0,0.0,0.0,0.0,0.0,0.0,0.0,0.0,0.0,0.0,0.0,0.0,0.0,0.0,0.0,0.0,0.0,0.0,0.0,0.0,0.0,0.0,0.0,0.0,0.0,0.0,0.0,0.0,0.0,0.0,0.0,0.0,0.0,0.0,0.0,0.0,0.0,0.0,0.0,0.0,0.0,0.0,0.0,0.0,0.0,0.0,0.0,0.0,3.0881,3.3137,3.4894,3.5934,3.6215,3.6288,3.6197,3.4126,3.2508,0.0,0.0,0.0,0.0,0.0,0.0,0.0,0.0,0.0,0.0,0.0,0.0,0.0,0.0,0.0,0.0,0.0,0.0,0.0,0.0,0.0,0.0,0.0,0.0,0.0,0.0,0.0,0.0,0.0,0.0,0.0,0.0,0.0,0.0,0.0,0.0,0.0,0.0,0.0,0.0,0.0,2.7843,2.8632,2.9296,0.0,0.0,0.0,0.0,3.0247,2.9597,0.0,0.0,0.0,0.0,0.0,0.0,0.0,0.0,0.0,0.0,0.0,0.0,0.0,0.0,0.0,0.0,0.0,0.0,0.0,0.0,0.0,0.0,0.0,0.0,0.0,0.0,0.0,0.0,0.0,0.0,0.0,0.0,0.0,0.0,0.0,0.0,0.0,0.0,0.0,0.0,0.0,0.0,0.0,0.0,0.0,0.0,0.0,0.0,0.0,0.0,0.0,0.0,0.0,0.0,0.0,0.0,3.1845,3.3797,3.5202,3.5991,3.6865,3.702,3.6374,3.4741,3.3439,0.0,0.0,0.0,0.0,0.0,0.0,0.0,0.0,0.0,0.0,0.0,0.0,0.0,0.0,0.0,0.0,0.0,0.0,0.0,0.0,0.0,0.0,0.0,0.0,0.0,0.0,0.0,0.0,0.0,0.0,0.0,0.0,0.0,0.0,0.0,0.0,0.0,0.0,0.0,0.0,0.0,2.9517,3.037,3.0571,3.0635,0.0,0.0,3.0575,3.0545,3.0264,0.0,0.0,0.0,0.0,0.0,0.0,0.0,0.0,0.0,0.0,0.0,0.0,0.0,0.0,0.0,0.0,0.0,0.0,0.0,0.0,0.0,0.0,0.0,0.0,0.0,0.0,0.0,0.0,0.0,0.0,0.0,0.0,0.0,0.0,0.0,0.0,0.0,0.0,0.0,0.0,0.0,0.0,0.0,0.0,0.0,0.0,0.0,0.0,0.0,0.0,0.0,0.0,0.0,0.0,0.0,3.1131,3.2863,3.5015,3.6621,3.7577,3.7998,3.788,3.7131,3.564,3.4163,0.0,0.0,0.0,0.0,0.0,0.0,0.0,0.0,0.0,0.0,0.0,0.0,0.0,0.0,0.0,0.0,0.0,0.0,0.0,0.0,0.0,0.0,0.0,0.0,0.0,0.0,0.0,0.0,0.0,0.0,0.0,0.0,0.0,0.0,0.0,0.0,0.0,0.0,0.0,0.0,0.0,0.0,3.0736,3.1232,0.0,0.0,0.0,3.1974,3.189,0.0,0.0,0.0,0.0,0.0,0.0,0.0,0.0,0.0,0.0,0.0,0.0,0.0,0.0,0.0,0.0,0.0,0.0,0.0,0.0,0.0,0.0,0.0,0.0,0.0,0.0,0.0,0.0,0.0,0.0,0.0,0.0,0.0,0.0,0.0,0.0,0.0,0.0,0.0,0.0,0.0,0.0,0.0,0.0,0.0,0.0,0.0,0.0,0.0,0.0,0.0,0.0,0.0,0.0,0.0,0.0,0.0,3.3844,3.6128,3.7778,3.8789,3.91,3.8863,3.8063,3.6612,0.0,0.0,0.0,0.0,0.0,0.0,0.0,0.0,0.0,0.0,0.0,0.0,0.0,0.0,0.0,0.0,0.0,0.0,0.0,0.0,0.0,0.0,0.0,0.0,0.0,0.0,0.0,2.4298,0.0,0.0,0.0,0.0,0.0,0.0,0.0,0.0,0.0,0.0,0.0,0.0,0.0,0.0,3.1606,3.1765,3.2538,3.3052,0.0,0.0,3.3743,3.3617,3.2918,3.2247,0.0,0.0,0.0,0.0,0.0,0.0,0.0,0.0,0.0,0.0,0.0,0.0,0.0,0.0,0.0,0.0,0.0,0.0,0.0,0.0,0.0,0.0,0.0,0.0,0.0,0.0,0.0,0.0,0.0,0.0,0.0,0.0,0.0,0.0,0.0,0.0,0.0,0.0,0.0,0.0,0.0,0.0,0.0,0.0,0.0,0.0,0.0,0.0,0.0,0.0,0.0,0.0,0.0,0.0,0.0,3.4819,3.6795,3.8203,3.8983,3.9895,3.999,3.9096,3.7543,3.5881,0.0,0.0,0.0,0.0,0.0,0.0,0.0,0.0,0.0,0.0,0.0,0.0,0.0,0.0,0.0,0.0,0.0,0.0,0.0,0.0,0.0,0.0,0.0,0.0,0.0,0.0,0.0,0.0,0.0,0.0,0.0,0.0,0.0,0.0,0.0,0.0,0.0,0.0,0.0,0.0,0.0,3.3517,3.4338,3.5205,3.5693,0.0,0.0,3.5615,3.5491,3.4703,3.3852,3.3028,0.0,0.0,0.0,0.0,0.0,0.0,0.0,0.0,0.0,0.0,0.0,0.0,0.0,0.0,0.0,0.0,0.0,0.0,0.0,0.0,0.0,0.0,0.0,0.0,0.0,0.0,0.0,0.0,0.0,0.0,0.0,0.0,0.0,0.0,0.0,0.0,0.0,0.0,0.0,0.0,0.0,0.0,0.0,0.0,0.0,0.0,0.0,0.0,0.0,0.0,0.0,0.0,0.0,3.4565,3.5811,3.7655,3.9001,3.9907,4.029,4.0144,3.932,3.8204,3.6819,0.0,0.0,0.0,0.0,0.0,0.0,0.0,0.0,0.0,0.0,0.0,0.0,0.0,0.0,0.0,0.0,0.0,0.0,0.0,0.0,0.0,0.0,0.0,0.0,0.0,0.0,0.0,0.0,2.8143,2.9007,2.9291,0.0,0.0,0.0,0.0,0.0,0.0,0.0,0.0,0.0,0.0,3.4535,3.5366,3.5768,0.0,0.0,3.5933,3.5887,3.5846,3.5498,3.5094,3.4734,3.4355,0.0,0.0,0.0,0.0,0.0,0.0,0.0,0.0,0.0,0.0,0.0,0.0,0.0,0.0,0.0,0.0,0.0,0.0,0.0,0.0,0.0,0.0,0.0,0.0,0.0,0.0,0.0,0.0,0.0,0.0,0.0,0.0,0.0,0.0,0.0,0.0,0.0,0.0,0.0,0.0,0.0,0.0,0.0,0.0,0.0,0.0,0.0,0.0,0.0,0.0,0.0,0.0,3.5575,3.6843,3.8577,3.9917,4.0866,4.0915,4.0676,4.0114,3.9107,3.7762,0.0,0.0,0.0,0.0,0.0,0.0,0.0,0.0,0.0,0.0,0.0,0.0,0.0,0.0,0.0,0.0,0.0,0.0,0.0,0.0,0.0,0.0,0.0,0.0,0.0,0.0,0.0,0.0,2.9326,3.0143,3.0605,0.0,0.0,0.0,0.0,0.0,0.0,0.0,0.0,0.0,0.0,3.5739,3.6323,3.6646,3.6792,3.6733,3.6733,3.6739,3.6661,3.6417,3.6217,3.6162,0.0,0.0,0.0,0.0,0.0,0.0,0.0,0.0,0.0,0.0,0.0,0.0,0.0,0.0,0.0,0.0,0.0,0.0,0.0,0.0,0.0,0.0,0.0,0.0,0.0,0.0,0.0,0.0,0.0,0.0,2.2817,0.0,0.0,0.0,0.0,0.0,0.0,0.0,0.0,0.0,0.0,0.0,0.0,0.0,0.0,0.0,0.0,0.0,0.0,0.0,0.0,0.0,0.0,3.6041,3.7845,3.9591,4.0901,4.1778,4.1913,4.1879,4.1722,4.0326,3.8699,3.6774,0.0,0.0,0.0,0.0,0.0,0.0,0.0,0.0,0.0,0.0,0.0,0.0,0.0,0.0,0.0,0.0,0.0,0.0,0.0,0.0,0.0,0.0,0.0,0.0,0.0,0.0,2.9541,3.0447,3.1418,0.0,0.0,0.0,0.0,0.0,0.0,0.0,0.0,0.0,0.0,3.6725,3.7343,3.738,3.8085,3.8585,3.847,3.8455,3.8431,3.836,3.7708,3.7182,0.0,0.0,0.0,0.0,0.0,0.0,0.0,0.0,0.0,0.0,0.0,0.0,0.0,0.0,0.0,0.0,0.0,0.0,0.0,0.0,0.0,0.0,0.0,0.0,0.0,0.0,0.0,2.4532,2.4546,0.0,0.0,0.0,0.0,0.0,0.0,0.0,0.0,0.0,0.0,0.0,3.2643,3.2922,0.0,0.0,0.0,0.0,0.0,0.0,0.0,0.0,0.0,0.0,0.0,0.0,3.828,3.9481,4.0703,4.184,4.282,4.2903,4.2903,4.2832,4.1331,3.9089,3.6231,0.0,0.0,0.0,0.0,0.0,0.0,0.0,0.0,0.0,0.0,0.0,0.0,0.0,0.0,0.0,0.0,0.0,0.0,0.0,0.0,0.0,0.0,0.0,0.0,0.0,3.1393,0.0,0.0,0.0,0.0,0.0,0.0,0.0,0.0,0.0,0.0,0.0,3.5418,3.6596,3.7121,3.7798,3.8907,3.9323,3.9721,0.0,0.0,0.0,0.0,0.0,0.0,0.0,0.0,0.0,0.0,0.0,0.0,0.0,0.0,3.8771,3.6627,3.6934,3.7495,3.7487,0.0,0.0,0.0,0.0,0.0,0.0,0.0,0.0,0.0,0.0,0.0,0.0,0.0,0.0,2.7244,0.0,2.7343,0.0,0.0,0.0,0.0,0.0,0.0,0.0,0.0,3.3799,3.4729,3.5394,3.5778,3.6276,0.0,3.7113,3.6215,0.0,0.0,0.0,0.0,0.0,0.0,0.0,0.0,3.9716,4.0448,4.1925,4.3044,4.3752,4.3836,4.3838,4.3826,4.1923,3.9858,3.7638,3.6661,3.5315,0.0,0.0,0.0,0.0,0.0,0.0,0.0,0.0,0.0,0.0,0.0,0.0,0.0,0.0,0.0,0.0,0.0,0.0,0.0,0.0,0.0,0.0,0.0,3.3292,0.0,0.0,0.0,0.0,0.0,0.0,0.0,0.0,0.0,3.6588,3.6628,3.7139,3.836,3.8638,3.909,4.0197,0.0,0.0,0.0,0.0,0.0,0.0,0.0,4.1217,4.1217,4.1356,4.1347,4.1107,4.107,4.107,4.107,0.0,0.0,3.9398,3.9572,4.0137,4.0145,4.0572,4.1044,4.1328,4.1795,4.238,0.0,0.0,0.0,0.0,0.0,0.0,0.0,0.0,3.0384,3.0505,0.0,3.0805,0.0,0.0,0.0,0.0,0.0,3.4316,0.0,0.0,3.7386,3.8046,3.8234,3.8781,3.9057,3.9098,3.9361,3.9535,3.9507,3.7826,0.0,0.0,0.0,0.0,0.0,0.0,4.0381,4.092,4.3097,4.4353,4.4562,4.4687,4.4727,4.4622,4.2329,4.101,4.0779,3.8505,3.6808,3.5802,3.5034,0.0,0.0,0.0,0.0,0.0,0.0,0.0,0.0,0.0,0.0,0.0,0.0,0.0,0.0,0.0,0.0,0.0,0.0,0.0,0.0,3.4152,0.0,0.0,0.0,0.0,0.0,0.0,0.0,0.0,0.0,0.0,3.8542,3.8465,3.9098,4.0723,0.0,0.0,0.0,0.0,4.1391,4.1596,4.1574,4.1619,4.1611,4.1604,4.1611,4.1604,0.0,0.0,4.3755,4.3903,4.3923,4.3968,4.4662,4.4532,4.2673,4.2974,4.3466,4.3503,4.3609,4.391,4.4607,4.4791,4.5048,3.6247,0.0,0.0,0.0,0.0,3.3771,3.3929,3.4058,3.4168,3.4325,3.4481,3.4542,0.0,0.0,0.0,0.0,0.0,0.0,3.8697,3.9354,4.0939,4.1749,4.1927,4.2293,4.2556,4.2698,4.2867,4.302,4.3124,4.2686,4.1236,3.8828,0.0,0.0,0.0,0.0,4.253,4.3247,4.4042,4.4795,4.5553,4.5603,4.5361,4.4862,4.404,4.2794,4.1116,4.0262,3.9135,3.7683,3.6329,0.0,0.0,0.0,0.0,0.0,0.0,0.0,0.0,0.0,0.0,0.0,0.0,0.0,0.0,0.0,0.0,0.0,0.0,0.0,3.6561,3.7044,3.7523,0.0,0.0,0.0,0.0,0.0,0.0,0.0,0.0,0.0,4.245,4.1146,4.0331,0.0,0.0,4.2247,4.2914,4.3582,4.4182,4.479,4.4959,0.0,4.5036,4.4951,4.4901,4.4901,4.5036,4.5438,4.6213,4.6361,4.6592,4.7146,4.7968,4.8301,4.7776,4.6864,4.6321,4.6284,4.6753,4.7259,4.7508,4.7545,4.7803,4.1386,3.9266,3.7879,3.7339,3.7392,3.7488,3.7637,3.782,3.7902,3.8031,3.8224,3.8273,3.8401,3.8591,3.8827,0.0,0.0,0.0,4.198,4.2639,4.4154,4.5096,4.5517,4.5898,4.6088,4.6239,4.6356,4.6365,4.6201,4.6265,4.522,4.3098,0.0,0.0,4.2192,4.3074,4.4009,4.4892,4.5332,4.5993,4.6888,4.6672,4.6185,4.5427,4.5002,4.4101,4.2648,4.188,4.0861,3.9445,3.8207,3.6998,0.0,0.0,0.0,0.0,0.0,0.0,0.0,0.0,0.0,0.0,0.0,3.1307,3.2207,0.0,0.0,0.0,3.6297,3.7627,3.908,3.9348,0.0,0.0,0.0,0.0,0.0,0.0,0.0,4.3035,4.3257,4.3851,4.5204,4.4154,4.3167,4.2971,4.3475,4.4056,4.4614,0.0,4.5774,4.6281,4.6442,4.6587,4.6929,4.6917,4.706,4.7727,4.7758,4.8019,4.8806,4.8991,4.9287,5.0065,5.0667,5.1065,5.1361,5.0843,5.0,4.9113,4.9547,5.0111,5.0148,5.037,5.0739,4.6244,4.5954,4.2667,4.1306,4.1316,4.135,4.1437,4.1623,4.1654,4.1675,4.1745,4.1975,4.2187,4.2382,4.2702,0.0,4.3224,4.4241,4.5166,4.6013,4.7182,4.8138,4.8857,4.9308,4.9521,4.9566,4.9671,4.9463,4.8936,4.8936,4.8665,4.8141,4.5669,4.416,4.3646,4.428,4.51,4.6098,4.6863,4.7626,4.8304,4.7732,4.7059,4.6344,4.5486,4.497,4.4841,4.3428,4.2101,4.1068,4.0343,3.8825,3.6484,0.0,0.0,0.0,0.0,0.0,0.0,0.0,0.0,0.0,0.0,0.0,0.0,0.0,0.0,0.0,3.8696,0.0,4.1027,4.1279,0.0,0.0,0.0,4.3228,4.4121,4.4348,4.4735,4.5695,0.0,0.0,4.7172,4.7311,4.7056,4.6397,4.6351,4.6412,4.65,4.6706,4.6755,4.7053,4.6958,4.7181,4.8036,4.8101,4.8621,4.995,5.0302,5.059,5.1444,5.1667,5.1974,5.2744,5.2902,5.3088,5.3868,5.45,5.4461,5.2129,5.2192,5.2626,5.2663,5.3154,5.3635,4.9171,4.9056,4.767,4.6248,4.496,4.5051,4.5208,4.5398,4.5381,4.5177,4.4847,4.503,4.5293,4.5569,4.5682,4.6251,4.726,4.8041,4.873,4.9292,5.013,5.0759,5.1213,5.1321,5.1485,5.1741,5.1771,5.1756,5.1714,5.1729,5.1376,5.0682,4.9451,4.8209,4.6999,4.7116,4.7369,4.7714,4.795,4.8242,4.8649,4.7958,4.7477,4.7266,4.6479,4.5678,4.4935,4.4537,4.3602,4.2113,4.1349,4.0388,3.9197,3.8497,0.0,0.0,0.0,0.0,0.0,0.0,0.0,0.0,0.0,3.5442,3.6696,0.0,3.8092,0.0,4.1407,4.2892,4.3708,4.3969,0.0,0.0,4.4998,4.5555,4.5904,4.6549,4.7314,4.8227,4.8437,4.8799,4.9661,4.9874,4.9919,4.9717,4.9297,4.9039,4.9084,4.973,5.0201,5.0144,5.0153,5.0302,5.0488,5.0525,5.0859,5.1825,5.2002,5.2484,5.3896,5.4156,5.4426,5.5206,5.5429,5.5532,5.5796,5.6486,5.685,5.6274,5.5785,5.5359,5.5369,5.5518,5.5805,5.2122,5.2108,5.1773,5.1008,4.9906,4.8459,4.7992,4.8267,4.8251,4.809,4.7814,4.81,4.8365,4.8626,4.8674,4.9133,4.9923,5.0328,5.1092,5.2151,5.2606,5.3312,5.4218,5.4297,5.4452,5.4622,5.4637,5.4524,5.4346,5.4071,5.362,5.2922,5.2187,5.1407,5.053,4.9078,4.854,4.9021,4.9451,4.9568,4.9369,4.8945,4.8367,4.7719,4.7224,4.6611,4.5668,4.534,4.4718,4.3722,4.2894,4.2102,4.1253,4.0698,4.0074,0.0,0.0,0.0,0.0,0.0,0.0,0.0,0.0,0.0,0.0,0.0,4.1036,4.2717,4.3989,4.5194,4.6316,4.6608,4.688,4.724,4.7787,4.8156,4.8239,4.9071,4.981,5.031,5.0831,5.1473,5.227,5.2488,5.2756,5.3138,5.2875,5.2119,5.0833,5.1027,5.1528,5.1862,5.1936,5.2234,5.2865,5.3311,5.372,5.4128,5.424,5.4574,5.5429,5.5951,5.6474,5.7255,5.7816,5.8239,5.8587,5.9017,5.942,5.9366,5.9017,5.8527,5.8144,5.8368,5.8777,5.487,5.4893,5.4892,5.4901,5.4701,5.1709,5.058,5.0855,5.0889,5.084,5.0825,5.0995,5.1261,5.1526,5.1672,5.1883,5.2163,5.2195,5.312,5.4659,5.4802,5.5652,5.7059,5.7238,5.7349,5.7381,5.7397,5.7161,5.6635,5.6139,5.5604,5.5058,5.4288,5.3932,5.3776,5.0819,4.959,5.0245,5.1034,5.1076,5.0287,5.0181,4.9495,4.8207,4.803,4.7605,4.6779,4.6141,4.5634,4.5341,4.4542,4.3699,4.2881,4.2696,4.2358,0.0,4.1784,0.0,0.0,0.0,0.0,0.0,0.0,0.0,0.0,4.2703,4.4389,4.6018,4.651,4.7263,4.8668,4.9046,4.9503,5.0228,5.0656,5.0858,5.0915,5.1705,5.2302,5.2312,5.3135,5.3996,5.4612,5.4816,5.5178,5.5741,5.5818,5.4828,5.2566,5.215,5.2531,5.3014,5.3088,5.3673,5.4825,5.58,5.6357,5.6563,5.6722,5.6833,5.7076,5.7725,5.8428,5.9136,5.9821,6.0628,6.1508,6.1705,6.1854,6.1987,6.2109,6.179,6.0703,6.0879,6.1674,5.6854,5.6902,5.5763,5.5455,5.5702,5.504,5.4663,5.4435,5.4594,5.4413,5.3974,5.3465,5.3615,5.4309,5.4524,5.5047,5.5811,5.5922,5.6222,5.6741,5.6773,5.7026,5.7463,5.7529,5.7635,5.7846,5.7862,5.7882,5.7956,5.7845,5.7697,5.755,5.6198,5.5539,5.5447,0.0,0.0,0.0,5.2197,5.1944,5.1241,5.0591,5.0129,4.9845,4.9241,0.0,4.7629,4.7439,4.679,4.554,4.5304,0.0,0.0,0.0,0.0,0.0,0.0,0.0,0.0,0.0,0.0,0.0,4.656,4.6261,4.4907,4.6333,4.7561,4.8041,4.8864,4.9466,4.9803,5.058,5.1147,5.1329,5.2492,5.3361,5.3507,5.4276,5.4935,5.5032,5.527,5.5491,5.5686,5.5743,5.5963,5.6253,5.6203,5.603,5.5473,5.527,5.5382,5.5577,5.5577,5.5726,5.5986,5.685,5.7709,5.8226,5.8991,5.958,6.0174,6.055,6.0757,6.1008,6.1141,6.164,6.2507,6.3174,6.3832,6.4588,6.5236,6.4895,6.1987,6.1946,6.2666,5.9091,0.0,5.8368,5.8189,0.0,5.8456,5.8386,5.8195,5.6677,5.5894,5.5654,5.5394,5.5595,5.6052,5.6231,5.6602,5.7046,5.7126,5.7463,5.7971,5.7971,5.8295,5.8838,5.8952,5.9077,5.9197,5.9274,5.9315,5.9421,5.9141,5.8973,5.8973,5.7975,5.749,5.7455,5.6402,5.5044,5.3401,5.3365,5.3252,5.2975,5.2178,5.1606,5.1177,5.0426,0.0,0.0,0.0,0.0,0.0,0.0,0.0,0.0,0.0,0.0,4.6812,4.687,4.7036,4.7439,4.7626,4.8017,4.8791,5.0172,5.0087,4.7861,4.8627,4.96,5.0462,5.1062,5.1777,5.254,5.3123,5.3489,5.3525,5.432,5.4906,5.5082,5.5841,5.6396,5.6571,5.7306,5.7825,5.7825,5.8339,5.8577,5.8625,5.8656,5.8681,5.8584,5.7327,5.6543,5.736,5.8303,5.8791,5.8791,5.913,5.958,6.0136,6.052,6.0951,6.1402,6.2211,6.2776,6.2861,6.3501,6.4302,6.4728,6.5161,6.5595,6.6039,6.651,6.6339,6.4452,6.4441,6.4816,6.1005,6.1042,6.0942,6.0909,6.0946,6.1127,6.1253,6.1205,0.0,0.0,0.0,5.7216,5.7364,5.746,5.7637,5.7821,5.7961,5.7993,5.8507,5.9354,5.937,5.98,6.0541,6.072,6.0815,6.0878,6.1003,6.1081,6.1076,6.0605,6.0339,6.0155,5.9717,5.9307,5.9034,5.8484,5.7204,5.5294,5.4753,5.4517,5.4475,5.384,5.3181,5.2546,5.1886,5.1095,5.016,5.0124,4.998,4.9729,4.9731,4.9768,4.9768,4.9889,4.9925,4.9937,5.0007,5.0102,5.0246,5.0386,5.0792,5.1584,5.3084,5.2939,5.0577,5.0794,5.1545,5.2874,5.3128,5.381,5.5124,5.553,5.5694,5.5716,5.6151,5.6491,5.6539,5.7326,5.7945,5.803,5.9126,6.0055,6.0013,6.0608,6.123,6.1204,6.1002,6.1273,6.1023,5.9055,5.7925,5.9078,6.0193,6.1166,6.1336,6.1649,6.1898,6.1929,6.2276,6.2425,6.2643,6.3613,6.4462,6.4585,6.5857,6.6575,6.6923,6.6913,6.7073,6.7186,6.7224,6.7224,6.7224,6.7224,6.7138,6.1847,6.1961,6.1456,6.1324,6.1483,6.1693,6.1797,6.1745,6.0546,5.9731,5.9157,5.919,5.9207,5.924,5.9385,5.9832,6.0461,6.0644,6.1146,6.1881,6.1881,6.2033,6.2337,6.237,6.2531,6.2801,6.2797,6.2891,6.2995,6.3076,6.2794,6.2108,6.1516,6.0538,5.928,5.9078,5.8916,5.8614,5.6528,5.511,5.4524,5.438,5.4272,5.4164,5.4033,5.3301,5.1826,5.179,5.1095,4.9801,5.0456,5.0885,5.0885,5.1639,5.2047,5.2083,5.207,5.2396,5.3048,5.3225,5.3681,5.4489,5.4851,5.4454,5.3288,5.3983,5.4583,5.4802,5.4939,5.5162,5.5555,5.6364,5.6905,5.7077,5.8201,5.9036,5.901,5.9775,6.0296,6.0296,6.0755,6.1023,6.1108,6.1252,6.148,6.149,6.1788,6.1595,6.1643,6.112,6.0886,6.1073,6.127,6.1467,6.185,6.2795,6.353,6.3726,6.4822,6.5517,6.5601,6.597,6.6291,6.6377,6.6725,6.7111,6.7664,6.7814,6.8077,6.8517,6.8667,6.8704,6.8667,6.8704,6.8554,6.3703,6.3783,6.3165,6.2942,6.303,6.3189,6.3014,6.263,6.2401,6.1789,6.106,6.1008,6.104,6.1105,6.1188,6.1396,6.1763,6.1864,6.2073,6.2405,6.2505,6.2622,6.2704,6.2882,6.3041,6.32,6.3309,6.3382,6.3551,6.3662,6.3559,6.3217,6.2659,6.2059,6.1489,6.0598,6.0231,6.0313,5.8645,5.7459,5.6763,5.6368,5.597,5.5535,5.5136,5.4544,5.3819,5.3783,5.3432,5.2707,5.3103,5.3319,5.3355,5.3728,5.3945,5.3945,5.3945,5.4127,5.449,5.4985,5.5456,5.5937,5.6445,5.6761,5.6811,5.5887,5.5533,5.604,5.6557,5.7158,5.7722,5.8552,5.9076,5.9132,5.9889,6.0341,6.04,6.0814,6.1171,6.1219,6.1677,6.2023,6.2076,6.2449,6.2721,6.2822,6.3221,6.3572,6.3609,6.3998,6.3801,6.2564,6.2959,6.3572,6.3647,6.4645,6.5447,6.5574,6.6174,6.6683,6.6848,6.7073,6.7401,6.7486,6.7776,6.8227,6.8629,6.8629,6.8854,6.9005,6.9192,6.9192,6.9192,6.9192,6.9042,6.5426,6.5503,6.5035,6.4705,6.4584,6.4498,6.4131,6.3641,6.376,6.3428,6.2783,6.2398,6.2307,6.2389,6.2405,6.2511,6.2651,6.2686,6.2773,6.2999,6.3167,6.3249,6.3363,6.3621,6.3749,6.3796,6.3932,6.4072,6.4215,6.4306,6.4333,6.4238,6.3668,6.3468,6.368,6.2457,6.1831,6.1691,6.0952,6.0028,5.8952,5.8409,5.7838,5.723,5.6635,5.6197,5.6015,5.5832,5.5662,5.5514,5.5537,5.5645,5.585,5.6068,5.6262,5.6445,5.6445,5.6445,5.6481,5.7042,5.7418,5.7547,5.8226,5.8943,5.9417,5.7845,5.6895,5.7647,5.8399,5.9079,5.9745,6.0396,6.0862,6.0918,6.1193,6.1381,6.1403,6.1667,6.1885,6.197,6.2705,6.328,6.3461,6.3985,6.4481,6.4673,6.5234,6.5672,6.5805,6.6393,6.5751,6.4683,6.4833,6.5559,6.5795,6.6447,6.695,6.7073,6.7251,6.7438,6.7551,6.7926,6.8227,6.834,6.8704,6.9042,6.9155,6.9155,6.9155,6.9192,6.9192,6.9192,6.9192,6.9192,6.9192,6.6391,6.6428,6.647,6.6231,6.5672,6.5005,6.4654,6.4584,6.4619,6.4583,6.4339,6.3004,6.2494,6.2405,6.2476,6.2862,6.3459,6.3494,6.393,6.4628,6.4767,6.4935,6.5128,6.5229,6.5361,6.5486,6.5589,6.5611,6.5694,6.5991,6.6002,6.5589,6.4847,6.453,6.4608,6.4475,6.4088,6.3394,6.3414,6.2268,6.0026,5.9807,5.9747,5.9674,5.9577,5.92,5.8446,5.7777,5.7107,5.6566,5.6644,5.7087,5.785,5.8688,5.9471,6.0135,6.0208,6.0294,6.022,6.0379,6.0282,6.0427,6.0379,6.0512,6.0683,6.0439,6.028,6.0413,6.0487,6.0618,6.0841,6.1,6.1237,6.1486,6.2023,6.2487,6.2636,6.3201,6.3659,6.3659,6.4412,6.5005,6.5111,6.5694,6.625,6.6201,6.6458,6.6666,6.6666,6.6865,6.6998,6.6516,6.6639,6.6639,6.6752,6.7363,6.7814,6.7926,6.8479,6.8704,6.8742,6.8817,6.908,6.8892,6.9042,6.9192,6.9192,6.9192,6.9192,6.9192,6.9192,6.9192,6.9192,6.9192,6.9192,6.7398,6.7454,6.709,6.6776,6.6514,6.6181,6.6058,6.6058,6.6058,6.6058,6.5987,6.5373,6.4636,6.3758,6.3758,6.3969,6.425,6.425,6.4511,6.5014,6.5132,6.5316,6.5494,6.5643,6.574,6.5804,6.5942,6.6068,6.6238,6.6587,6.6707,6.6437,6.5773,6.5483,6.5582,6.5194,6.4872,6.4736,6.4763,6.4324,6.3321,6.1851,6.086,6.0528,6.0466,6.0356,6.0,5.9621,5.935,5.9113,5.9122,5.9315,5.9703,6.0118,6.0436,6.0768,6.0805,6.0805,6.0805,6.0805,6.0839,6.0896,6.0907,6.1115,6.1712,6.1816,6.2045,6.2406,6.1997,6.1726,6.193,6.2345,6.2709,6.2838,6.3169,6.3563,6.4129,6.4502,6.4919,6.5405,6.5881,6.617,6.6249,6.6522,6.6721,6.6886,6.7148,6.7524,6.7513,6.7889,6.8189,6.8227,6.8227,6.8002,6.7701,6.8189,6.8592,6.8742,6.8967,6.9192,6.9192,6.9192,6.9192,6.9192,6.9192,6.9192,6.9192,6.9192,6.9192,6.9192,6.9192,6.9192,6.9192,6.9192,6.9192,6.8562,6.8409,6.7637,6.7339,6.7286,6.7076,6.6988,6.6988,6.6988,6.6988,6.6988,6.6988,6.6374,6.5426,6.5321,6.5321,6.5321,6.5321,6.5459,6.5682,6.5834,6.6053,6.6215,6.6346,6.6446,6.6478,6.6686,6.6906,6.7085,6.7446,6.7579,6.7345,6.6941,6.672,6.6613,6.6103,6.5854,6.5876,6.5901,6.5853,6.5472,6.3909,6.2556,6.1828,6.1581,6.1459,6.147,6.1248,6.1149,6.1146,6.0998,6.0973,6.1229,6.124,6.1362,6.1581,6.1618,6.1641,6.1626,6.1663,6.1697,6.1775,6.1786,6.2079,6.2687,6.2886,6.3312,6.3973,6.3494,6.3074,6.3008,6.3685,6.4176,6.431,6.4481,6.494,6.5518,6.5715,6.5982,6.6582,6.6892,6.7324,6.7505,6.7628,6.7704,6.77,6.8065,6.8361,6.8377,6.8779,6.9117,6.9192,6.9192,6.893,6.849,6.8704,6.9155,6.9192,6.9192,6.9192,6.9192,6.9192,6.9192,6.9192,6.9192,6.9192,6.9192,6.9192,6.9294,6.9257,6.938,6.9568,6.968,6.9718,6.9906,6.9972,6.9253,6.8498,6.8164,6.8093,6.7409,6.7058,6.7164,6.7093,6.7058,6.7129,6.7093,6.6988,6.6918,6.6918,6.6918,6.6848,6.6777,6.6972,6.7301,6.7371,6.7646,6.8,6.8016,6.7961,6.7851,6.8159,6.8563,6.8944,6.9125,6.8961,6.8363,6.8446,6.8303,6.7857,6.7713,6.7449,6.6912,6.6851,6.6581,6.6037,6.579,6.5125,6.4253,6.349,6.3132,6.3059,6.2394,6.2045,6.2148,6.153,6.1463,6.222,6.2354,6.2706,6.3438,6.3609,6.3615,6.3606,6.3568,6.3616,6.3713,6.3654,6.3787,6.3888,6.3958,6.4316,6.5036,6.5025,6.4689,6.4166,6.47,6.5165,6.5346,6.5967,6.6384,6.6666,6.6725,6.6735,6.7019,6.7693,6.8351,6.9244,6.9501,6.9251,6.9141,6.9271,6.9229,6.9085,6.9166,6.9203,6.9192,6.9192,6.9155,6.9155,6.9117,6.9155,6.9192,6.9192,6.9192,6.9192,6.9192,6.9192,6.9267,6.9343,6.9343,6.923,6.9294,6.9444,6.968,7.0168,7.0367,7.0405,7.1107,7.122,7.0043,6.9394,6.9078,6.8954,6.8937,6.8638,6.8533,6.8533,6.8516,6.8533,6.8551,6.8551,6.8551,6.8533,6.8533,6.7971,6.7058,6.6988,6.7218,6.7566,6.7601,6.7788,6.8071,6.8088,6.8189,6.832,6.8582,6.893,6.9292,6.947,6.9471,6.9433,6.9516,6.9293,6.8793,6.8673,6.8373,6.7875,6.779,6.7704,6.7493,6.7059,6.659,6.6245,6.5467,6.5059,6.5059,6.4763,6.439,6.3905,6.3571,6.3368,6.3304,6.3333,6.3499,6.384,6.3851,6.3873,6.3894,6.3905,6.4166,6.4652,6.4737,6.4972,6.542,6.5587,6.578,6.6026,6.6165,6.6009,6.5886,6.5983,6.6143,6.6324,6.6596,6.7088,6.7553,6.7765,6.7967,6.8494,6.894,6.9244,6.9474,6.9635,6.9577,6.9536,6.9526,6.9474,6.939,6.9321,6.9289,6.9214,6.9192,6.9192,6.9192,6.9192,6.9192,6.9192,6.9192,6.9219,6.9219,6.938,6.9455,6.9643,6.9718,6.9981,7.0056,7.0394,7.0394,7.0657,7.1081,7.1193,7.1268,7.1794,7.1858,7.0604,7.0148,6.9886,6.978,6.9745,6.9499,6.9394,6.9394,6.9394,6.9394,6.9394,6.9394,6.9394,6.9394,6.9394,6.8867,6.7849,6.7814,6.8029,6.8362,6.8396,6.8585,6.8839,6.8873,6.8973,6.919,6.9433,6.9766,7.013,7.0324,7.0362,7.0287,7.0407,7.017,6.9657,6.955,6.9386,6.9124,6.8877,6.8816,6.8778,6.8085,6.7676,6.7602,6.7156,6.6599,6.6165,6.6091,6.5868,6.5348,6.5222,6.5042,6.4692,6.4694,6.4748,6.4743,6.4802,6.4786,6.4844,6.4844,6.5106,6.5641,6.5716,6.5977,6.6464,6.6614,6.6759,6.6978,6.7165,6.7313,6.7576,6.762,6.7507,6.7361,6.7567,6.8005,6.8532,6.8706,6.8983,6.9401,6.9524,6.962,6.9687,6.9687,6.9677,6.9647,6.9637,6.9587,6.9426,6.9384,6.938,6.9262,6.9192,6.938,6.9605,6.9793,6.9455,6.938,6.9755,6.968,6.968,6.9755,6.9906,7.0056,7.0319,7.0705,7.1081,7.1407,7.1633,7.1783,7.1933,7.2094,7.2207,7.2384,7.2571,7.1674,7.1498,7.0831,7.0534,7.0429,6.9867,6.9499,6.9605,6.9499,6.9534,6.9534,6.9429,6.9394,6.9394,6.9394,6.9324,6.922,6.926,6.9459,6.9672,6.9919,7.0094,7.0283,7.0264,7.0366,7.0604,7.1058,7.1379,7.1614,7.1672,7.153,7.1202,7.125,7.1043,7.0494,7.0481,7.0626,7.0535,6.9991,6.9707,6.9645,6.8976,6.8642,6.8605,6.8493,6.7751,6.6388,6.6277,6.6277,6.614,6.6158,6.6247,6.6209,6.6216,6.6372,6.6357,6.6491,6.6582,6.6629,6.6564,6.6516,6.6779,6.68,6.6854,6.7031,6.7052,6.7326,6.7873,6.8134,6.8433,6.9056,6.9241,6.9025,6.8474,6.8847,6.9323,6.9474,6.9559,6.9637,6.9689,6.9709,6.9748,6.9863,6.9863,6.9824,6.9728,6.9699,6.964,6.9495,6.9529,6.9417,6.9348,6.9605,7.0018,7.0292,7.0442,6.9981,6.9718,7.0255,7.0517,7.0619,7.0694,7.0882,7.1032,7.1332,7.1681,7.2121,7.2384,7.2271,7.2421,7.2658,7.2921,7.3033,7.3221,7.3585,7.2184,7.1674,7.1428,7.1342,7.1307,7.1061,7.0991,7.0885,7.0429,7.0148,7.0043,6.964,6.9394,6.9429,6.9394,6.9429,6.9412,6.9687,6.9867,6.9973,7.0114,7.0306,7.048,7.0514,7.0632,7.0949,7.1256,7.1609,7.1888,7.2009,7.1976,7.205,7.21,7.1843,7.1367,7.132,7.1231,7.0907,7.0635,7.0536,7.0524,7.0276,7.0165,7.0091,6.9608,6.9051,6.8605,6.8048,6.7538,6.71,6.7072,6.6926,6.6656,6.6625,6.6678,6.6721,6.6721,6.6731,6.68,6.6848,6.7111,6.7486,6.7626,6.7926,6.8366,6.8415,6.857,6.8897,6.8987,6.9227,6.946,6.96,6.9496,6.9217,6.9476,6.9659,6.9669,6.9756,6.9815,6.9844,6.9853,6.9872,6.9891,6.9939,6.9958,6.9967,6.9957,6.987,6.971,7.0081,7.0271,7.0148,7.0502,7.0807,7.1156,7.1381,7.1156,7.0919,7.1231,7.1343,7.1456,7.1745,7.1895,7.2046,7.2346,7.2646,7.3059,7.3209,7.3097,7.3209,7.3547,7.3709,7.3784,7.3934,7.4111,7.2992,7.2535,7.2219,7.2114,7.2079,7.1814,7.1674,7.1639,7.1166,7.0937,7.085,7.0464,7.0253,7.0253,7.0253,7.0253,7.0274,7.0624,7.0805,7.0699,7.038,7.0411,7.0514,7.0582,7.0733,7.1032,7.1308,7.1609,7.1903,7.1973,7.2122,7.238,7.2467,7.2389,7.2097,7.2088,7.1928,7.1721,7.1426,7.1303,7.1304,7.1056,7.0895,7.0834,7.0388,7.0165,7.0128,6.9645,6.8963,6.8164,6.8022,6.7883,6.7584,6.7659,6.7664,6.7664,6.7701,6.7701,6.7712,6.7776,6.7889,6.834,6.8441,6.8629,6.908,6.9225,6.931,6.9401,6.943,6.9529,6.961,6.9747,6.9766,6.9717,6.9728,6.9758,6.9767,6.9853,6.9891,6.9891,6.9891,7.0043,7.027,7.0346,7.0507,7.0697,7.0772,7.0694,7.0647,7.0921,7.0982,7.1061,7.1204,7.1558,7.2019,7.2207,7.2308,7.2308,7.2346,7.2282,7.2207,7.2695,7.2984,7.3059,7.3285,7.336,7.3735,7.3848,7.3848,7.4148,7.4186,7.4111,7.4009,7.4085,7.4186,7.408,7.3975,7.3202,7.2851,7.2781,7.22,7.199,7.1884,7.1779,7.1763,7.1728,7.1533,7.1533,7.1603,7.1428,7.1428,7.1715,7.1931,7.2044,7.1835,7.1286,7.0854,7.0924,7.1097,7.1283,7.1391,7.1536,7.1757,7.2232,7.2328,7.2187,7.2475,7.2658,7.2604,7.2599,7.2672,7.2752,7.2812,7.2296,7.2092,7.2195,7.1576,7.1168,7.1168,7.1056,7.0982,7.0945,7.0784,7.0177,6.9082,6.9079,6.9098,6.9197,6.923,6.9005,6.8967,6.9144,6.9042,6.9117,6.893,6.9005,6.9042,6.9042,6.9192,6.9225,6.9461,6.961,6.971,6.9881,6.9992,7.0031,7.0137,7.0213,7.0081,7.0176,7.0071,7.0005,7.0081,7.0308,7.0242,7.0128,7.0318,7.1114,7.118,7.1502,7.1909,7.1981,7.1793,7.1765,7.1724,7.1841,7.1952,7.2057,7.2459,7.2958,7.2984,7.3097,7.3172,7.3209,7.3071,7.2958,7.3409,7.3735,7.3848,7.3923,7.4073,7.4148,7.4186,7.4186,7.4186,7.4186,7.4186,7.4186,7.4186,7.4223,7.4802,7.4712,7.401,7.3694,7.3659,7.3448,7.3378,7.3308,7.2711,7.25,7.243,7.1938,7.1779,7.1709,7.1744,7.1674,7.1893,7.2178,7.2292,7.2295,7.23,7.2191,7.2226,7.2366,7.2555,7.2705,7.2781,7.3241,7.3561,7.3572,7.3523,7.3214,7.3289,7.3155,7.2791,7.2769,7.2807,7.3037,7.2997,7.2828,7.2857,7.2776,7.2741,7.2717,7.2146,7.1899,7.18,7.1318,7.0982,7.0667,7.0263,7.0109,7.0093,6.9643,6.9343,6.9343,6.9267,6.9219,6.9257,6.9267,6.923,6.9192,6.9391,6.9236,6.9369,6.9965,7.0324,7.0637,7.1126,7.1507,7.1624,7.1625,7.1683,7.1645,7.119,7.0849,7.0887,7.1341,7.172,7.1758,7.1645,7.1749,7.1919,7.1983,7.2046,7.2291,7.2295,7.2228,7.2359,7.2547,7.2721,7.2891,7.3071,7.3472,7.381,7.3848,7.3885,7.3923,7.3923,7.3848,7.3773,7.3885,7.4073,7.4111,7.4073,7.4148,7.4186,7.4186,7.4186,7.4186,7.4186,7.4186,7.4186,7.4186,7.4261,7.559,7.552,7.4782,7.4466,7.4431,7.415,7.401,7.3905,7.3518,7.3308,7.3202,7.2886,7.2676,7.2676,7.2656,7.2676,7.2714,7.3061,7.3265,7.3358,7.3652,7.3422,7.2976,7.2921,7.3131,7.3407,7.3526,7.374,7.3998,7.4242,7.4145,7.3949,7.4042,7.3949,7.3735,7.3603,7.3505,7.3425,7.3448,7.3406,7.3155,7.3252,7.3281,7.327,7.2864,7.2717,7.2631,7.236,7.1925,7.1436,7.105,7.095,7.0968,7.0544,7.0244,7.0244,7.0244,7.027,7.0244,7.0244,7.0244,7.0292,7.0287,7.0363,7.0551,7.0992,7.1364,7.1522,7.2046,7.2258,7.2383,7.2403,7.2403,7.2289,7.2241,7.1976,7.172,7.2062,7.2327,7.2393,7.2363,7.2485,7.2788,7.2714,7.2851,7.3084,7.3237,7.315,7.3149,7.3406,7.3537,7.3593,7.3672,7.3885,7.4073,7.4111,7.4298,7.4411,7.4523,7.4486,7.446,7.4423,7.4261,7.4261,7.4223,7.4261,7.4373,7.4373,7.4186,7.4186,7.4186,7.4261,7.4298,7.4561,7.4573,7.6397,7.6327,7.5575,7.5204,7.5098,7.4466,7.4185,7.4115,7.3975,7.394,7.3905,7.3975,7.3799,7.401,7.3694,7.3905,7.3963,7.4174,7.4471,7.4586,7.4739,7.4404,7.3405,7.3387,7.3545,7.3789,7.3678,7.3971,7.4379,7.4518,7.4513,7.4561,7.468,7.4775,7.4602,7.4705,7.4537,7.4102,7.4077,7.389,7.3596,7.3609,7.3667,7.3461,7.332,7.3274,7.3337,7.3302,7.2895,7.1612,7.1605,7.1707,7.1798,7.1783,7.1595,7.152,7.1445,7.1482,7.1595,7.1445,7.1558,7.1494,7.1642,7.1917,7.1772,7.2012,7.2326,7.2377,7.2533,7.2876,7.2886,7.2782,7.2858,7.2999,7.3378,7.3303,7.2896,7.2668,7.2668,7.2648,7.2558,7.2886,7.325,7.3565,7.3657,7.3732,7.3844,7.3755,7.371,7.3827,7.3943,7.4021,7.4073,7.4111,7.4235,7.431,7.4573,7.4798,7.4974,7.5012,7.4986,7.4873,7.4573,7.4498,7.4873,7.4974,7.4899,7.4749,7.4599,7.4749,7.5124,7.4861,7.4636,7.5023,7.5211,7.7149,7.71,7.6362,7.6046,7.5906,7.5204,7.4872,7.4837,7.4256,7.4115,7.401,7.401,7.401,7.401,7.401,7.4088,7.4229,7.4498,7.4725,7.5061,7.5116,7.5064,7.4654,7.4654,7.478,7.4958,7.5188,7.5326,7.553,7.5634,7.5758,7.5277,7.5311,7.5176,7.4891,7.4973,7.4777,7.4691,7.4786,7.4748,7.4622,7.4639,7.4557,7.4148,7.3739,7.3447,7.3423,7.3411,7.3302,7.3081,7.2742,7.2646,7.2537,7.2121,7.1895,7.1895,7.182,7.1783,7.1745,7.1858,7.1708,7.1869,7.2067,7.195,7.2035,7.283,7.3209,7.3422,7.3889,7.4136,7.4174,7.4288,7.4212,7.4212,7.4364,7.4467,7.4364,7.4278,7.4134,7.411,7.4058,7.4168,7.4223,7.4114,7.4248,7.4414,7.4346,7.4255,7.4258,7.4258,7.4397,7.446,7.472,7.4845,7.4931,7.5056,7.5342,7.5492,7.5631,7.5659,7.5622,7.5648,7.5472,7.5573,7.5774,7.5774,7.5575,7.5849,7.58,7.5962,7.6,7.58,7.565,7.5849,7.6,7.7977,7.7872,7.7135,7.6819,7.6713,7.5976,7.566,7.559,7.5274,7.4853,7.4537,7.4501,7.4326,7.401,7.401,7.4128,7.4325,7.4612,7.4894,7.5241,7.5546,7.5796,7.5867,7.5992,7.612,7.5675,7.5674,7.5849,7.6074,7.6258,7.6241,7.5996,7.6005,7.5988,7.5776,7.5729,7.5675,7.5437,7.5462,7.5441,7.5103,7.5146,7.5272,7.4973,7.4613,7.4458,7.4561,7.4574,7.4616,7.4634,7.4437,7.3973,7.3492,7.3074,7.2909,7.2872,7.2872,7.2872,7.2872,7.2872,7.2909,7.2834,7.3003,7.3113,7.3258,7.3828,7.4093,7.4306,7.4581,7.4884,7.4884,7.4884,7.4884,7.4884,7.4884,7.4884,7.4922,7.4854,7.4802,7.468,7.452,7.4444,7.4458,7.4493,7.4436,7.4451,7.4402,7.4321,7.4434,7.4509,7.4798,7.5035,7.5394,7.5579,7.5704,7.5926,7.6297,7.6383,7.6459,7.6439,7.6355,7.6482,7.6571,7.6573,7.6488,7.6413,7.6326,7.6626,7.6776,7.6513,7.6438,7.6588,7.6626,7.6488,7.6713,7.8595,7.856,7.7872,7.7591,7.7465,7.6819,7.6468,7.6468,7.6327,7.58,7.5379,7.5274,7.4993,7.4537,7.4526,7.4558,7.4884,7.5224,7.5702,7.5884,7.6331,7.6509,7.6688,7.692,7.6869,7.589,7.6141,7.6283,7.6259,7.6321,7.649,7.6531,7.6528,7.6445,7.668,7.6861,7.6559,7.611,7.6191,7.6063,7.5564,7.5551,7.5682,7.5624,7.5444,7.5439,7.551,7.5588,7.5742,7.596,7.609,7.5483,7.4759,7.4491,7.4561,7.4561,7.4573,7.4411,7.4235,7.4272,7.4272,7.4272,7.4338,7.4422,7.4439,7.455,7.4702,7.4809,7.4884,7.4884,7.4884,7.4884,7.4884,7.4922,7.496,7.5084,7.5101,7.5029,7.5204,7.4638,7.459,7.4529,7.4606,7.4654,7.457,7.4486,7.4498,7.4573,7.4735,7.4983,7.5446,7.568,7.6051,7.6586,7.676,7.6922,7.7293,7.7617,7.7591,7.7583,7.7513,7.7652,7.7768,7.7174,7.7013,7.7089,7.7239,7.7489,7.7452,7.7001,7.7114,7.7527,7.7426,7.7089,7.7502,7.8595,7.8595,7.8454,7.8399,7.8258,7.7556,7.7219,7.7079,7.6643,7.6257,7.6116,7.6102,7.6011,7.5876,7.6091,7.6313,7.6428,7.6643,7.6864,7.6937,7.7223,7.733,7.7401,7.7651,7.751,7.7316,7.7357,7.7253,7.6876,7.6925,7.6899,7.6509,7.6507,7.659,7.6759,7.6696,7.6919,7.674,7.6826,7.6773,7.6616,7.6613,7.6559,7.6338,7.6022,7.5866,7.5823,7.5807,7.5814,7.5841,7.596,7.5991,7.5957,7.608,7.6151,7.6037,7.595,7.5687,7.5324,7.5173,7.4836,7.4469,7.4553,7.4611,7.4676,7.4853,7.5157,7.5112,7.5074,7.4998,7.4884,7.515,7.4998,7.5074,7.5529,7.5908,7.6011,7.6175,7.6042,7.5173,7.4859,7.4771,7.5107,7.5377,7.5429,7.5568,7.568,7.5756,7.5857,7.6129,7.6502,7.6624,7.6731,7.7342,7.7866,7.8066,7.8365,7.898,7.9105,7.9244,7.9187,7.9137,7.8954,7.8647,7.8351,7.834,7.8453,7.844,7.8353,7.809,7.8353,7.8578,7.8515,7.8403,7.8628,7.8981,7.8595,7.8595,7.8595,7.8525,7.8188,7.8012,7.7977,7.7626,7.724,7.6959,7.6854,7.6643,7.6458,7.6499,7.6816,7.7221,7.7414,7.7473,7.7544,7.7901,7.8115,7.8222,7.8472,7.8722,7.8777,7.8781,7.8269,7.7486,7.7577,7.7503,7.7462,7.7405,7.7491,7.7662,7.7889,7.7592,7.7506,7.7438,7.74,7.7166,7.7285,7.7145,7.7046,7.6905,7.6804,7.6894,7.7019,7.7087,7.7165,7.7236,7.7369,7.7526,7.7567,7.7428,7.6914,7.6701,7.6513,7.615,7.6037,7.5812,7.5561,7.5573,7.5724,7.5813,7.602,7.6034,7.6125,7.6183,7.6183,7.6259,7.6135,7.6183,7.6259,7.6562,7.6714,7.6855,7.7116,7.669,7.6063,7.6149,7.6206,7.6139,7.6346,7.6436,7.6612,7.6827,7.6928,7.7003,7.74,7.7722,7.8006,7.8187,7.8659,7.9222,7.946,7.9573,8.0065,8.0481,8.0583,8.0722,8.0597,8.058,8.0474,8.0177,7.9553,7.9091,7.8891,7.9041,7.9191,7.9116,7.9191,7.9567,7.9792,7.9905,7.9417,7.882,7.8644,7.8595,7.8595,7.8595,7.8595,7.8595,7.856,7.8188,7.7696,7.7605,7.7345,7.697,7.7087,7.7406,7.7724,7.7987,7.8096,7.8258,7.865,7.8936,7.915,7.9507,7.9737,7.9614,7.9685,7.9246,7.829,7.8205,7.8297,7.8134,7.8296,7.8474,7.8505,7.8552,7.8436,7.8249,7.8112,7.7928,7.7698,7.7694,7.7834,7.8017,7.8197,7.8322,7.8438,7.8675,7.8759,7.8801,7.8884,7.902,7.9167,7.9286,7.8716,7.7615,7.7227,7.7076,7.6938,7.6901,7.6751,7.6375,7.6644,7.6809,7.6908,7.689,7.716,7.7375,7.732,7.7244,7.7131,7.732,7.732,7.732,7.7434,7.7661,7.7699,7.7905,7.8149,7.7787,7.7737,7.7594,7.7463,7.7304,7.7394,7.7835,7.8012,7.7986,7.8137,7.8745,7.9142,7.9502,7.9834,8.0204,8.0616,8.0892,8.1006,8.1146,8.1487,8.1665,8.1832,8.1972,8.1868,8.1623,8.1013,8.034,7.9828,7.9617,7.998,8.013,7.9754,7.9867,8.0393,8.0656,8.0731,7.9754,7.9613,7.889,7.8595,7.8595,7.8595,7.8595,7.8595,7.8595,7.8595,7.8328,7.8419,7.8349,7.8312,7.8584,7.9037,7.9387,7.9361,7.9309,7.9364,7.9523,7.9595,7.9702,7.9828,7.988,7.988,7.988,7.9532,7.8966,7.8881,7.8689,7.8423,7.8531,7.8493,7.8817,7.9012,7.8664,7.8662,7.878,7.8923,7.904,7.9064,7.9212,7.9402,7.9612,7.9682,7.9734,7.9939,8.0134,8.0222,8.0311,8.0577,8.0858,8.0926,8.0612,7.9942,7.9266,7.8515,7.7927,7.7727,7.7502,7.7101,7.697,7.6922,7.7285,7.7489,7.7608,7.7386,7.751,7.7623,7.7737,7.7586,7.7472,7.7927,7.8495,7.8647,7.8723,7.9405,7.9535,7.9686,7.9674,7.9131,7.875,7.8527,7.838,7.887,7.921,7.9221,7.9369,8.0016,8.0439,8.0798,8.0972,8.1293,8.1543,8.1906,8.2145,8.2221,8.2562,8.2778,8.2896,8.2975,8.2612,8.2243,8.1736,8.1616,8.1481,8.142,8.1332,8.1031,8.0693,8.0919,8.1369,8.1519,8.1557,8.0575,7.9789,7.9417,7.8995,7.863,7.8595,7.8595,7.8595,7.8595,7.8595,7.8595,7.8595,7.8657,7.8803,7.9089,7.9371,7.9704,7.9841,7.988,7.988,7.988,7.988,7.988,7.988,7.988,7.988,7.988,7.9828,7.9532,7.9463,7.9379,7.9316,7.9356,7.9611,7.954,7.9828,7.9682,7.9444,7.9182,7.9148,7.9327,7.9475,7.9641,7.9816,8.0106,8.0228,8.037,8.0532,8.0691,8.0705,8.0705,8.0884,8.1106,8.1201,8.1083,8.1081,8.0731,7.9905,7.8853,7.8628,7.8403,7.8215,7.81,7.8271,7.8383,7.8564,7.8745,7.8836,7.8836,7.8798,7.8912,7.9215,7.9405,7.967,7.9936,8.0277,8.0542,8.0959,8.1338,8.1489,8.1489,8.087,8.0462,8.0602,8.0439,8.0477,8.0829,8.0916,8.1052,8.14,8.1737,8.1998,8.2074,8.2172,8.2361,8.26,8.2941,8.3168,8.3764,8.3915,8.3953,8.3892,8.3505,8.3474,8.3457,8.3349,8.3187,8.2511,8.1808,8.167,8.1594,8.1895,8.2195,8.2295,8.2408,8.1558,8.033,7.9943,7.9473,7.8876,7.87,7.8595,7.8595,7.8595,7.8595,7.8595,7.8595,7.872,7.8926,7.913,7.9387,7.9641,7.9838,7.9861,7.988,7.988,7.988,7.988,7.988,7.988,7.9916,7.988,7.9864,7.9864,7.9883,7.9889,8.013,7.9975,8.0215,8.0546,8.0586,8.0461,8.0223,7.9838,7.9774,7.9938,8.0071,8.0251,8.0456,8.065,8.0812,8.0858,8.1237,8.1397,8.1448,8.1486,8.1726,8.1941,8.2046,8.1944,8.193,8.1782,8.1219,8.028,7.983,7.9717,7.9729,7.9779,7.9889,8.0069,8.0257,8.0382,8.0504,8.0515,8.0515,8.0618,8.1046,8.1121,8.1349,8.1728,8.2145,8.241,8.2297,8.2183,8.2107,8.2221,8.26,8.2403,8.2756,8.2691,8.2399,8.2448,8.2524,8.2627,8.2653,8.2918,8.3097,8.326,8.3297,8.3373,8.3574,8.3839,8.3942,8.4499,8.4714,8.454,8.4516,8.4368,8.4524,8.4628,8.4317,8.3728,8.2924,8.2233,8.2533,8.2796,8.2796,8.2946,8.3008,8.3158,8.2682,8.1826,8.0435,7.9803,7.9627,7.8911,7.863,7.8595,7.8595,7.8595,7.8595,7.8595,7.8699,7.8906,7.9089,7.9327,7.9602,7.9802,7.9861,7.988,7.9916,7.9951,8.0023,8.0058,8.0023,8.0094,8.0237,8.0201,8.0023,8.0308,8.0113,7.9954,8.0323,8.0276,8.0556,8.0962,8.1219,8.1129,8.1001,8.1177,8.1276,8.1411,8.1526,8.1929,8.2271,8.2511,8.2527,8.2609,8.2712,8.2712,8.2689,8.282,8.2935,8.3018,8.2957,8.2793,8.2758,8.227,8.1632,8.1181,8.1294,8.1407,8.1345,8.1256,8.1339,8.1783,8.1998,8.1873,8.1706,8.188,8.2031,8.2297,8.2297,8.2448,8.2676,8.293,8.3017,8.2865,8.2752,8.2638,8.2903,8.3385,8.3578,8.3744,8.3676,8.3309,8.3112,8.3225,8.3415,8.3517,8.3896,8.4161,8.4438,8.4525,8.4563,8.4589,8.4341,8.4254,8.4606,8.4722,8.4661,8.4713,8.4701,8.4579,8.4468,8.4381,8.428,8.36,8.3297,8.3748,8.3885,8.3585,8.3509,8.3622,8.3735,8.3033,8.2647,8.1629,8.0646,7.9789,7.9452,7.9052,7.863,7.8595,7.8595,7.8595,7.8595,7.8637,7.8761,7.8947,7.913,7.9387,7.9641,7.9815,7.9861,7.9916,8.0185,8.0399,8.072,8.0863,8.1148,8.1255,8.1327,8.1362,8.1148,8.1291,8.1259,8.0961,8.0879,8.1107,8.1679,8.212,8.2322,8.245,8.2649,8.2737,8.2492,8.2465,8.2738,8.2639,8.2702,8.2705,8.3031,8.3136,8.3247,8.3357,8.3553,8.3761,8.3821,8.3784,8.3695,8.3697,8.3472,8.2984,8.2308,8.1632,8.1594,8.1608,8.1809,8.2095,8.2066,8.2147,8.2214,8.2479,8.2638,8.2448,8.2827,8.3168,8.3244,8.3434,8.3688,8.3839,8.3752,8.3892,8.4032,8.4108,8.4336,8.4403,8.4469,8.4339,8.412,8.3998,8.3876,8.3977,8.4079,8.4332,8.4472,8.4661,8.4725,8.4725,8.4701,8.4639,8.4651,8.4663,8.4615,8.4616,8.4604,8.4568,8.4443,8.4381,8.4305,8.4229,8.4189,8.4136,8.4086,8.411,8.4035,8.4073,8.411,8.411,8.3208,8.3138,8.2647,8.1664,8.0505,8.0224,7.9698,7.9052,7.8981,7.8771,7.863,7.8595,7.8595,7.8693,7.9105,7.932,7.9721,8.0086,8.0392,8.0582,8.0768,8.0915,8.1255,8.147,8.1612,8.2148,8.2183,8.2112,8.204,8.2148,8.204,8.1933,8.1933,8.1854,8.1796,8.2538,8.3146,8.324,8.339,8.3538,8.3556,8.337,8.327,8.3473,8.3496,8.3588,8.3697,8.3965,8.4094,8.4131,8.4182,8.4267,8.4372,8.4488,8.4601,8.4733,8.4786,8.4786,8.4373,8.3434,8.242,8.2571,8.2533,8.2573,8.2536,8.266,8.3081,8.3124,8.3165,8.3168,8.3157,8.3726,8.3991,8.4067,8.4256,8.4472,8.4866,8.5017,8.5248,8.5489,8.539,8.5065,8.4902,8.4879,8.4589,8.4448,8.4285,8.4211,8.4275,8.4364,8.4403,8.4516,8.4542,8.4518,8.4505,8.453,8.4554,8.4566,8.4554,8.4493,8.4456,8.4443,8.4394,8.4293,8.4241,8.4216,8.4177,8.415,8.4123,8.411,8.411,8.411,8.411,8.411,8.411,8.3208,8.3208,8.3138,8.2682,8.1931,8.1207,8.0449,7.9803,7.9768,7.9417,7.889,7.8785,7.8806,7.8967,7.9732,8.0013,8.0279,8.1104,8.1556,8.1566,8.158,8.1965,8.2148,8.2219,8.2362,8.2255,8.2504,8.2647,8.2433,8.2611,8.2504,8.2647,8.2933,8.2953,8.235,8.2705,8.3049,8.3238,8.3553,8.3755,8.3956,8.399,8.411,8.4261,8.4473,8.4564,8.4622,8.4907,8.5023,8.5105,8.5321,8.5504,8.5619,8.584,8.5978,8.6124,8.6213,8.6251,8.6213,8.4824,8.4185,8.4035,8.4035,8.4087,8.4217,8.4356,8.448,8.4577,8.472,8.4828,8.4889,8.4901,8.5014,8.5079,8.5306,8.5423,8.5804,8.5945,8.6124,8.6213,8.5926,8.565,8.5386,8.5197,8.4845,8.4632,8.4531,8.4531,8.4568,8.4431,8.4419,8.4381,8.4368,8.4368,8.4368,8.4431,8.4456,8.4468,8.4431,8.4356,8.4318,8.4293,8.4229,8.4138,8.4138,8.4189,8.415,8.411,8.411,8.411,8.411,8.411,8.411,8.411,8.411,8.3208,8.3208,8.3208,8.3068,8.2717,8.2015,8.1242,8.061,8.0505,8.0365,8.0189,8.0154,8.0119,8.0281,8.0394,8.0732,8.0915,8.1013,8.1505,8.1967,8.2105,8.2511,8.2785,8.304,8.3254,8.3682,8.3789,8.3682,8.384,8.3646,8.3718,8.3932,8.386,8.4018,8.3921,8.4091,8.4365,8.4561,8.4773,8.4946,8.5079,8.4937,8.4823,8.4893,8.5123,8.5228,8.5313,8.5649,8.5803,8.5863,8.608,8.6234,8.6297,8.6429,8.6572,8.6588,8.6551,8.6476,8.6438,8.5837,8.5725,8.5687,8.5537,8.5564,8.573,8.5885,8.6027,8.609,8.6074,8.6234,8.6545,8.6519,8.6594,8.6571,8.6661,8.6551,8.6691,8.6605,8.6656,8.6656,8.6518,8.6354,8.6127,8.5824,8.551,8.5209,8.5109,8.472,8.4645,8.4367,8.4215,8.4177,8.4177,8.419,8.4229,8.428,8.4293,8.4317,8.4279,8.4215,8.4189,8.4202,8.4176,8.4136,8.4123,8.411,8.411,8.411,8.411,8.411,8.4136,8.4123,8.411,8.411,8.411,8.3208,8.3208,8.3208,8.3208,8.3138,8.2682,8.205,8.1348,8.1045,8.0905,8.087,8.087,8.0835,8.0905,8.1172,8.1356,8.1563,8.1952,8.2192,8.259,8.2749,8.3249,8.3657,8.3825,8.4039,8.4538,8.461,8.4518,8.4411,8.4518,8.4503,8.4467,8.461,8.4503,8.4529,8.4691,8.4876,8.5058,8.5237,8.5485,8.5658,8.57,8.5627,8.5694,8.5851,8.5983,8.6079,8.6217,8.6449,8.6504,8.6684,8.6875,8.6976,8.7146,8.7312,8.7339,8.7377,8.7415,8.7415,8.7415,8.7377,8.7377,8.6926,8.6513,8.6503,8.6473,8.6603,8.677,8.7072,8.7208,8.7392,8.7492,8.7432,8.737,8.7259,8.7147,8.7437,8.7348,8.746,8.746,8.7257,8.7065,8.68,8.6546,8.6192,8.5942,8.5692,8.5356,8.4968,8.4702,8.4523,8.4499,8.4349,8.4275,8.4238,8.4163,8.4163,8.4123,8.4223,8.4335,8.4123,8.415,8.4123,8.411,8.4185,8.4185,8.411,8.411,8.4212,8.4213,8.4202,8.4176,8.4123,8.4136,8.415,8.3208,8.3208,8.3208,8.3208,8.3208,8.3138,8.2717,8.2072,8.1348,8.108,8.1045,8.1151,8.1256,8.1277,8.1804,8.2107,8.2256,8.2993,8.3329,8.3656,8.3648,8.4127,8.4329,8.4447,8.4482,8.4538,8.461,8.461,8.461,8.461,8.461,8.4753,8.486,8.4967,8.5064,8.5238,8.5282,8.5342,8.5375,8.5589,8.5819,8.6137,8.6174,8.6315,8.6694,8.6988,8.7205,8.7487,8.7718,8.7932,8.8167,8.8324,8.8509,8.8799,8.8898,8.8917,8.8841,8.8729,8.8654,8.8579,8.8654,8.8353,8.7527,8.6889,8.6803,8.7147,8.7342,8.7435,8.76,8.7599,8.7645,8.7598,8.7562,8.7475,8.7412,8.7612,8.8064,8.8263,8.8409,8.8343,8.8087,8.777,8.7319,8.7001,8.7138,8.7128,8.6967,8.6892,8.643,8.5553,8.5387,8.5274,8.4974,8.4499,8.4448,8.4673,8.4786,8.5011,8.4786,8.4786,8.4486,8.4448,8.4749,8.4824,8.4448,8.4411,8.4786,8.4713,8.4377,8.4378,8.4467,8.4305,8.4279,8.4203,8.4203,8.3208,8.3208,8.3208,8.3208,8.3208,8.3208,8.3068,8.2857,8.2612,8.2541,8.2541,8.2519,8.2379,8.2577,8.2787,8.2857,8.2985,8.3156,8.338,8.3668,8.3961,8.4173,8.4361,8.4527,8.4569,8.461,8.461,8.4625,8.4661,8.4625,8.5074,8.5395,8.5431,8.5716,8.5987,8.6278,8.5831,8.5534,8.5513,8.5783,8.6073,8.6447,8.6539,8.6809,8.7333,8.7636,8.7838,8.808,8.8238,8.8258,8.8443,8.8503,8.8547,8.8808,8.8992,8.8992,8.8954,8.8954,8.8992,8.9029,8.9104,8.9179,8.8541,8.8428,8.8292,8.8272,8.8318,8.8263,8.829,8.8318,8.8419,8.8381,8.8318,8.8267,8.8189,8.8299,8.8673,8.8695,8.8853,8.8788,8.8517,8.8405,8.794,8.7988,8.8087,8.8227,8.8189,8.8063,8.7664,8.6749,8.6275,8.6138,8.58,8.5312,8.5575,8.5837,8.5837,8.5875,8.5612,8.55,8.5575,8.5612,8.5725,8.565,8.5349,8.5537,8.5913,8.559,8.5118,8.492,8.4946,8.4632,8.4419,8.4419,8.4356,8.3208,8.3208,8.3208,8.3208,8.3208,8.3208,8.3208,8.3208,8.3208,8.3208,8.3208,8.3173,8.3208,8.3138,8.3138,8.3173,8.3173,8.3195,8.3341,8.3616,8.3776,8.4088,8.4299,8.4501,8.4589,8.461,8.4661,8.4803,8.4982,8.5466,8.5894,8.618,8.6251,8.6501,8.6715,8.6722,8.6644,8.6388,8.6285,8.641,8.6723,8.7083,8.7304,8.7395,8.7978,8.8287,8.8454,8.8768,8.888,8.9028,8.9292,8.9429,8.9556,8.9835,9.0005,9.0081,9.0118,9.0156,9.0156,9.0118,9.0005,8.9968,8.9907,8.9982,8.963,8.9357,8.9194,8.9039,8.9114,8.9216,8.9295,8.9399,8.9309,8.9256,8.9163,8.9068,8.9051,8.9009,8.8982,8.8968,8.8954,8.8917,8.8903,8.8936,8.8894,8.8678,8.8509,8.8414,8.8111,8.7557,8.7148,8.7039,8.6626,8.6213,8.6537,8.6674,8.6537,8.6425,8.6213,8.6213,8.6513,8.6476,8.6326,8.6326,8.6363,8.6476,8.6588,8.6333,8.5936,8.5788,8.5776,8.58,8.5423,8.4833,8.4745,8.3138,8.3208,8.3208,8.3208,8.3208,8.3208,8.3208,8.3208,8.3208,8.3208,8.3208,8.3208,8.3208,8.3208,8.3208,8.3208,8.3208,8.3208,8.3275,8.3573,8.3711,8.3982,8.4215,8.4516,8.4813,8.4747,8.4946,8.5466,8.593,8.6287,8.6573,8.6965,8.7001,8.7215,8.7429,8.7465,8.7568,8.787,8.7776,8.7865,8.799,8.8427,8.8818,8.8782,8.9181,8.9637,8.9861,9.0082,9.0284,9.0462,9.0636,9.0696,9.0864,9.1005,9.1173,9.1259,9.1109,9.1109,9.1071,9.1033,9.1184,9.1259,9.1484,9.1221,9.0695,9.0231,9.0004,8.9988,9.0077,9.009,9.0171,8.983,8.9625,8.9485,8.9304,8.9174,8.9033,8.9006,8.8978,8.895,8.8922,8.8908,8.8823,8.878,8.8751,8.8722,8.8679,8.8606,8.8411,8.8031,8.7848,8.7731,8.7478,8.7113,8.7103,8.7178,8.7059,8.6885,8.6862,8.7001,8.7415,8.7189,8.6776,8.7077,8.7415,8.7114,8.7029,8.6937,8.6918,8.6895,8.6933,8.7132,8.6652,8.5823,8.5584,8.2717,8.3208,8.3208,8.3208,8.3208,8.3208,8.3208,8.3208,8.3208,8.3208,8.3208,8.3208,8.3208,8.3208,8.3208,8.3208,8.3208,8.3208,8.3231,8.3398,8.3595,8.3995,8.4223,8.4939,8.5264,8.5674,8.6002,8.6358,8.668,8.6965,8.7286,8.775,8.7821,8.8,8.8442,8.8478,8.8713,8.9019,8.9122,8.8802,8.8494,8.8627,8.8818,8.9039,8.9456,8.9936,9.0123,9.0234,9.0358,9.0499,9.0674,9.0891,9.1141,9.1252,9.1392,9.1493,9.1658,9.1747,9.1747,9.1785,9.1822,9.1672,9.1634,9.1559,9.1334,9.1071,9.0912,9.0958,9.0925,9.0952,9.084,9.0343,8.9949,8.9709,8.9508,8.9306,8.9104,8.9039,8.9011,8.8917,8.8874,8.8766,8.8679,8.8635,8.8592,8.8577,8.8562,8.8533,8.8503,8.8278,8.8188,8.812,8.8261,8.8037,8.7908,8.7778,8.767,8.7853,8.7993,8.8148,8.8278,8.8053,8.7828,8.8241,8.8466,8.8104,8.7885,8.7958,8.7963,8.7902,8.7814,8.7924,8.7745,8.7041,8.6902,8.2506,8.3173,8.3208,8.3208,8.3208,8.3208,8.3208,8.3208,8.3208,8.3208,8.3208,8.3208,8.3208,8.3208,8.3208,8.3208,8.3208,8.3208,8.3208,8.331,8.3816,8.4254,8.4754,8.5451,8.5934,8.6402,8.7015,8.7393,8.7465,8.7929,8.8357,8.8535,8.8642,8.8821,8.9299,8.9342,8.9471,8.9761,8.9938,8.9647,8.9087,8.9439,8.9781,8.9969,9.0246,9.0606,9.0905,9.1094,9.128,9.1532,9.1801,9.1997,9.2231,9.2383,9.2428,9.2569,9.2665,9.2611,9.2573,9.2536,9.2484,9.2461,9.2573,9.2761,9.2836,9.2536,9.1897,9.1818,9.1316,9.1269,9.1269,9.0874,9.0822,9.0658,9.0494,9.0329,8.9883,8.9563,8.9192,8.8693,8.8664,8.8635,8.8562,8.8473,8.8444,8.8399,8.8399,8.8339,8.8339,8.8384,8.8354,8.8369,8.8414,8.8488,8.8278,8.8284,8.8351,8.861,8.8794,8.8743,8.8612,8.879,8.8954,8.8917,8.893,8.8897,8.8767,8.8689,8.882,8.8809,8.8721,8.8641,8.8426,8.8274,8.8236,8.2401,8.3138,8.3208,8.3208,8.3208,8.3208,8.3208,8.3208,8.3208,8.3208,8.3208,8.3208,8.3208,8.3208,8.3208,8.3208,8.3279,8.3524,8.3454,8.3709,8.4392,8.4846,8.5475,8.6189,8.6795,8.7379,8.7964,8.8178,8.825,8.8714,8.8977,8.9263,8.9299,8.9299,8.9299,8.932,8.945,8.9649,8.9839,9.0105,9.034,9.0697,9.083,9.106,9.1378,9.1712,9.1983,9.2214,9.2442,9.2623,9.2723,9.2849,9.2955,9.3053,9.3288,9.3342,9.344,9.3574,9.3693,9.3633,9.3723,9.385,9.4,9.3963,9.3888,9.3587,9.2911,9.2536,9.2047,9.186,9.186,9.1709,9.1672,9.1531,9.1404,9.1135,9.0599,9.0122,8.9481,8.8817,8.8675,8.8675,8.8488,8.8398,8.833,8.8285,8.8223,8.8146,8.8131,8.8208,8.8239,8.8269,8.8278,8.8354,8.8429,8.8488,8.8503,8.8547,8.8635,8.8794,8.8922,8.895,8.8978,8.8992,8.9019,8.9061,8.917,8.913,8.9336,8.944,8.9376,8.9184,8.9272,8.9208,8.9497,8.1923,8.3208,8.3208,8.3208,8.3208,8.3208,8.3208,8.3208,8.3208,8.3208,8.3208,8.3208,8.3208,8.3208,8.3208,8.3279,8.3489,8.3805,8.4099,8.4319,8.5054,8.5569,8.6175,8.6939,8.7868,8.842,8.8821,8.8999,8.8856,8.9085,8.9299,8.9299,8.9299,8.9299,8.9299,8.9342,8.9371,8.9586,8.9833,9.0063,9.0423,9.073,9.0975,9.1206,9.1415,9.173,9.2002,9.2127,9.2355,9.265,9.2905,9.3033,9.3163,9.3275,9.3401,9.3526,9.3701,9.3762,9.3807,9.3897,9.3941,9.3971,9.3971,9.4,9.3963,9.3925,9.355,9.355,9.3249,9.3249,9.3137,9.2671,9.2484,9.2238,9.2021,9.1559,9.1058,9.0752,9.0355,8.9742,8.9345,8.9023,8.8521,8.8453,8.8341,8.831,8.8199,8.8121,8.81,8.81,8.8137,8.8146,8.8193,8.8162,8.8177,8.8308,8.8354,8.8399,8.8488,8.8679,8.8823,8.8936,8.8964,8.8992,8.9033,8.9075,8.9197,8.9371,8.9451,8.9553,8.9666,8.9714,8.9852,8.9889,8.9899]}]]